Wetterdaten: Montag, 16.09.2024
Datum Zeit Temp. I. Temp. A. Feuchte I. Feuchte A. Luftdruck Regen Wind Richtung Richtung Sonnenschein Solar Taupunkt Windchill Windböen
16.09.2024 00:00 25,2 °C 12,1 °C 50 % 89 % 1021,7 hPa 0,0 l/m² 0,2 km/h (0 Bft) W 271 ° 0 min 0 W/m² 10,3 °C 12,1 °C 1,6 km/h (1 Bft)
16.09.2024 00:02 25,2 °C 12,1 °C 50 % 89 % 1021,8 hPa 0,0 l/m² 0,0 km/h (0 Bft) W 271 ° 0 min 0 W/m² 10,3 °C 12,1 °C 0,0 km/h (0 Bft)
16.09.2024 00:03 25,2 °C 12,1 °C 50 % 89 % 1021,8 hPa 0,0 l/m² 0,0 km/h (0 Bft) W 271 ° 0 min 0 W/m² 10,3 °C 12,1 °C 0,0 km/h (0 Bft)
16.09.2024 00:05 25,2 °C 12,1 °C 50 % 89 % 1021,8 hPa 0,0 l/m² 0,0 km/h (0 Bft) W 271 ° 0 min 0 W/m² 10,3 °C 12,1 °C 0,0 km/h (0 Bft)
16.09.2024 00:07 25,2 °C 12,1 °C 50 % 89 % 1021,8 hPa 0,0 l/m² 0,6 km/h (0 Bft) W 271 ° 0 min 0 W/m² 10,3 °C 12,1 °C 4,8 km/h (1 Bft)
16.09.2024 00:08 25,1 °C 12,1 °C 50 % 89 % 1021,8 hPa 0,0 l/m² 1,0 km/h (0 Bft) W 271 ° 0 min 0 W/m² 10,3 °C 12,1 °C 3,2 km/h (1 Bft)
16.09.2024 00:09 25,2 °C 12,1 °C 50 % 89 % 1021,8 hPa 0,0 l/m² 0,1 km/h (0 Bft) W 271 ° 0 min 0 W/m² 10,3 °C 12,1 °C 1,6 km/h (1 Bft)
16.09.2024 00:11 25,1 °C 12,1 °C 50 % 89 % 1021,8 hPa 0,0 l/m² 2,4 km/h (1 Bft) W 271 ° 0 min 0 W/m² 10,3 °C 12,1 °C 6,4 km/h (2 Bft)
16.09.2024 00:12 25,1 °C 12,1 °C 50 % 89 % 1021,8 hPa 0,0 l/m² 4,4 km/h (1 Bft) NW 320 ° 0 min 0 W/m² 10,3 °C 12,1 °C 9,7 km/h (2 Bft)
16.09.2024 00:14 25,1 °C 12,1 °C 50 % 89 % 1021,8 hPa 0,0 l/m² 4,5 km/h (1 Bft) NW 311 ° 0 min 0 W/m² 10,3 °C 12,1 °C 9,7 km/h (2 Bft)
16.09.2024 00:16 25,1 °C 12,1 °C 50 % 89 % 1021,8 hPa 0,0 l/m² 4,7 km/h (1 Bft) W-NW 290 ° 0 min 0 W/m² 10,3 °C 12,1 °C 8,0 km/h (2 Bft)
16.09.2024 00:18 25,1 °C 12,1 °C 50 % 89 % 1021,7 hPa 0,0 l/m² 5,6 km/h (2 Bft) N-NW 327 ° 0 min 0 W/m² 10,3 °C 12,1 °C 14,5 km/h (3 Bft)
16.09.2024 00:20 25,1 °C 12,1 °C 50 % 89 % 1021,7 hPa 0,0 l/m² 4,9 km/h (1 Bft) W-NW 303 ° 0 min 0 W/m² 10,3 °C 12,1 °C 11,3 km/h (2 Bft)
16.09.2024 00:21 25,1 °C 12,1 °C 50 % 89 % 1021,7 hPa 0,0 l/m² 5,1 km/h (1 Bft) NW 304 ° 0 min 0 W/m² 10,3 °C 12,1 °C 11,3 km/h (2 Bft)
16.09.2024 00:22 25,1 °C 12,1 °C 50 % 89 % 1021,7 hPa 0,0 l/m² 3,4 km/h (1 Bft) W 281 ° 0 min 0 W/m² 10,3 °C 12,1 °C 6,4 km/h (2 Bft)
16.09.2024 00:23 25,0 °C 12,1 °C 50 % 89 % 1021,7 hPa 0,0 l/m² 4,1 km/h (1 Bft) NW 306 ° 0 min 0 W/m² 10,3 °C 12,1 °C 8,0 km/h (2 Bft)
16.09.2024 00:25 25,0 °C 12,1 °C 50 % 89 % 1021,7 hPa 0,0 l/m² 6,2 km/h (2 Bft) W-NW 294 ° 0 min 0 W/m² 10,3 °C 12,1 °C 11,3 km/h (2 Bft)
16.09.2024 00:27 25,0 °C 12,1 °C 50 % 89 % 1021,8 hPa 0,0 l/m² 2,4 km/h (1 Bft) W-NW 287 ° 0 min 0 W/m² 10,3 °C 12,1 °C 6,4 km/h (2 Bft)
16.09.2024 00:29 25,0 °C 12,1 °C 50 % 88 % 1021,7 hPa 0,0 l/m² 2,5 km/h (1 Bft) W 265 ° 0 min 0 W/m² 10,2 °C 12,1 °C 6,4 km/h (2 Bft)
16.09.2024 00:30 25,0 °C 12,1 °C 50 % 88 % 1021,7 hPa 0,0 l/m² 2,1 km/h (1 Bft) W 266 ° 0 min 0 W/m² 10,2 °C 12,1 °C 6,4 km/h (2 Bft)
16.09.2024 00:32 25,0 °C 12,1 °C 50 % 88 % 1021,7 hPa 0,0 l/m² 3,1 km/h (1 Bft) W 271 ° 0 min 0 W/m² 10,2 °C 12,1 °C 6,4 km/h (2 Bft)
16.09.2024 00:34 25,0 °C 12,1 °C 50 % 88 % 1021,7 hPa 0,0 l/m² 2,7 km/h (1 Bft) W 271 ° 0 min 0 W/m² 10,2 °C 12,1 °C 6,4 km/h (2 Bft)
16.09.2024 00:36 24,9 °C 12,1 °C 50 % 89 % 1021,7 hPa 0,0 l/m² 2,8 km/h (1 Bft) W 276 ° 0 min 0 W/m² 10,3 °C 12,1 °C 6,4 km/h (2 Bft)
16.09.2024 00:38 24,9 °C 12,1 °C 50 % 89 % 1021,7 hPa 0,0 l/m² 2,2 km/h (1 Bft) W-SW 258 ° 0 min 0 W/m² 10,3 °C 12,1 °C 9,7 km/h (2 Bft)
16.09.2024 00:40 24,9 °C 12,1 °C 50 % 89 % 1021,7 hPa 0,0 l/m² 2,6 km/h (1 Bft) W 261 ° 0 min 0 W/m² 10,3 °C 12,1 °C 6,4 km/h (2 Bft)
16.09.2024 00:41 24,9 °C 12,1 °C 50 % 89 % 1021,7 hPa 0,0 l/m² 1,5 km/h (1 Bft) W 270 ° 0 min 0 W/m² 10,3 °C 12,1 °C 6,4 km/h (2 Bft)
16.09.2024 00:42 24,9 °C 12,1 °C 50 % 89 % 1021,7 hPa 0,0 l/m² 0,6 km/h (0 Bft) W 275 ° 0 min 0 W/m² 10,3 °C 12,1 °C 6,4 km/h (2 Bft)
16.09.2024 00:44 24,9 °C 12,1 °C 50 % 89 % 1021,8 hPa 0,0 l/m² 1,1 km/h (1 Bft) W 274 ° 0 min 0 W/m² 10,3 °C 12,1 °C 4,8 km/h (1 Bft)
16.09.2024 00:45 24,8 °C 12,1 °C 50 % 89 % 1021,8 hPa 0,0 l/m² 4,8 km/h (1 Bft) W-SW 245 ° 0 min 0 W/m² 10,3 °C 12,1 °C 6,4 km/h (2 Bft)
16.09.2024 00:46 24,8 °C 12,1 °C 50 % 89 % 1021,7 hPa 0,0 l/m² 2,7 km/h (1 Bft) W-SW 248 ° 0 min 0 W/m² 10,3 °C 12,1 °C 6,4 km/h (2 Bft)
16.09.2024 00:47 24,9 °C 12,1 °C 50 % 89 % 1021,7 hPa 0,0 l/m² 4,2 km/h (1 Bft) W-SW 249 ° 0 min 0 W/m² 10,3 °C 12,1 °C 6,4 km/h (2 Bft)
16.09.2024 00:48 24,9 °C 12,1 °C 51 % 89 % 1021,7 hPa 0,2 l/m² 0,7 km/h (0 Bft) W-SW 249 ° 0 min 0 W/m² 10,3 °C 12,1 °C 3,2 km/h (1 Bft)
16.09.2024 00:50 24,8 °C 12,1 °C 51 % 89 % 1021,7 hPa 0,0 l/m² 0,8 km/h (0 Bft) W-SW 252 ° 0 min 0 W/m² 10,3 °C 12,1 °C 4,8 km/h (1 Bft)
16.09.2024 00:51 24,8 °C 12,0 °C 51 % 89 % 1021,8 hPa 0,0 l/m² 1,7 km/h (1 Bft) W-SW 252 ° 0 min 0 W/m² 10,2 °C 12,0 °C 4,8 km/h (1 Bft)
16.09.2024 00:53 24,8 °C 12,1 °C 51 % 89 % 1021,6 hPa 0,0 l/m² 1,4 km/h (1 Bft) W-SW 257 ° 0 min 0 W/m² 10,3 °C 12,1 °C 6,4 km/h (2 Bft)
16.09.2024 00:54 24,8 °C 12,0 °C 51 % 89 % 1021,6 hPa 0,0 l/m² 1,2 km/h (1 Bft) W-SW 258 ° 0 min 0 W/m² 10,2 °C 12,0 °C 3,2 km/h (1 Bft)
16.09.2024 00:56 24,8 °C 12,0 °C 51 % 89 % 1021,5 hPa 0,0 l/m² 4,4 km/h (1 Bft) W 279 ° 0 min 0 W/m² 10,2 °C 12,0 °C 11,3 km/h (2 Bft)
16.09.2024 00:58 24,8 °C 12,1 °C 51 % 89 % 1021,5 hPa 0,0 l/m² 3,8 km/h (1 Bft) W-NW 286 ° 0 min 0 W/m² 10,3 °C 12,1 °C 9,7 km/h (2 Bft)
16.09.2024 01:00 24,8 °C 12,0 °C 51 % 89 % 1021,6 hPa 0,0 l/m² 3,5 km/h (1 Bft) W 263 ° 0 min 0 W/m² 10,2 °C 12,0 °C 11,3 km/h (2 Bft)
16.09.2024 01:01 24,8 °C 12,0 °C 51 % 89 % 1021,6 hPa 0,0 l/m² 4,6 km/h (1 Bft) W-NW 286 ° 0 min 0 W/m² 10,2 °C 12,0 °C 9,7 km/h (2 Bft)
16.09.2024 01:02 24,8 °C 12,0 °C 51 % 89 % 1021,5 hPa 0,0 l/m² 2,5 km/h (1 Bft) W 269 ° 0 min 0 W/m² 10,2 °C 12,0 °C 4,8 km/h (1 Bft)
16.09.2024 01:04 24,8 °C 12,1 °C 51 % 89 % 1021,5 hPa 0,0 l/m² 3,2 km/h (1 Bft) W-NW 286 ° 0 min 0 W/m² 10,3 °C 12,1 °C 9,7 km/h (2 Bft)
16.09.2024 01:06 24,7 °C 12,1 °C 51 % 88 % 1021,5 hPa 0,0 l/m² 4,0 km/h (1 Bft) W-SW 256 ° 0 min 0 W/m² 10,2 °C 12,1 °C 8,0 km/h (2 Bft)
16.09.2024 01:08 24,7 °C 12,1 °C 51 % 88 % 1021,3 hPa 0,0 l/m² 5,3 km/h (1 Bft) W 278 ° 0 min 0 W/m² 10,2 °C 12,1 °C 14,5 km/h (3 Bft)
16.09.2024 01:10 24,7 °C 12,1 °C 51 % 88 % 1021,2 hPa 0,0 l/m² 3,0 km/h (1 Bft) W 265 ° 0 min 0 W/m² 10,2 °C 12,1 °C 6,4 km/h (2 Bft)
16.09.2024 01:11 24,7 °C 12,1 °C 51 % 88 % 1021,2 hPa 0,0 l/m² 6,5 km/h (2 Bft) W 269 ° 0 min 0 W/m² 10,2 °C 12,1 °C 14,5 km/h (3 Bft)
16.09.2024 01:13 24,7 °C 12,1 °C 51 % 88 % 1021,2 hPa 0,0 l/m² 2,8 km/h (1 Bft) W 272 ° 0 min 0 W/m² 10,2 °C 12,1 °C 9,7 km/h (2 Bft)
16.09.2024 01:14 24,7 °C 12,1 °C 51 % 88 % 1021,2 hPa 0,0 l/m² 3,5 km/h (1 Bft) W-NW 287 ° 0 min 0 W/m² 10,2 °C 12,1 °C 8,0 km/h (2 Bft)
16.09.2024 01:16 24,7 °C 12,1 °C 51 % 88 % 1021,3 hPa 0,0 l/m² 3,6 km/h (1 Bft) W 275 ° 0 min 0 W/m² 10,2 °C 12,1 °C 11,3 km/h (2 Bft)
16.09.2024 01:17 24,7 °C 12,1 °C 51 % 88 % 1021,3 hPa 0,0 l/m² 4,8 km/h (1 Bft) W 275 ° 0 min 0 W/m² 10,2 °C 12,1 °C 11,3 km/h (2 Bft)
16.09.2024 01:19 24,7 °C 12,1 °C 51 % 88 % 1021,3 hPa 0,0 l/m² 3,5 km/h (1 Bft) W 273 ° 0 min 0 W/m² 10,2 °C 12,1 °C 11,3 km/h (2 Bft)
16.09.2024 01:21 24,7 °C 12,1 °C 51 % 88 % 1021,3 hPa 0,0 l/m² 3,1 km/h (1 Bft) W 276 ° 0 min 0 W/m² 10,2 °C 12,1 °C 11,3 km/h (2 Bft)
16.09.2024 01:22 24,7 °C 12,1 °C 51 % 88 % 1021,3 hPa 0,0 l/m² 5,0 km/h (1 Bft) W-SW 255 ° 0 min 0 W/m² 10,2 °C 12,1 °C 9,7 km/h (2 Bft)
16.09.2024 01:24 24,7 °C 12,1 °C 51 % 88 % 1021,2 hPa 0,0 l/m² 3,8 km/h (1 Bft) NW 306 ° 0 min 0 W/m² 10,2 °C 12,1 °C 9,7 km/h (2 Bft)
16.09.2024 01:26 24,7 °C 12,1 °C 51 % 88 % 1021,2 hPa 0,0 l/m² 4,0 km/h (1 Bft) W 279 ° 0 min 0 W/m² 10,2 °C 12,1 °C 8,0 km/h (2 Bft)
16.09.2024 01:28 24,6 °C 12,1 °C 51 % 88 % 1021,2 hPa 0,0 l/m² 1,9 km/h (1 Bft) W 260 ° 0 min 0 W/m² 10,2 °C 12,1 °C 6,4 km/h (2 Bft)
16.09.2024 01:30 24,6 °C 12,1 °C 51 % 88 % 1021,1 hPa 0,0 l/m² 3,2 km/h (1 Bft) W-NW 291 ° 0 min 0 W/m² 10,2 °C 12,1 °C 11,3 km/h (2 Bft)
16.09.2024 01:31 24,6 °C 12,1 °C 51 % 88 % 1021,2 hPa 0,0 l/m² 5,2 km/h (1 Bft) W-NW 294 ° 0 min 0 W/m² 10,2 °C 12,1 °C 11,3 km/h (2 Bft)
16.09.2024 01:32 24,6 °C 12,1 °C 51 % 88 % 1021,2 hPa 0,0 l/m² 0,6 km/h (0 Bft) W-SW 250 ° 0 min 0 W/m² 10,2 °C 12,1 °C 1,6 km/h (1 Bft)
16.09.2024 01:34 24,6 °C 12,1 °C 51 % 88 % 1021,2 hPa 0,0 l/m² 3,3 km/h (1 Bft) W 263 ° 0 min 0 W/m² 10,2 °C 12,1 °C 9,7 km/h (2 Bft)
16.09.2024 01:36 24,6 °C 12,1 °C 51 % 88 % 1021,2 hPa 0,0 l/m² 2,3 km/h (1 Bft) W 275 ° 0 min 0 W/m² 10,2 °C 12,1 °C 6,4 km/h (2 Bft)
16.09.2024 01:38 24,6 °C 12,1 °C 51 % 88 % 1021,3 hPa 0,0 l/m² 2,4 km/h (1 Bft) W-NW 286 ° 0 min 0 W/m² 10,2 °C 12,1 °C 6,4 km/h (2 Bft)
16.09.2024 01:40 24,6 °C 12,1 °C 51 % 88 % 1021,3 hPa 0,0 l/m² 2,1 km/h (1 Bft) W 275 ° 0 min 0 W/m² 10,2 °C 12,1 °C 4,8 km/h (1 Bft)
16.09.2024 01:41 24,6 °C 12,1 °C 51 % 88 % 1021,3 hPa 0,0 l/m² 1,4 km/h (1 Bft) W-NW 282 ° 0 min 0 W/m² 10,2 °C 12,1 °C 6,4 km/h (2 Bft)
16.09.2024 01:43 24,6 °C 12,1 °C 51 % 88 % 1021,2 hPa 0,0 l/m² 2,5 km/h (1 Bft) W-NW 293 ° 0 min 0 W/m² 10,2 °C 12,1 °C 6,4 km/h (2 Bft)
16.09.2024 01:44 24,6 °C 12,0 °C 51 % 88 % 1021,3 hPa 0,0 l/m² 1,1 km/h (1 Bft) W-NW 284 ° 0 min 0 W/m² 10,1 °C 12,0 °C 4,8 km/h (1 Bft)
16.09.2024 01:46 24,6 °C 12,1 °C 51 % 88 % 1021,2 hPa 0,0 l/m² 1,3 km/h (1 Bft) W 269 ° 0 min 0 W/m² 10,2 °C 12,1 °C 4,8 km/h (1 Bft)
16.09.2024 01:48 24,5 °C 12,1 °C 51 % 88 % 1021,2 hPa 0,0 l/m² 3,6 km/h (1 Bft) W-SW 246 ° 0 min 0 W/m² 10,2 °C 12,1 °C 14,5 km/h (3 Bft)
16.09.2024 01:50 24,5 °C 12,0 °C 51 % 88 % 1021,2 hPa 0,0 l/m² 3,9 km/h (1 Bft) W-NW 286 ° 0 min 0 W/m² 10,1 °C 12,0 °C 8,0 km/h (2 Bft)
16.09.2024 01:51 24,5 °C 12,0 °C 51 % 87 % 1021,1 hPa 0,0 l/m² 3,8 km/h (1 Bft) W 275 ° 0 min 0 W/m² 9,9 °C 12,0 °C 12,9 km/h (3 Bft)
16.09.2024 01:53 24,5 °C 12,0 °C 51 % 87 % 1021,1 hPa 0,0 l/m² 4,7 km/h (1 Bft) W 273 ° 0 min 0 W/m² 9,9 °C 12,0 °C 9,7 km/h (2 Bft)
16.09.2024 01:54 24,5 °C 12,1 °C 51 % 87 % 1021,1 hPa 0,0 l/m² 2,1 km/h (1 Bft) W 262 ° 0 min 0 W/m² 10,0 °C 12,1 °C 4,8 km/h (1 Bft)
16.09.2024 01:56 24,5 °C 12,1 °C 51 % 88 % 1021,1 hPa 0,0 l/m² 3,1 km/h (1 Bft) W 261 ° 0 min 0 W/m² 10,2 °C 12,1 °C 9,7 km/h (2 Bft)
16.09.2024 01:58 24,4 °C 12,1 °C 51 % 87 % 1021,1 hPa 0,0 l/m² 3,4 km/h (1 Bft) W-NW 283 ° 0 min 0 W/m² 10,0 °C 12,1 °C 11,3 km/h (2 Bft)
16.09.2024 02:00 24,4 °C 12,1 °C 51 % 87 % 1021,1 hPa 0,0 l/m² 3,0 km/h (1 Bft) W 273 ° 0 min 0 W/m² 10,0 °C 12,1 °C 9,7 km/h (2 Bft)
16.09.2024 02:01 24,4 °C 12,0 °C 51 % 87 % 1021,1 hPa 0,0 l/m² 4,3 km/h (1 Bft) W 271 ° 0 min 0 W/m² 9,9 °C 12,0 °C 12,9 km/h (3 Bft)
16.09.2024 02:03 24,4 °C 12,0 °C 51 % 87 % 1021,0 hPa 0,0 l/m² 3,1 km/h (1 Bft) W-NW 289 ° 0 min 0 W/m² 9,9 °C 12,0 °C 6,4 km/h (2 Bft)
16.09.2024 02:04 24,4 °C 12,1 °C 51 % 87 % 1021,0 hPa 0,0 l/m² 2,3 km/h (1 Bft) W-NW 296 ° 0 min 0 W/m² 10,0 °C 12,1 °C 8,0 km/h (2 Bft)
16.09.2024 02:06 24,4 °C 12,1 °C 51 % 87 % 1020,9 hPa 0,0 l/m² 3,2 km/h (1 Bft) W 260 ° 0 min 0 W/m² 10,0 °C 12,1 °C 6,4 km/h (2 Bft)
16.09.2024 02:08 24,4 °C 12,0 °C 51 % 87 % 1020,9 hPa 0,0 l/m² 4,3 km/h (1 Bft) W 268 ° 0 min 0 W/m² 9,9 °C 12,0 °C 12,9 km/h (3 Bft)
16.09.2024 02:10 24,4 °C 12,1 °C 51 % 87 % 1020,9 hPa 0,0 l/m² 3,5 km/h (1 Bft) W-SW 254 ° 0 min 0 W/m² 10,0 °C 12,1 °C 12,9 km/h (3 Bft)
16.09.2024 02:11 24,4 °C 12,0 °C 51 % 87 % 1020,9 hPa 0,0 l/m² 3,8 km/h (1 Bft) W 270 ° 0 min 0 W/m² 9,9 °C 12,0 °C 8,0 km/h (2 Bft)
16.09.2024 02:13 24,4 °C 12,1 °C 51 % 87 % 1020,9 hPa 0,0 l/m² 5,4 km/h (2 Bft) W-NW 284 ° 0 min 0 W/m² 10,0 °C 12,1 °C 11,3 km/h (2 Bft)
16.09.2024 02:14 24,4 °C 12,1 °C 51 % 87 % 1020,9 hPa 0,0 l/m² 1,7 km/h (1 Bft) W-NW 284 ° 0 min 0 W/m² 10,0 °C 12,1 °C 6,4 km/h (2 Bft)
16.09.2024 02:16 24,3 °C 12,1 °C 51 % 87 % 1021,0 hPa 0,0 l/m² 2,6 km/h (1 Bft) SW 219 ° 0 min 0 W/m² 10,0 °C 12,1 °C 9,7 km/h (2 Bft)
16.09.2024 02:17 24,4 °C 12,1 °C 51 % 87 % 1021,0 hPa 0,0 l/m² 4,0 km/h (1 Bft) W-NW 301 ° 0 min 0 W/m² 10,0 °C 12,1 °C 8,0 km/h (2 Bft)
16.09.2024 02:18 24,4 °C 12,1 °C 51 % 87 % 1021,0 hPa 0,0 l/m² 1,4 km/h (1 Bft) W-NW 301 ° 0 min 0 W/m² 10,0 °C 12,1 °C 6,4 km/h (2 Bft)
16.09.2024 02:20 24,4 °C 12,0 °C 51 % 87 % 1021,0 hPa 0,0 l/m² 5,0 km/h (1 Bft) NW 309 ° 0 min 0 W/m² 9,9 °C 12,0 °C 14,5 km/h (3 Bft)
16.09.2024 02:21 24,4 °C 12,0 °C 51 % 87 % 1021,1 hPa 0,0 l/m² 4,0 km/h (1 Bft) W-SW 252 ° 0 min 0 W/m² 9,9 °C 12,0 °C 6,4 km/h (2 Bft)
16.09.2024 02:23 24,3 °C 12,0 °C 51 % 87 % 1021,2 hPa 0,0 l/m² 5,5 km/h (2 Bft) N 349 ° 0 min 0 W/m² 9,9 °C 12,0 °C 9,7 km/h (2 Bft)
16.09.2024 02:24 24,3 °C 12,1 °C 51 % 87 % 1021,2 hPa 0,0 l/m² 4,1 km/h (1 Bft) W-NW 301 ° 0 min 0 W/m² 10,0 °C 12,1 °C 8,0 km/h (2 Bft)
16.09.2024 02:26 24,3 °C 12,0 °C 51 % 87 % 1021,1 hPa 0,0 l/m² 6,5 km/h (2 Bft) NW 325 ° 0 min 0 W/m² 9,9 °C 12,0 °C 14,5 km/h (3 Bft)
16.09.2024 02:28 24,3 °C 12,0 °C 51 % 86 % 1021,2 hPa 0,0 l/m² 4,4 km/h (1 Bft) W-NW 291 ° 0 min 0 W/m² 9,7 °C 12,0 °C 12,9 km/h (3 Bft)
16.09.2024 02:30 24,3 °C 12,0 °C 51 % 86 % 1021,1 hPa 0,0 l/m² 4,8 km/h (1 Bft) W 262 ° 0 min 0 W/m² 9,7 °C 12,0 °C 11,3 km/h (2 Bft)
16.09.2024 02:31 24,3 °C 12,1 °C 51 % 86 % 1021,0 hPa 0,0 l/m² 7,9 km/h (2 Bft) NW 305 ° 0 min 0 W/m² 9,8 °C 11,1 °C 16,1 km/h (3 Bft)
16.09.2024 02:33 24,3 °C 12,0 °C 51 % 86 % 1021,1 hPa 0,0 l/m² 4,4 km/h (1 Bft) NW 310 ° 0 min 0 W/m² 9,7 °C 12,0 °C 8,0 km/h (2 Bft)
16.09.2024 02:34 24,3 °C 12,1 °C 51 % 86 % 1021,1 hPa 0,0 l/m² 4,1 km/h (1 Bft) W-NW 289 ° 0 min 0 W/m² 9,8 °C 12,1 °C 8,0 km/h (2 Bft)
16.09.2024 02:36 24,3 °C 12,1 °C 52 % 86 % 1021,0 hPa 0,0 l/m² 5,8 km/h (2 Bft) W-NW 287 ° 0 min 0 W/m² 9,8 °C 12,1 °C 14,5 km/h (3 Bft)
16.09.2024 02:38 24,3 °C 12,1 °C 52 % 86 % 1021,0 hPa 0,0 l/m² 6,7 km/h (2 Bft) NW 313 ° 0 min 0 W/m² 9,8 °C 11,9 °C 16,1 km/h (3 Bft)
16.09.2024 02:40 24,3 °C 12,1 °C 52 % 86 % 1021,0 hPa 0,0 l/m² 7,6 km/h (2 Bft) N-NW 342 ° 0 min 0 W/m² 9,8 °C 11,3 °C 16,1 km/h (3 Bft)
16.09.2024 02:41 24,3 °C 12,1 °C 52 % 86 % 1021,0 hPa 0,0 l/m² 4,2 km/h (1 Bft) W-NW 297 ° 0 min 0 W/m² 9,8 °C 12,1 °C 8,0 km/h (2 Bft)
16.09.2024 02:43 24,3 °C 12,1 °C 52 % 86 % 1021,0 hPa 0,0 l/m² 7,7 km/h (2 Bft) N-NW 337 ° 0 min 0 W/m² 9,8 °C 11,2 °C 14,5 km/h (3 Bft)
16.09.2024 02:44 24,3 °C 12,1 °C 52 % 86 % 1021,0 hPa 0,0 l/m² 4,8 km/h (1 Bft) NW 315 ° 0 min 0 W/m² 9,8 °C 12,1 °C 8,0 km/h (2 Bft)
16.09.2024 02:46 24,3 °C 12,1 °C 52 % 86 % 1021,1 hPa 0,0 l/m² 7,7 km/h (2 Bft) NW 304 ° 0 min 0 W/m² 9,8 °C 11,2 °C 16,1 km/h (3 Bft)
16.09.2024 02:48 24,3 °C 12,1 °C 52 % 86 % 1021,0 hPa 0,0 l/m² 6,7 km/h (2 Bft) NW 306 ° 0 min 0 W/m² 9,8 °C 11,9 °C 16,1 km/h (3 Bft)
16.09.2024 02:50 24,2 °C 12,1 °C 52 % 86 % 1021,0 hPa 0,0 l/m² 8,7 km/h (2 Bft) NW 319 ° 0 min 0 W/m² 9,8 °C 10,6 °C 19,3 km/h (3 Bft)
16.09.2024 02:51 24,3 °C 12,1 °C 52 % 86 % 1020,9 hPa 0,0 l/m² 8,8 km/h (2 Bft) W-NW 285 ° 0 min 0 W/m² 9,8 °C 10,6 °C 16,1 km/h (3 Bft)
16.09.2024 02:53 24,2 °C 12,1 °C 52 % 86 % 1020,9 hPa 0,0 l/m² 7,1 km/h (2 Bft) W-NW 300 ° 0 min 0 W/m² 9,8 °C 11,6 °C 17,7 km/h (3 Bft)
16.09.2024 02:54 24,2 °C 12,1 °C 52 % 86 % 1020,9 hPa 0,0 l/m² 9,7 km/h (2 Bft) W-NW 284 ° 0 min 0 W/m² 9,8 °C 10,1 °C 17,7 km/h (3 Bft)
16.09.2024 02:56 24,2 °C 12,1 °C 52 % 86 % 1020,9 hPa 0,0 l/m² 6,9 km/h (2 Bft) N-NW 337 ° 0 min 0 W/m² 9,8 °C 11,8 °C 16,1 km/h (3 Bft)
16.09.2024 02:57 24,2 °C 12,0 °C 52 % 86 % 1020,9 hPa 0,0 l/m² 4,8 km/h (1 Bft) W-SW 250 ° 0 min 0 W/m² 9,7 °C 12,0 °C 11,3 km/h (2 Bft)
16.09.2024 02:59 24,2 °C 11,9 °C 52 % 86 % 1020,9 hPa 0,0 l/m² 3,5 km/h (1 Bft) W 261 ° 0 min 0 W/m² 9,6 °C 11,9 °C 8,0 km/h (2 Bft)
16.09.2024 03:00 24,2 °C 11,9 °C 52 % 86 % 1020,8 hPa 0,0 l/m² 4,8 km/h (1 Bft) W-NW 292 ° 0 min 0 W/m² 9,6 °C 11,9 °C 9,7 km/h (2 Bft)
16.09.2024 03:06 24,2 °C 11,9 °C 52 % 87 % 1020,8 hPa 0,0 l/m² 2,6 km/h (1 Bft) W-NW 300 ° 0 min 0 W/m² 9,8 °C 11,9 °C 4,8 km/h (1 Bft)
16.09.2024 03:08 24,2 °C 11,9 °C 52 % 87 % 1020,8 hPa 0,0 l/m² 5,0 km/h (1 Bft) NW 315 ° 0 min 0 W/m² 9,8 °C 11,9 °C 12,9 km/h (3 Bft)
16.09.2024 03:09 24,2 °C 11,8 °C 52 % 87 % 1020,8 hPa 0,0 l/m² 4,7 km/h (1 Bft) W-NW 289 ° 0 min 0 W/m² 9,7 °C 11,8 °C 8,0 km/h (2 Bft)
16.09.2024 03:11 24,2 °C 11,8 °C 52 % 87 % 1020,9 hPa 0,0 l/m² 3,8 km/h (1 Bft) W-NW 298 ° 0 min 0 W/m² 9,7 °C 11,8 °C 11,3 km/h (2 Bft)
16.09.2024 03:12 24,2 °C 11,8 °C 52 % 87 % 1020,9 hPa 0,0 l/m² 5,5 km/h (2 Bft) W-NW 300 ° 0 min 0 W/m² 9,7 °C 11,8 °C 12,9 km/h (3 Bft)
16.09.2024 03:14 24,2 °C 11,8 °C 52 % 87 % 1020,9 hPa 0,0 l/m² 6,2 km/h (2 Bft) S-SW 197 ° 0 min 0 W/m² 9,7 °C 11,8 °C 14,5 km/h (3 Bft)
16.09.2024 03:16 24,2 °C 11,9 °C 52 % 87 % 1020,9 hPa 0,0 l/m² 3,4 km/h (1 Bft) W-NW 292 ° 0 min 0 W/m² 9,8 °C 11,9 °C 8,0 km/h (2 Bft)
16.09.2024 03:18 24,2 °C 11,9 °C 52 % 87 % 1020,8 hPa 0,0 l/m² 3,9 km/h (1 Bft) W 266 ° 0 min 0 W/m² 9,8 °C 11,9 °C 11,3 km/h (2 Bft)
16.09.2024 03:20 24,2 °C 11,9 °C 52 % 87 % 1020,8 hPa 0,0 l/m² 4,2 km/h (1 Bft) NW 307 ° 0 min 0 W/m² 9,8 °C 11,9 °C 11,3 km/h (2 Bft)
16.09.2024 03:21 24,2 °C 11,9 °C 52 % 87 % 1020,9 hPa 0,0 l/m² 4,7 km/h (1 Bft) W-NW 294 ° 0 min 0 W/m² 9,8 °C 11,9 °C 14,5 km/h (3 Bft)
16.09.2024 03:22 24,1 °C 11,9 °C 52 % 87 % 1020,9 hPa 0,0 l/m² 5,0 km/h (1 Bft) W-NW 300 ° 0 min 0 W/m² 9,8 °C 11,9 °C 11,3 km/h (2 Bft)
16.09.2024 03:24 24,2 °C 11,9 °C 52 % 87 % 1020,9 hPa 0,0 l/m² 4,6 km/h (1 Bft) W 266 ° 0 min 0 W/m² 9,8 °C 11,9 °C 11,3 km/h (2 Bft)
16.09.2024 03:26 24,1 °C 11,9 °C 52 % 87 % 1020,9 hPa 0,0 l/m² 3,3 km/h (1 Bft) W 261 ° 0 min 0 W/m² 9,8 °C 11,9 °C 12,9 km/h (3 Bft)
16.09.2024 03:28 24,2 °C 11,9 °C 52 % 87 % 1020,9 hPa 0,0 l/m² 5,1 km/h (1 Bft) W 265 ° 0 min 0 W/m² 9,8 °C 11,9 °C 8,0 km/h (2 Bft)
16.09.2024 03:30 24,1 °C 11,9 °C 52 % 86 % 1020,9 hPa 0,0 l/m² 3,7 km/h (1 Bft) NW 317 ° 0 min 0 W/m² 9,6 °C 11,9 °C 8,0 km/h (2 Bft)
16.09.2024 03:31 24,1 °C 11,9 °C 52 % 86 % 1020,9 hPa 0,0 l/m² 5,1 km/h (1 Bft) W-NW 290 ° 0 min 0 W/m² 9,6 °C 11,9 °C 8,0 km/h (2 Bft)
16.09.2024 03:32 24,1 °C 11,9 °C 52 % 86 % 1020,8 hPa 0,0 l/m² 5,1 km/h (1 Bft) W 280 ° 0 min 0 W/m² 9,6 °C 11,9 °C 9,7 km/h (2 Bft)
16.09.2024 03:34 24,1 °C 11,9 °C 52 % 86 % 1020,8 hPa 0,0 l/m² 4,9 km/h (1 Bft) W-NW 295 ° 0 min 0 W/m² 9,6 °C 11,9 °C 12,9 km/h (3 Bft)
16.09.2024 03:36 24,1 °C 12,0 °C 52 % 86 % 1020,8 hPa 0,0 l/m² 3,8 km/h (1 Bft) N-NW 347 ° 0 min 0 W/m² 9,7 °C 12,0 °C 11,3 km/h (2 Bft)
16.09.2024 03:38 24,1 °C 12,1 °C 52 % 86 % 1020,8 hPa 0,0 l/m² 3,4 km/h (1 Bft) W 259 ° 0 min 0 W/m² 9,8 °C 12,1 °C 8,0 km/h (2 Bft)
16.09.2024 03:40 24,1 °C 12,1 °C 52 % 86 % 1020,7 hPa 0,0 l/m² 5,0 km/h (1 Bft) NW 306 ° 0 min 0 W/m² 9,8 °C 12,1 °C 12,9 km/h (3 Bft)
16.09.2024 03:41 24,1 °C 12,1 °C 52 % 86 % 1020,7 hPa 0,0 l/m² 5,3 km/h (1 Bft) W-NW 288 ° 0 min 0 W/m² 9,8 °C 12,1 °C 9,7 km/h (2 Bft)
16.09.2024 03:42 24,1 °C 12,1 °C 52 % 86 % 1020,7 hPa 0,0 l/m² 5,4 km/h (2 Bft) NW 308 ° 0 min 0 W/m² 9,8 °C 12,1 °C 12,9 km/h (3 Bft)
16.09.2024 03:44 24,1 °C 12,1 °C 52 % 86 % 1020,7 hPa 0,0 l/m² 5,6 km/h (2 Bft) W-NW 303 ° 0 min 0 W/m² 9,8 °C 12,1 °C 11,3 km/h (2 Bft)
16.09.2024 03:45 24,1 °C 12,1 °C 52 % 86 % 1020,7 hPa 0,0 l/m² 6,4 km/h (2 Bft) W-NW 300 ° 0 min 0 W/m² 9,8 °C 12,1 °C 9,7 km/h (2 Bft)
16.09.2024 03:46 24,1 °C 12,1 °C 52 % 86 % 1020,6 hPa 0,0 l/m² 5,4 km/h (2 Bft) W-NW 288 ° 0 min 0 W/m² 9,8 °C 12,1 °C 12,9 km/h (3 Bft)
16.09.2024 03:47 24,1 °C 12,1 °C 52 % 85 % 1020,6 hPa 0,0 l/m² 4,0 km/h (1 Bft) W 279 ° 0 min 0 W/m² 9,7 °C 12,1 °C 8,0 km/h (2 Bft)
16.09.2024 03:49 24,1 °C 12,1 °C 52 % 85 % 1020,6 hPa 0,0 l/m² 4,7 km/h (1 Bft) W 271 ° 0 min 0 W/m² 9,7 °C 12,1 °C 17,7 km/h (3 Bft)
16.09.2024 03:50 24,1 °C 12,1 °C 52 % 85 % 1020,6 hPa 0,0 l/m² 5,6 km/h (2 Bft) W-NW 296 ° 0 min 0 W/m² 9,7 °C 12,1 °C 12,9 km/h (3 Bft)
16.09.2024 03:52 24,1 °C 12,1 °C 52 % 85 % 1020,7 hPa 0,0 l/m² 8,4 km/h (2 Bft) NW 315 ° 0 min 0 W/m² 9,7 °C 10,8 °C 16,1 km/h (3 Bft)
16.09.2024 03:53 24,1 °C 12,1 °C 52 % 85 % 1020,7 hPa 0,0 l/m² 3,3 km/h (1 Bft) W-NW 298 ° 0 min 0 W/m² 9,7 °C 12,1 °C 6,4 km/h (2 Bft)
16.09.2024 03:55 24,1 °C 12,1 °C 52 % 85 % 1020,6 hPa 0,0 l/m² 4,9 km/h (1 Bft) W-NW 289 ° 0 min 0 W/m² 9,7 °C 12,1 °C 16,1 km/h (3 Bft)
16.09.2024 03:57 24,1 °C 12,1 °C 52 % 85 % 1020,7 hPa 0,0 l/m² 7,0 km/h (2 Bft) NW 307 ° 0 min 0 W/m² 9,7 °C 11,7 °C 12,9 km/h (3 Bft)
16.09.2024 03:59 24,1 °C 12,1 °C 52 % 85 % 1020,6 hPa 0,0 l/m² 3,9 km/h (1 Bft) W-NW 302 ° 0 min 0 W/m² 9,7 °C 12,1 °C 14,5 km/h (3 Bft)
16.09.2024 04:00 24,1 °C 12,1 °C 52 % 85 % 1020,6 hPa 0,0 l/m² 4,2 km/h (1 Bft) W-NW 296 ° 0 min 0 W/m² 9,7 °C 12,1 °C 8,0 km/h (2 Bft)
16.09.2024 04:02 24,1 °C 12,1 °C 52 % 85 % 1020,5 hPa 0,0 l/m² 4,4 km/h (1 Bft) N 355 ° 0 min 0 W/m² 9,7 °C 12,1 °C 11,3 km/h (2 Bft)
16.09.2024 04:03 24,1 °C 12,1 °C 52 % 85 % 1020,5 hPa 0,0 l/m² 4,6 km/h (1 Bft) NW 317 ° 0 min 0 W/m² 9,7 °C 12,1 °C 8,0 km/h (2 Bft)
16.09.2024 04:05 24,1 °C 12,1 °C 52 % 85 % 1020,5 hPa 0,0 l/m² 5,7 km/h (2 Bft) W 263 ° 0 min 0 W/m² 9,7 °C 12,1 °C 11,3 km/h (2 Bft)
16.09.2024 04:07 24,1 °C 12,1 °C 52 % 85 % 1020,5 hPa 0,0 l/m² 4,1 km/h (1 Bft) W 265 ° 0 min 0 W/m² 9,7 °C 12,1 °C 8,0 km/h (2 Bft)
16.09.2024 04:09 24,0 °C 12,1 °C 52 % 85 % 1020,5 hPa 0,0 l/m² 6,2 km/h (2 Bft) NW 315 ° 0 min 0 W/m² 9,7 °C 12,1 °C 14,5 km/h (3 Bft)
16.09.2024 04:10 24,0 °C 12,1 °C 52 % 85 % 1020,4 hPa 0,0 l/m² 9,0 km/h (2 Bft) NW 326 ° 0 min 0 W/m² 9,7 °C 10,5 °C 16,1 km/h (3 Bft)
16.09.2024 04:11 24,0 °C 12,1 °C 52 % 85 % 1020,4 hPa 0,0 l/m² 5,4 km/h (2 Bft) W-NW 297 ° 0 min 0 W/m² 9,7 °C 12,1 °C 8,0 km/h (2 Bft)
16.09.2024 04:12 24,0 °C 12,1 °C 52 % 85 % 1020,4 hPa 0,0 l/m² 3,9 km/h (1 Bft) W-NW 298 ° 0 min 0 W/m² 9,7 °C 12,1 °C 6,4 km/h (2 Bft)
16.09.2024 04:14 24,0 °C 12,1 °C 52 % 85 % 1020,4 hPa 0,0 l/m² 8,2 km/h (2 Bft) N-NW 329 ° 0 min 0 W/m² 9,7 °C 10,9 °C 19,3 km/h (3 Bft)
16.09.2024 04:16 24,0 °C 12,1 °C 52 % 85 % 1020,5 hPa 0,0 l/m² 8,2 km/h (2 Bft) W-NW 299 ° 0 min 0 W/m² 9,7 °C 10,9 °C 16,1 km/h (3 Bft)
16.09.2024 04:18 24,0 °C 12,1 °C 52 % 85 % 1020,4 hPa 0,0 l/m² 7,5 km/h (2 Bft) N-NW 339 ° 0 min 0 W/m² 9,7 °C 11,4 °C 19,3 km/h (3 Bft)
16.09.2024 04:20 24,0 °C 12,1 °C 52 % 85 % 1020,5 hPa 0,0 l/m² 6,3 km/h (2 Bft) NW 307 ° 0 min 0 W/m² 9,7 °C 12,1 °C 14,5 km/h (3 Bft)
16.09.2024 04:21 23,9 °C 12,2 °C 52 % 85 % 1020,5 hPa 0,0 l/m² 9,2 km/h (2 Bft) W-NW 302 ° 0 min 0 W/m² 9,8 °C 10,5 °C 16,1 km/h (3 Bft)
16.09.2024 04:22 23,9 °C 12,1 °C 52 % 85 % 1020,5 hPa 0,0 l/m² 13,9 km/h (3 Bft) N-NW 330 ° 0 min 0 W/m² 9,7 °C 8,1 °C 19,3 km/h (3 Bft)
16.09.2024 04:24 23,9 °C 12,2 °C 52 % 85 % 1020,5 hPa 0,0 l/m² 9,8 km/h (2 Bft) N-NW 339 ° 0 min 0 W/m² 9,8 °C 10,1 °C 16,1 km/h (3 Bft)
16.09.2024 04:26 24,0 °C 12,2 °C 52 % 84 % 1020,5 hPa 0,0 l/m² 9,6 km/h (2 Bft) W-NW 302 ° 0 min 0 W/m² 9,6 °C 10,2 °C 20,9 km/h (4 Bft)
16.09.2024 04:28 24,0 °C 12,2 °C 52 % 84 % 1020,5 hPa 0,0 l/m² 8,0 km/h (2 Bft) W-NW 295 ° 0 min 0 W/m² 9,6 °C 11,2 °C 16,1 km/h (3 Bft)
16.09.2024 04:30 24,0 °C 12,2 °C 52 % 84 % 1020,4 hPa 0,0 l/m² 9,6 km/h (2 Bft) W-NW 298 ° 0 min 0 W/m² 9,6 °C 10,2 °C 17,7 km/h (3 Bft)
16.09.2024 04:31 23,9 °C 12,2 °C 52 % 84 % 1020,4 hPa 0,0 l/m² 5,2 km/h (1 Bft) W-NW 289 ° 0 min 0 W/m² 9,6 °C 12,2 °C 16,1 km/h (3 Bft)
16.09.2024 04:32 23,9 °C 12,2 °C 52 % 84 % 1020,4 hPa 0,0 l/m² 5,4 km/h (2 Bft) N-NW 334 ° 0 min 0 W/m² 9,6 °C 12,2 °C 12,9 km/h (3 Bft)
16.09.2024 04:33 23,9 °C 12,2 °C 52 % 84 % 1020,4 hPa 0,0 l/m² 5,9 km/h (2 Bft) W-NW 301 ° 0 min 0 W/m² 9,6 °C 12,2 °C 11,3 km/h (2 Bft)
16.09.2024 04:34 23,9 °C 12,2 °C 52 % 84 % 1020,5 hPa 0,0 l/m² 10,0 km/h (2 Bft) N-NW 336 ° 0 min 0 W/m² 9,6 °C 10,0 °C 16,1 km/h (3 Bft)
16.09.2024 04:36 23,9 °C 12,2 °C 52 % 84 % 1020,5 hPa 0,0 l/m² 6,3 km/h (2 Bft) W-NW 294 ° 0 min 0 W/m² 9,6 °C 12,2 °C 9,7 km/h (2 Bft)
16.09.2024 04:38 23,9 °C 12,2 °C 52 % 84 % 1020,5 hPa 0,0 l/m² 6,6 km/h (2 Bft) W-NW 284 ° 0 min 0 W/m² 9,6 °C 12,1 °C 14,5 km/h (3 Bft)
16.09.2024 04:40 23,9 °C 12,2 °C 52 % 84 % 1020,5 hPa 0,0 l/m² 3,7 km/h (1 Bft) W-NW 298 ° 0 min 0 W/m² 9,6 °C 12,2 °C 12,9 km/h (3 Bft)
16.09.2024 04:41 23,9 °C 12,2 °C 52 % 84 % 1020,5 hPa 0,0 l/m² 8,8 km/h (2 Bft) W-NW 300 ° 0 min 0 W/m² 9,6 °C 10,7 °C 16,1 km/h (3 Bft)
16.09.2024 04:42 23,9 °C 12,2 °C 52 % 84 % 1020,5 hPa 0,0 l/m² 5,7 km/h (2 Bft) N-NW 335 ° 0 min 0 W/m² 9,6 °C 12,2 °C 12,9 km/h (3 Bft)
16.09.2024 04:44 23,9 °C 12,2 °C 52 % 84 % 1020,4 hPa 0,0 l/m² 6,0 km/h (2 Bft) NW 319 ° 0 min 0 W/m² 9,6 °C 12,2 °C 20,9 km/h (4 Bft)
16.09.2024 04:46 23,9 °C 12,2 °C 52 % 84 % 1020,5 hPa 0,0 l/m² 10,4 km/h (2 Bft) W-NW 293 ° 0 min 0 W/m² 9,6 °C 9,8 °C 19,3 km/h (3 Bft)
16.09.2024 04:48 23,9 °C 12,2 °C 52 % 84 % 1020,3 hPa 0,0 l/m² 10,6 km/h (2 Bft) W 279 ° 0 min 0 W/m² 9,6 °C 9,7 °C 22,5 km/h (4 Bft)
16.09.2024 04:50 23,9 °C 12,2 °C 52 % 84 % 1020,3 hPa 0,0 l/m² 9,2 km/h (2 Bft) W-NW 298 ° 0 min 0 W/m² 9,6 °C 10,5 °C 17,7 km/h (3 Bft)
16.09.2024 04:51 23,9 °C 12,2 °C 52 % 84 % 1020,1 hPa 0,0 l/m² 4,9 km/h (1 Bft) NW 323 ° 0 min 0 W/m² 9,6 °C 12,2 °C 8,0 km/h (2 Bft)
16.09.2024 04:52 23,9 °C 12,2 °C 52 % 84 % 1020,1 hPa 0,0 l/m² 6,4 km/h (2 Bft) W-NW 300 ° 0 min 0 W/m² 9,6 °C 12,2 °C 14,5 km/h (3 Bft)
16.09.2024 04:54 23,9 °C 12,2 °C 52 % 84 % 1020,1 hPa 0,0 l/m² 7,5 km/h (2 Bft) W-NW 299 ° 0 min 0 W/m² 9,6 °C 11,5 °C 17,7 km/h (3 Bft)
16.09.2024 04:56 23,9 °C 12,2 °C 52 % 84 % 1020,1 hPa 0,0 l/m² 8,1 km/h (2 Bft) W-NW 286 ° 0 min 0 W/m² 9,6 °C 11,1 °C 17,7 km/h (3 Bft)
16.09.2024 04:58 23,9 °C 12,2 °C 52 % 85 % 1020,3 hPa 0,0 l/m² 9,5 km/h (2 Bft) NW 321 ° 0 min 0 W/m² 9,8 °C 10,3 °C 16,1 km/h (3 Bft)
16.09.2024 05:00 23,9 °C 12,2 °C 52 % 85 % 1020,4 hPa 0,0 l/m² 9,7 km/h (2 Bft) W-NW 301 ° 0 min 0 W/m² 9,8 °C 10,2 °C 20,9 km/h (4 Bft)
16.09.2024 05:01 24,0 °C 12,2 °C 52 % 85 % 1020,3 hPa 0,0 l/m² 13,1 km/h (3 Bft) NW 311 ° 0 min 0 W/m² 9,8 °C 8,6 °C 20,9 km/h (4 Bft)
16.09.2024 05:03 24,0 °C 12,2 °C 52 % 85 % 1020,2 hPa 0,0 l/m² 8,8 km/h (2 Bft) N-NW 347 ° 0 min 0 W/m² 9,8 °C 10,7 °C 16,1 km/h (3 Bft)
16.09.2024 05:04 24,0 °C 12,2 °C 52 % 84 % 1020,2 hPa 0,0 l/m² 9,9 km/h (2 Bft) NW 310 ° 0 min 0 W/m² 9,6 °C 10,1 °C 17,7 km/h (3 Bft)
16.09.2024 05:06 24,0 °C 12,2 °C 52 % 85 % 1020,3 hPa 0,0 l/m² 8,3 km/h (2 Bft) W-NW 286 ° 0 min 0 W/m² 9,8 °C 11,0 °C 20,9 km/h (4 Bft)
16.09.2024 05:08 24,1 °C 12,2 °C 52 % 85 % 1020,2 hPa 0,0 l/m² 10,1 km/h (2 Bft) NW 313 ° 0 min 0 W/m² 9,8 °C 10,0 °C 22,5 km/h (4 Bft)
16.09.2024 05:10 24,1 °C 12,2 °C 52 % 84 % 1020,3 hPa 0,0 l/m² 9,9 km/h (2 Bft) NW 311 ° 0 min 0 W/m² 9,6 °C 10,1 °C 19,3 km/h (3 Bft)
16.09.2024 05:11 24,1 °C 12,2 °C 52 % 84 % 1020,4 hPa 0,0 l/m² 12,1 km/h (2 Bft) W-NW 297 ° 0 min 0 W/m² 9,6 °C 9,0 °C 16,1 km/h (3 Bft)
16.09.2024 05:12 24,1 °C 12,2 °C 52 % 85 % 1020,3 hPa 0,0 l/m² 11,5 km/h (2 Bft) W-NW 302 ° 0 min 0 W/m² 9,8 °C 9,3 °C 24,1 km/h (4 Bft)
16.09.2024 05:14 24,1 °C 12,2 °C 52 % 85 % 1020,3 hPa 0,0 l/m² 9,0 km/h (2 Bft) W-NW 303 ° 0 min 0 W/m² 9,8 °C 10,6 °C 16,1 km/h (3 Bft)
16.09.2024 05:16 24,1 °C 12,2 °C 53 % 84 % 1020,3 hPa 0,0 l/m² 7,9 km/h (2 Bft) NW 306 ° 0 min 0 W/m² 9,6 °C 11,2 °C 16,1 km/h (3 Bft)
16.09.2024 05:18 24,1 °C 12,2 °C 53 % 85 % 1020,3 hPa 0,0 l/m² 6,1 km/h (2 Bft) W-NW 300 ° 0 min 0 W/m² 9,8 °C 12,2 °C 16,1 km/h (3 Bft)
16.09.2024 05:20 24,1 °C 12,2 °C 52 % 85 % 1020,2 hPa 0,0 l/m² 8,0 km/h (2 Bft) N-NW 337 ° 0 min 0 W/m² 9,8 °C 11,2 °C 14,5 km/h (3 Bft)
16.09.2024 05:21 24,1 °C 12,2 °C 52 % 85 % 1020,0 hPa 0,0 l/m² 7,1 km/h (2 Bft) NW 320 ° 0 min 0 W/m² 9,8 °C 11,7 °C 14,5 km/h (3 Bft)
16.09.2024 05:23 24,2 °C 12,2 °C 52 % 85 % 1020,0 hPa 0,0 l/m² 7,0 km/h (2 Bft) W-NW 290 ° 0 min 0 W/m² 9,8 °C 11,8 °C 16,1 km/h (3 Bft)
16.09.2024 05:25 24,1 °C 12,2 °C 52 % 85 % 1019,9 hPa 0,0 l/m² 6,4 km/h (2 Bft) W-NW 293 ° 0 min 0 W/m² 9,8 °C 12,2 °C 16,1 km/h (3 Bft)
16.09.2024 05:27 24,1 °C 12,2 °C 52 % 85 % 1019,8 hPa 0,0 l/m² 8,4 km/h (2 Bft) W-NW 297 ° 0 min 0 W/m² 9,8 °C 10,9 °C 16,1 km/h (3 Bft)
16.09.2024 05:29 24,1 °C 12,2 °C 52 % 85 % 1019,9 hPa 0,0 l/m² 10,1 km/h (2 Bft) W-NW 296 ° 0 min 0 W/m² 9,8 °C 10,0 °C 19,3 km/h (3 Bft)
16.09.2024 05:30 24,1 °C 12,2 °C 52 % 85 % 1019,9 hPa 0,0 l/m² 5,3 km/h (1 Bft) W-NW 300 ° 0 min 0 W/m² 9,8 °C 12,2 °C 11,3 km/h (2 Bft)
16.09.2024 05:31 24,1 °C 12,2 °C 52 % 85 % 1019,9 hPa 0,0 l/m² 9,1 km/h (2 Bft) W 273 ° 0 min 0 W/m² 9,8 °C 10,5 °C 16,1 km/h (3 Bft)
16.09.2024 05:32 24,1 °C 12,2 °C 52 % 85 % 1019,9 hPa 0,0 l/m² 6,5 km/h (2 Bft) W 279 ° 0 min 0 W/m² 9,8 °C 12,2 °C 11,3 km/h (2 Bft)
16.09.2024 05:34 24,1 °C 12,2 °C 52 % 85 % 1020,0 hPa 0,0 l/m² 6,3 km/h (2 Bft) W-NW 290 ° 0 min 0 W/m² 9,8 °C 12,2 °C 16,1 km/h (3 Bft)
16.09.2024 05:36 24,0 °C 12,2 °C 53 % 85 % 1019,9 hPa 0,0 l/m² 4,1 km/h (1 Bft) W 259 ° 0 min 0 W/m² 9,8 °C 12,2 °C 12,9 km/h (3 Bft)
16.09.2024 05:38 24,0 °C 12,1 °C 53 % 85 % 1019,9 hPa 0,0 l/m² 4,2 km/h (1 Bft) N-NW 336 ° 0 min 0 W/m² 9,7 °C 12,1 °C 11,3 km/h (2 Bft)
16.09.2024 05:40 24,0 °C 12,1 °C 53 % 85 % 1019,8 hPa 0,0 l/m² 6,8 km/h (2 Bft) W-NW 287 ° 0 min 0 W/m² 9,7 °C 11,8 °C 14,5 km/h (3 Bft)
16.09.2024 05:41 23,9 °C 12,1 °C 53 % 85 % 1019,8 hPa 0,0 l/m² 6,5 km/h (2 Bft) N-NW 327 ° 0 min 0 W/m² 9,7 °C 12,1 °C 14,5 km/h (3 Bft)
16.09.2024 05:43 23,9 °C 12,1 °C 53 % 85 % 1019,8 hPa 0,0 l/m² 4,9 km/h (1 Bft) NW 316 ° 0 min 0 W/m² 9,7 °C 12,1 °C 14,5 km/h (3 Bft)
16.09.2024 05:44 23,9 °C 12,1 °C 53 % 85 % 1019,8 hPa 0,0 l/m² 10,6 km/h (2 Bft) W-NW 294 ° 0 min 0 W/m² 9,7 °C 9,6 °C 22,5 km/h (4 Bft)
16.09.2024 05:46 23,9 °C 12,1 °C 53 % 85 % 1019,8 hPa 0,0 l/m² 9,1 km/h (2 Bft) W 267 ° 0 min 0 W/m² 9,7 °C 10,4 °C 16,1 km/h (3 Bft)
16.09.2024 05:48 23,9 °C 12,1 °C 53 % 85 % 1019,8 hPa 0,0 l/m² 5,5 km/h (2 Bft) W-NW 300 ° 0 min 0 W/m² 9,7 °C 12,1 °C 12,9 km/h (3 Bft)
16.09.2024 05:50 23,9 °C 12,2 °C 53 % 85 % 1019,8 hPa 0,0 l/m² 7,5 km/h (2 Bft) W-NW 284 ° 0 min 0 W/m² 9,8 °C 11,5 °C 20,9 km/h (4 Bft)
16.09.2024 05:51 23,9 °C 12,2 °C 53 % 85 % 1019,8 hPa 0,0 l/m² 5,4 km/h (2 Bft) N-NW 334 ° 0 min 0 W/m² 9,8 °C 12,2 °C 12,9 km/h (3 Bft)
16.09.2024 05:52 23,9 °C 12,2 °C 53 % 85 % 1019,8 hPa 0,0 l/m² 5,7 km/h (2 Bft) W-NW 301 ° 0 min 0 W/m² 9,8 °C 12,2 °C 11,3 km/h (2 Bft)
16.09.2024 05:54 23,9 °C 12,2 °C 53 % 85 % 1019,8 hPa 0,0 l/m² 7,9 km/h (2 Bft) W-NW 290 ° 0 min 0 W/m² 9,8 °C 11,2 °C 14,5 km/h (3 Bft)
16.09.2024 05:56 23,9 °C 12,2 °C 53 % 85 % 1019,7 hPa 0,0 l/m² 6,2 km/h (2 Bft) W-NW 297 ° 0 min 0 W/m² 9,8 °C 12,2 °C 17,7 km/h (3 Bft)
16.09.2024 05:58 23,9 °C 12,2 °C 53 % 85 % 1019,7 hPa 0,0 l/m² 6,0 km/h (2 Bft) W 275 ° 0 min 0 W/m² 9,8 °C 12,2 °C 14,5 km/h (3 Bft)
16.09.2024 06:00 23,9 °C 12,2 °C 53 % 85 % 1019,8 hPa 0,0 l/m² 5,5 km/h (2 Bft) W-SW 257 ° 0 min 0 W/m² 9,8 °C 12,2 °C 11,3 km/h (2 Bft)
16.09.2024 06:01 23,9 °C 12,2 °C 53 % 85 % 1019,7 hPa 0,0 l/m² 5,6 km/h (2 Bft) NW 304 ° 0 min 0 W/m² 9,8 °C 12,2 °C 14,5 km/h (3 Bft)
16.09.2024 06:02 23,9 °C 12,2 °C 53 % 85 % 1019,7 hPa 0,0 l/m² 7,3 km/h (2 Bft) W 267 ° 0 min 0 W/m² 9,8 °C 11,6 °C 14,5 km/h (3 Bft)
16.09.2024 06:04 23,9 °C 12,2 °C 53 % 85 % 1019,7 hPa 0,0 l/m² 7,5 km/h (2 Bft) W-NW 292 ° 0 min 0 W/m² 9,8 °C 11,5 °C 16,1 km/h (3 Bft)
16.09.2024 06:06 23,8 °C 12,2 °C 53 % 85 % 1019,7 hPa 0,0 l/m² 7,0 km/h (2 Bft) NW 315 ° 0 min 0 W/m² 9,8 °C 11,8 °C 17,7 km/h (3 Bft)
16.09.2024 06:08 23,8 °C 12,2 °C 53 % 85 % 1019,7 hPa 0,0 l/m² 7,1 km/h (2 Bft) W-NW 298 ° 0 min 0 W/m² 9,8 °C 11,7 °C 14,5 km/h (3 Bft)
16.09.2024 06:10 23,8 °C 12,2 °C 53 % 85 % 1019,7 hPa 0,0 l/m² 8,3 km/h (2 Bft) NW 322 ° 0 min 0 W/m² 9,8 °C 11,0 °C 17,7 km/h (3 Bft)
16.09.2024 06:11 23,8 °C 12,2 °C 53 % 85 % 1019,8 hPa 0,0 l/m² 4,9 km/h (1 Bft) W-NW 295 ° 0 min 0 W/m² 9,8 °C 12,2 °C 12,9 km/h (3 Bft)
16.09.2024 06:12 23,8 °C 12,2 °C 53 % 85 % 1019,8 hPa 0,0 l/m² 2,7 km/h (1 Bft) W-NW 293 ° 0 min 0 W/m² 9,8 °C 12,2 °C 4,8 km/h (1 Bft)
16.09.2024 06:14 23,8 °C 12,2 °C 53 % 85 % 1019,8 hPa 0,0 l/m² 6,5 km/h (2 Bft) NW 312 ° 0 min 0 W/m² 9,8 °C 12,2 °C 16,1 km/h (3 Bft)
16.09.2024 06:16 23,8 °C 12,2 °C 53 % 85 % 1019,8 hPa 0,0 l/m² 5,3 km/h (1 Bft) W-NW 292 ° 0 min 0 W/m² 9,8 °C 12,2 °C 14,5 km/h (3 Bft)
16.09.2024 06:17 23,8 °C 12,2 °C 53 % 85 % 1019,8 hPa 0,0 l/m² 6,1 km/h (2 Bft) W-NW 296 ° 0 min 0 W/m² 9,8 °C 12,2 °C 11,3 km/h (2 Bft)
16.09.2024 06:18 23,8 °C 12,2 °C 53 % 85 % 1019,8 hPa 0,0 l/m² 5,7 km/h (2 Bft) W-NW 302 ° 0 min 0 W/m² 9,8 °C 12,2 °C 11,3 km/h (2 Bft)
16.09.2024 06:20 23,8 °C 12,2 °C 53 % 85 % 1019,9 hPa 0,0 l/m² 8,6 km/h (2 Bft) NW 318 ° 0 min 0 W/m² 9,8 °C 10,8 °C 14,5 km/h (3 Bft)
16.09.2024 06:22 23,8 °C 12,3 °C 53 % 85 % 1019,8 hPa 0,0 l/m² 6,2 km/h (2 Bft) N 355 ° 0 min 0 W/m² 9,9 °C 12,3 °C 14,5 km/h (3 Bft)
16.09.2024 06:23 23,8 °C 12,2 °C 53 % 85 % 1019,8 hPa 0,0 l/m² 8,4 km/h (2 Bft) W 281 ° 0 min 0 W/m² 9,8 °C 10,9 °C 16,1 km/h (3 Bft)
16.09.2024 06:25 23,8 °C 12,2 °C 52 % 85 % 1019,8 hPa 0,0 l/m² 6,6 km/h (2 Bft) N 360 ° 0 min 0 W/m² 9,8 °C 12,1 °C 19,3 km/h (3 Bft)
16.09.2024 06:27 23,9 °C 12,3 °C 52 % 85 % 1019,9 hPa 0,0 l/m² 9,2 km/h (2 Bft) W-NW 298 ° 0 min 0 W/m² 9,9 °C 10,6 °C 16,1 km/h (3 Bft)
16.09.2024 06:29 23,9 °C 12,3 °C 52 % 85 % 1019,9 hPa 0,0 l/m² 11,7 km/h (2 Bft) NW 315 ° 0 min 0 W/m² 9,9 °C 9,3 °C 25,7 km/h (4 Bft)
16.09.2024 06:31 23,8 °C 12,3 °C 52 % 85 % 1020,0 hPa 0,0 l/m² 10,1 km/h (2 Bft) W 281 ° 0 min 0 W/m² 9,9 °C 10,1 °C 17,7 km/h (3 Bft)
16.09.2024 06:32 23,9 °C 12,3 °C 52 % 84 % 1020,0 hPa 0,0 l/m² 9,7 km/h (2 Bft) NW 315 ° 0 min 0 W/m² 9,7 °C 10,3 °C 19,3 km/h (3 Bft)
16.09.2024 06:33 23,8 °C 12,3 °C 52 % 84 % 1020,0 hPa 0,0 l/m² 4,3 km/h (1 Bft) W-NW 288 ° 0 min 0 W/m² 9,7 °C 12,3 °C 11,3 km/h (2 Bft)
16.09.2024 06:35 23,8 °C 12,3 °C 51 % 84 % 1020,0 hPa 0,0 l/m² 5,4 km/h (2 Bft) NW 305 ° 0 min 0 W/m² 9,7 °C 12,3 °C 12,9 km/h (3 Bft)
16.09.2024 06:37 23,8 °C 12,3 °C 51 % 84 % 1020,0 hPa 0,0 l/m² 9,5 km/h (2 Bft) W-NW 284 ° 0 min 0 W/m² 9,7 °C 10,4 °C 17,7 km/h (3 Bft)
16.09.2024 06:39 23,8 °C 12,3 °C 51 % 84 % 1020,0 hPa 0,0 l/m² 7,7 km/h (2 Bft) W-NW 300 ° 0 min 0 W/m² 9,7 °C 11,5 °C 24,1 km/h (4 Bft)
16.09.2024 06:41 23,8 °C 12,3 °C 52 % 84 % 1020,0 hPa 0,0 l/m² 8,7 km/h (2 Bft) NW 315 ° 0 min 0 W/m² 9,7 °C 10,8 °C 19,3 km/h (3 Bft)
16.09.2024 06:42 23,8 °C 12,3 °C 52 % 84 % 1020,1 hPa 0,0 l/m² 7,6 km/h (2 Bft) W 280 ° 0 min 0 W/m² 9,7 °C 11,5 °C 12,9 km/h (3 Bft)
16.09.2024 06:43 23,8 °C 12,3 °C 52 % 84 % 1020,0 hPa 0,0 l/m² 7,4 km/h (2 Bft) W 267 ° 0 min 0 W/m² 9,7 °C 11,6 °C 16,1 km/h (3 Bft)
16.09.2024 06:45 23,8 °C 12,3 °C 52 % 84 % 1020,0 hPa 0,0 l/m² 8,9 km/h (2 Bft) NW 323 ° 0 min 0 W/m² 9,7 °C 10,7 °C 17,7 km/h (3 Bft)
16.09.2024 06:48 23,8 °C 12,3 °C 51 % 84 % 1019,9 hPa 0,0 l/m² 11,0 km/h (2 Bft) W-NW 298 ° 0 min 0 W/m² 9,7 °C 9,6 °C 19,3 km/h (3 Bft)
16.09.2024 06:50 23,8 °C 12,3 °C 51 % 84 % 1019,9 hPa 0,0 l/m² 7,5 km/h (2 Bft) W 281 ° 0 min 0 W/m² 9,7 °C 11,6 °C 16,1 km/h (3 Bft)
16.09.2024 06:51 23,8 °C 12,3 °C 51 % 84 % 1019,8 hPa 0,0 l/m² 8,0 km/h (2 Bft) NW 306 ° 0 min 0 W/m² 9,7 °C 11,3 °C 17,7 km/h (3 Bft)
16.09.2024 06:52 23,8 °C 12,3 °C 51 % 84 % 1019,8 hPa 0,0 l/m² 4,0 km/h (1 Bft) NW 319 ° 0 min 0 W/m² 9,7 °C 12,3 °C 9,7 km/h (2 Bft)
16.09.2024 06:55 23,8 °C 12,3 °C 51 % 84 % 1019,8 hPa 0,0 l/m² 8,8 km/h (2 Bft) NW 306 ° 0 min 0 W/m² 9,7 °C 10,8 °C 22,5 km/h (4 Bft)
16.09.2024 06:57 23,8 °C 12,3 °C 51 % 84 % 1019,9 hPa 0,0 l/m² 7,7 km/h (2 Bft) W-NW 286 ° 0 min 0 W/m² 9,7 °C 11,5 °C 14,5 km/h (3 Bft)
16.09.2024 06:59 23,8 °C 12,3 °C 51 % 84 % 1019,9 hPa 0,0 l/m² 7,6 km/h (2 Bft) NW 313 ° 0 min 0 W/m² 9,7 °C 11,5 °C 16,1 km/h (3 Bft)
16.09.2024 07:00 23,8 °C 12,3 °C 51 % 84 % 1019,8 hPa 0,0 l/m² 7,2 km/h (2 Bft) N-NW 335 ° 0 min 0 W/m² 9,7 °C 11,8 °C 12,9 km/h (3 Bft)
16.09.2024 07:01 23,8 °C 12,3 °C 50 % 84 % 1019,8 hPa 0,0 l/m² 11,1 km/h (2 Bft) NW 323 ° 0 min 0 W/m² 9,7 °C 9,6 °C 17,7 km/h (3 Bft)
16.09.2024 07:02 23,8 °C 12,3 °C 50 % 84 % 1019,8 hPa 0,0 l/m² 9,7 km/h (2 Bft) W-NW 302 ° 0 min 0 W/m² 9,7 °C 10,3 °C 17,7 km/h (3 Bft)
16.09.2024 07:05 23,8 °C 12,3 °C 50 % 84 % 1019,8 hPa 0,0 l/m² 10,5 km/h (2 Bft) W-NW 300 ° 0 min 0 W/m² 9,7 °C 9,9 °C 20,9 km/h (4 Bft)
16.09.2024 07:07 23,8 °C 12,3 °C 51 % 85 % 1019,8 hPa 0,0 l/m² 6,7 km/h (2 Bft) W-NW 301 ° 0 min 0 W/m² 9,9 °C 12,1 °C 14,5 km/h (3 Bft)
16.09.2024 07:09 23,8 °C 12,3 °C 51 % 85 % 1019,8 hPa 0,0 l/m² 8,4 km/h (2 Bft) N-NW 342 ° 0 min 0 W/m² 9,9 °C 11,0 °C 24,1 km/h (4 Bft)
16.09.2024 07:10 23,8 °C 12,3 °C 51 % 85 % 1019,8 hPa 0,0 l/m² 7,7 km/h (2 Bft) W-NW 282 ° 0 min 0 W/m² 9,9 °C 11,5 °C 16,1 km/h (3 Bft)
16.09.2024 07:11 23,8 °C 12,3 °C 51 % 85 % 1019,7 hPa 0,0 l/m² 5,8 km/h (2 Bft) NW 309 ° 0 min 0 W/m² 9,9 °C 12,3 °C 14,5 km/h (3 Bft)
16.09.2024 07:12 23,8 °C 12,3 °C 51 % 85 % 1019,7 hPa 0,0 l/m² 7,7 km/h (2 Bft) NW 317 ° 0 min 0 W/m² 9,9 °C 11,5 °C 19,3 km/h (3 Bft)
16.09.2024 07:14 23,8 °C 12,3 °C 51 % 85 % 1019,7 hPa 0,0 l/m² 7,0 km/h (2 Bft) W-NW 288 ° 0 min 0 W/m² 9,9 °C 11,9 °C 24,1 km/h (4 Bft)
16.09.2024 07:15 23,8 °C 12,3 °C 51 % 85 % 1019,8 hPa 0,0 l/m² 4,2 km/h (1 Bft) W-NW 300 ° 0 min 0 W/m² 9,9 °C 12,3 °C 9,7 km/h (2 Bft)
16.09.2024 07:17 23,8 °C 12,3 °C 51 % 85 % 1019,7 hPa 0,0 l/m² 10,0 km/h (2 Bft) NW 306 ° 0 min 0 W/m² 9,9 °C 10,1 °C 17,7 km/h (3 Bft)
16.09.2024 07:19 23,8 °C 12,3 °C 51 % 85 % 1019,7 hPa 0,0 l/m² 10,3 km/h (2 Bft) W 276 ° 0 min 0 W/m² 9,9 °C 10,0 °C 22,5 km/h (4 Bft)
16.09.2024 07:20 23,8 °C 12,3 °C 51 % 85 % 1019,8 hPa 0,0 l/m² 8,8 km/h (2 Bft) N-NW 334 ° 0 min 0 W/m² 9,9 °C 10,8 °C 16,1 km/h (3 Bft)
16.09.2024 07:21 23,8 °C 12,3 °C 51 % 85 % 1019,8 hPa 0,0 l/m² 8,0 km/h (2 Bft) W-NW 287 ° 0 min 0 W/m² 9,9 °C 11,3 °C 12,9 km/h (3 Bft)
16.09.2024 07:22 23,8 °C 12,3 °C 51 % 85 % 1019,8 hPa 0,0 l/m² 8,4 km/h (2 Bft) N-NW 344 ° 0 min 0 W/m² 9,9 °C 11,0 °C 16,1 km/h (3 Bft)
16.09.2024 07:25 23,8 °C 12,3 °C 51 % 85 % 1019,8 hPa 0,0 l/m² 11,8 km/h (2 Bft) W-NW 293 ° 0 min 5 W/m² 9,9 °C 9,3 °C 22,5 km/h (4 Bft)
16.09.2024 07:27 23,8 °C 12,3 °C 51 % 85 % 1019,8 hPa 0,0 l/m² 9,7 km/h (2 Bft) N-NW 340 ° 0 min 7 W/m² 9,9 °C 10,3 °C 16,1 km/h (3 Bft)
16.09.2024 07:29 23,8 °C 12,3 °C 51 % 85 % 1019,8 hPa 0,0 l/m² 10,6 km/h (2 Bft) W 264 ° 0 min 7 W/m² 9,9 °C 9,8 °C 27,4 km/h (5 Bft)
16.09.2024 07:30 23,8 °C 12,3 °C 51 % 85 % 1019,8 hPa 0,0 l/m² 10,1 km/h (2 Bft) NW 323 ° 0 min 7 W/m² 9,9 °C 10,1 °C 17,7 km/h (3 Bft)
16.09.2024 07:31 23,8 °C 12,4 °C 51 % 85 % 1019,8 hPa 0,0 l/m² 10,7 km/h (2 Bft) NW 312 ° 0 min 7 W/m² 9,9 °C 9,9 °C 16,1 km/h (3 Bft)
16.09.2024 07:32 23,8 °C 12,4 °C 51 % 85 % 1019,8 hPa 0,0 l/m² 10,0 km/h (2 Bft) W-NW 301 ° 0 min 7 W/m² 9,9 °C 10,2 °C 16,1 km/h (3 Bft)
16.09.2024 07:34 23,8 °C 12,3 °C 51 % 85 % 1019,9 hPa 0,0 l/m² 14,1 km/h (3 Bft) W-NW 299 ° 0 min 7 W/m² 9,9 °C 8,3 °C 22,5 km/h (4 Bft)
16.09.2024 07:36 23,8 °C 12,4 °C 51 % 85 % 1019,9 hPa 0,0 l/m² 11,3 km/h (2 Bft) NW 310 ° 0 min 7 W/m² 9,9 °C 9,6 °C 20,9 km/h (4 Bft)
16.09.2024 07:38 23,8 °C 12,4 °C 51 % 85 % 1019,9 hPa 0,0 l/m² 9,5 km/h (2 Bft) W-NW 286 ° 0 min 7 W/m² 9,9 °C 10,5 °C 22,5 km/h (4 Bft)
16.09.2024 07:40 23,8 °C 12,4 °C 51 % 84 % 1019,9 hPa 0,0 l/m² 12,2 km/h (2 Bft) W-NW 294 ° 0 min 7 W/m² 9,8 °C 9,2 °C 20,9 km/h (4 Bft)
16.09.2024 07:41 23,8 °C 12,4 °C 51 % 85 % 1019,9 hPa 0,0 l/m² 13,4 km/h (3 Bft) W-NW 294 ° 0 min 9 W/m² 9,9 °C 8,7 °C 17,7 km/h (3 Bft)
16.09.2024 07:42 23,8 °C 12,4 °C 51 % 84 % 1019,9 hPa 0,0 l/m² 13,0 km/h (3 Bft) N-NW 333 ° 0 min 9 W/m² 9,8 °C 8,8 °C 19,3 km/h (3 Bft)
16.09.2024 07:43 23,8 °C 12,4 °C 51 % 84 % 1019,9 hPa 0,0 l/m² 12,3 km/h (2 Bft) NW 309 ° 0 min 9 W/m² 9,8 °C 9,1 °C 20,9 km/h (4 Bft)
16.09.2024 07:45 23,8 °C 12,4 °C 51 % 84 % 1019,9 hPa 0,0 l/m² 13,5 km/h (3 Bft) W-NW 289 ° 0 min 9 W/m² 9,8 °C 8,6 °C 22,5 km/h (4 Bft)
16.09.2024 07:47 23,7 °C 12,4 °C 51 % 84 % 1019,8 hPa 0,0 l/m² 15,7 km/h (3 Bft) N 355 ° 0 min 9 W/m² 9,8 °C 7,8 °C 22,5 km/h (4 Bft)
16.09.2024 07:49 23,7 °C 12,4 °C 51 % 84 % 1019,8 hPa 0,0 l/m² 13,1 km/h (3 Bft) NW 306 ° 0 min 11 W/m² 9,8 °C 8,8 °C 25,7 km/h (4 Bft)
16.09.2024 07:50 23,8 °C 12,4 °C 51 % 84 % 1019,8 hPa 0,0 l/m² 13,1 km/h (3 Bft) W-NW 302 ° 0 min 9 W/m² 9,8 °C 8,8 °C 22,5 km/h (4 Bft)
16.09.2024 07:51 23,8 °C 12,4 °C 51 % 84 % 1019,8 hPa 0,0 l/m² 16,0 km/h (3 Bft) W-NW 299 ° 0 min 9 W/m² 9,8 °C 7,7 °C 22,5 km/h (4 Bft)
16.09.2024 07:52 23,7 °C 12,4 °C 51 % 84 % 1019,9 hPa 0,0 l/m² 16,8 km/h (3 Bft) W-NW 296 ° 0 min 9 W/m² 9,8 °C 7,4 °C 24,1 km/h (4 Bft)
16.09.2024 07:54 23,7 °C 12,4 °C 51 % 84 % 1019,8 hPa 0,0 l/m² 13,2 km/h (3 Bft) NW 309 ° 0 min 9 W/m² 9,8 °C 8,8 °C 19,3 km/h (3 Bft)
16.09.2024 07:56 23,7 °C 12,4 °C 51 % 84 % 1019,8 hPa 0,0 l/m² 13,8 km/h (3 Bft) W-NW 298 ° 0 min 11 W/m² 9,8 °C 8,5 °C 24,1 km/h (4 Bft)
16.09.2024 07:58 23,7 °C 12,4 °C 51 % 84 % 1019,8 hPa 0,0 l/m² 14,6 km/h (3 Bft) NW 321 ° 0 min 12 W/m² 9,8 °C 8,2 °C 24,1 km/h (4 Bft)
16.09.2024 08:00 23,8 °C 12,4 °C 51 % 84 % 1019,9 hPa 0,0 l/m² 13,4 km/h (3 Bft) NW 323 ° 0 min 12 W/m² 9,8 °C 8,7 °C 19,3 km/h (3 Bft)
16.09.2024 08:01 23,8 °C 12,4 °C 51 % 84 % 1019,8 hPa 0,0 l/m² 11,6 km/h (2 Bft) NW 322 ° 0 min 14 W/m² 9,8 °C 9,5 °C 19,3 km/h (3 Bft)
16.09.2024 08:02 23,8 °C 12,4 °C 51 % 84 % 1019,8 hPa 0,0 l/m² 11,6 km/h (2 Bft) NW 306 ° 0 min 14 W/m² 9,8 °C 9,5 °C 19,3 km/h (3 Bft)
16.09.2024 08:03 23,7 °C 12,4 °C 51 % 84 % 1019,9 hPa 0,0 l/m² 11,4 km/h (2 Bft) N-NW 331 ° 0 min 14 W/m² 9,8 °C 9,6 °C 22,5 km/h (4 Bft)
16.09.2024 08:05 23,8 °C 12,4 °C 51 % 84 % 1019,9 hPa 0,0 l/m² 13,7 km/h (3 Bft) NW 306 ° 0 min 16 W/m² 9,8 °C 8,6 °C 24,1 km/h (4 Bft)
16.09.2024 08:06 23,7 °C 12,4 °C 51 % 84 % 1019,8 hPa 0,0 l/m² 7,5 km/h (2 Bft) NW 315 ° 0 min 16 W/m² 9,8 °C 11,7 °C 16,1 km/h (3 Bft)
16.09.2024 08:07 23,7 °C 12,4 °C 51 % 84 % 1019,9 hPa 0,0 l/m² 10,7 km/h (2 Bft) N-NW 329 ° 0 min 16 W/m² 9,8 °C 9,9 °C 20,9 km/h (4 Bft)
16.09.2024 08:08 23,7 °C 12,4 °C 51 % 84 % 1019,9 hPa 0,0 l/m² 11,9 km/h (2 Bft) W-NW 298 ° 0 min 16 W/m² 9,8 °C 9,3 °C 19,3 km/h (3 Bft)
16.09.2024 08:10 23,8 °C 12,4 °C 51 % 84 % 1019,9 hPa 0,0 l/m² 8,8 km/h (2 Bft) W-NW 288 ° 0 min 16 W/m² 9,8 °C 10,9 °C 17,7 km/h (3 Bft)
16.09.2024 08:11 23,7 °C 12,5 °C 51 % 84 % 1019,9 hPa 0,0 l/m² 6,6 km/h (2 Bft) W-NW 288 ° 0 min 16 W/m² 9,9 °C 12,4 °C 12,9 km/h (3 Bft)
16.09.2024 08:13 23,7 °C 12,4 °C 51 % 84 % 1019,9 hPa 0,0 l/m² 11,4 km/h (2 Bft) W 273 ° 0 min 16 W/m² 9,8 °C 9,6 °C 19,3 km/h (3 Bft)
16.09.2024 08:15 23,7 °C 12,5 °C 51 % 84 % 1019,8 hPa 0,0 l/m² 11,5 km/h (2 Bft) N-NW 339 ° 0 min 19 W/m² 9,9 °C 9,6 °C 20,9 km/h (4 Bft)
16.09.2024 08:17 23,7 °C 12,5 °C 51 % 84 % 1019,8 hPa 0,0 l/m² 11,1 km/h (2 Bft) W 271 ° 0 min 21 W/m² 9,9 °C 9,8 °C 22,5 km/h (4 Bft)
16.09.2024 08:19 23,7 °C 12,6 °C 51 % 84 % 1019,8 hPa 0,0 l/m² 8,5 km/h (2 Bft) W-NW 297 ° 0 min 25 W/m² 10,0 °C 11,3 °C 22,5 km/h (4 Bft)
16.09.2024 08:20 23,7 °C 12,6 °C 51 % 84 % 1019,8 hPa 0,0 l/m² 14,4 km/h (3 Bft) NW 306 ° 0 min 25 W/m² 10,0 °C 8,5 °C 20,9 km/h (4 Bft)
16.09.2024 08:21 23,7 °C 12,6 °C 51 % 84 % 1019,8 hPa 0,0 l/m² 11,4 km/h (2 Bft) N-NW 338 ° 0 min 26 W/m² 10,0 °C 9,8 °C 19,3 km/h (3 Bft)
16.09.2024 08:22 23,7 °C 12,6 °C 51 % 84 % 1019,8 hPa 0,0 l/m² 13,9 km/h (3 Bft) N-NW 329 ° 0 min 26 W/m² 10,0 °C 8,7 °C 19,3 km/h (3 Bft)
16.09.2024 08:24 23,7 °C 12,6 °C 51 % 84 % 1019,8 hPa 0,0 l/m² 9,1 km/h (2 Bft) NW 311 ° 0 min 26 W/m² 10,0 °C 10,9 °C 16,1 km/h (3 Bft)
16.09.2024 08:26 23,7 °C 12,7 °C 51 % 84 % 1019,8 hPa 0,0 l/m² 11,9 km/h (2 Bft) NW 311 ° 0 min 26 W/m² 10,1 °C 9,7 °C 20,9 km/h (4 Bft)
16.09.2024 08:28 23,7 °C 12,7 °C 51 % 84 % 1019,8 hPa 0,0 l/m² 7,0 km/h (2 Bft) W 281 ° 0 min 26 W/m² 10,1 °C 12,3 °C 16,1 km/h (3 Bft)
16.09.2024 08:30 23,7 °C 12,7 °C 51 % 83 % 1019,8 hPa 0,0 l/m² 12,3 km/h (2 Bft) W-NW 292 ° 0 min 28 W/m² 9,9 °C 9,5 °C 22,5 km/h (4 Bft)
16.09.2024 08:31 23,7 °C 12,7 °C 51 % 83 % 1019,8 hPa 0,0 l/m² 8,9 km/h (2 Bft) W 259 ° 0 min 30 W/m² 9,9 °C 11,2 °C 16,1 km/h (3 Bft)
16.09.2024 08:32 23,7 °C 12,7 °C 51 % 83 % 1019,9 hPa 0,0 l/m² 8,0 km/h (2 Bft) W-NW 296 ° 0 min 28 W/m² 9,9 °C 11,7 °C 17,7 km/h (3 Bft)
16.09.2024 08:33 23,7 °C 12,7 °C 51 % 83 % 1019,9 hPa 0,0 l/m² 10,2 km/h (2 Bft) W-NW 298 ° 0 min 28 W/m² 9,9 °C 10,5 °C 17,7 km/h (3 Bft)
16.09.2024 08:35 23,7 °C 12,7 °C 51 % 83 % 1019,9 hPa 0,0 l/m² 12,9 km/h (3 Bft) NW 319 ° 0 min 28 W/m² 9,9 °C 9,2 °C 20,9 km/h (4 Bft)
16.09.2024 08:37 23,7 °C 12,8 °C 51 % 83 % 1019,8 hPa 0,0 l/m² 11,3 km/h (2 Bft) NW 325 ° 0 min 30 W/m² 10,0 °C 10,1 °C 20,9 km/h (4 Bft)
16.09.2024 08:39 23,7 °C 12,8 °C 51 % 83 % 1019,8 hPa 0,0 l/m² 10,5 km/h (2 Bft) W 263 ° 0 min 33 W/m² 10,0 °C 10,4 °C 17,7 km/h (3 Bft)
16.09.2024 08:40 23,7 °C 12,8 °C 51 % 83 % 1019,7 hPa 0,0 l/m² 5,4 km/h (2 Bft) W 262 ° 0 min 35 W/m² 10,0 °C 12,8 °C 11,3 km/h (2 Bft)
16.09.2024 08:41 23,7 °C 12,8 °C 51 % 83 % 1019,7 hPa 0,0 l/m² 9,0 km/h (2 Bft) W 279 ° 0 min 35 W/m² 10,0 °C 11,2 °C 20,9 km/h (4 Bft)
16.09.2024 08:42 23,7 °C 12,8 °C 51 % 83 % 1019,8 hPa 0,0 l/m² 11,2 km/h (2 Bft) N-NW 329 ° 0 min 37 W/m² 10,0 °C 10,1 °C 17,7 km/h (3 Bft)
16.09.2024 08:44 23,7 °C 12,8 °C 51 % 83 % 1019,8 hPa 0,0 l/m² 10,8 km/h (2 Bft) W 271 ° 0 min 40 W/m² 10,0 °C 10,3 °C 17,7 km/h (3 Bft)
16.09.2024 08:46 23,7 °C 12,9 °C 51 % 83 % 1019,7 hPa 0,0 l/m² 9,3 km/h (2 Bft) NW 307 ° 0 min 42 W/m² 10,1 °C 11,2 °C 16,1 km/h (3 Bft)
16.09.2024 08:48 23,7 °C 12,9 °C 51 % 82 % 1019,8 hPa 0,0 l/m² 11,3 km/h (2 Bft) NW 319 ° 0 min 42 W/m² 9,9 °C 10,2 °C 22,5 km/h (4 Bft)
16.09.2024 08:50 23,7 °C 12,9 °C 51 % 82 % 1019,7 hPa 0,0 l/m² 9,9 km/h (2 Bft) W-NW 290 ° 0 min 44 W/m² 9,9 °C 10,8 °C 20,9 km/h (4 Bft)
16.09.2024 08:51 23,7 °C 12,9 °C 51 % 82 % 1019,7 hPa 0,0 l/m² 12,4 km/h (2 Bft) NW 320 ° 0 min 46 W/m² 9,9 °C 9,7 °C 19,3 km/h (3 Bft)
16.09.2024 08:52 23,7 °C 13,0 °C 51 % 82 % 1019,8 hPa 0,0 l/m² 9,0 km/h (2 Bft) N-NW 329 ° 0 min 46 W/m² 10,0 °C 11,4 °C 16,1 km/h (3 Bft)
16.09.2024 08:53 23,7 °C 13,0 °C 51 % 82 % 1019,8 hPa 0,0 l/m² 8,0 km/h (2 Bft) N-NW 332 ° 0 min 46 W/m² 10,0 °C 12,0 °C 19,3 km/h (3 Bft)
16.09.2024 08:55 23,7 °C 13,1 °C 51 % 82 % 1019,7 hPa 0,0 l/m² 9,0 km/h (2 Bft) NW 313 ° 0 min 46 W/m² 10,1 °C 11,5 °C 19,3 km/h (3 Bft)
16.09.2024 08:57 23,7 °C 13,1 °C 51 % 82 % 1019,8 hPa 0,0 l/m² 10,1 km/h (2 Bft) NW 311 ° 0 min 46 W/m² 10,1 °C 11,0 °C 20,9 km/h (4 Bft)
16.09.2024 08:59 23,7 °C 13,1 °C 51 % 82 % 1019,8 hPa 0,0 l/m² 9,6 km/h (2 Bft) NW 320 ° 0 min 47 W/m² 10,1 °C 11,2 °C 19,3 km/h (3 Bft)
16.09.2024 09:00 23,7 °C 13,1 °C 51 % 82 % 1019,8 hPa 0,0 l/m² 8,6 km/h (2 Bft) W-NW 289 ° 1 min 53 W/m² 10,1 °C 11,8 °C 19,3 km/h (3 Bft)
16.09.2024 09:01 23,7 °C 13,1 °C 51 % 82 % 1019,9 hPa 0,0 l/m² 7,2 km/h (2 Bft) N-NW 345 ° 1 min 54 W/m² 10,1 °C 12,6 °C 16,1 km/h (3 Bft)
16.09.2024 09:02 23,7 °C 13,1 °C 51 % 82 % 1019,9 hPa 0,0 l/m² 8,4 km/h (2 Bft) NW 309 ° 1 min 56 W/m² 10,1 °C 11,9 °C 14,5 km/h (3 Bft)
16.09.2024 09:03 23,7 °C 13,1 °C 51 % 82 % 1019,9 hPa 0,0 l/m² 10,0 km/h (2 Bft) N-NW 338 ° 1 min 58 W/m² 10,1 °C 11,0 °C 16,1 km/h (3 Bft)
16.09.2024 09:05 23,7 °C 13,2 °C 51 % 82 % 1019,9 hPa 0,0 l/m² 7,6 km/h (2 Bft) W-NW 287 ° 2 min 62 W/m² 10,2 °C 12,5 °C 14,5 km/h (3 Bft)
16.09.2024 09:07 23,7 °C 13,2 °C 51 % 82 % 1019,8 hPa 0,0 l/m² 6,2 km/h (2 Bft) W-NW 290 ° 2 min 69 W/m² 10,2 °C 13,2 °C 19,3 km/h (3 Bft)
16.09.2024 09:09 23,7 °C 13,2 °C 51 % 82 % 1019,9 hPa 0,0 l/m² 9,2 km/h (2 Bft) W-NW 302 ° 2 min 67 W/m² 10,2 °C 11,5 °C 16,1 km/h (3 Bft)
16.09.2024 09:10 23,7 °C 13,2 °C 51 % 82 % 1019,9 hPa 0,0 l/m² 7,1 km/h (2 Bft) W-NW 292 ° 1 min 63 W/m² 10,2 °C 12,8 °C 14,5 km/h (3 Bft)
16.09.2024 09:11 23,7 °C 13,3 °C 51 % 82 % 1019,9 hPa 0,0 l/m² 9,0 km/h (2 Bft) W-NW 285 ° 1 min 62 W/m² 10,3 °C 11,8 °C 16,1 km/h (3 Bft)
16.09.2024 09:12 23,7 °C 13,3 °C 51 % 81 % 1019,9 hPa 0,0 l/m² 11,9 km/h (2 Bft) NW 312 ° 1 min 62 W/m² 10,1 °C 10,4 °C 19,3 km/h (3 Bft)
16.09.2024 09:14 23,7 °C 13,3 °C 51 % 81 % 1019,9 hPa 0,0 l/m² 9,9 km/h (2 Bft) NW 323 ° 2 min 62 W/m² 10,1 °C 11,3 °C 16,1 km/h (3 Bft)
16.09.2024 09:16 23,7 °C 13,3 °C 51 % 81 % 1020,0 hPa 0,0 l/m² 9,3 km/h (2 Bft) W-NW 296 ° 2 min 62 W/m² 10,1 °C 11,6 °C 19,3 km/h (3 Bft)
16.09.2024 09:18 23,7 °C 13,3 °C 51 % 81 % 1019,9 hPa 0,0 l/m² 14,2 km/h (3 Bft) NW 306 ° 2 min 58 W/m² 10,1 °C 9,4 °C 24,1 km/h (4 Bft)
16.09.2024 09:20 23,7 °C 13,4 °C 51 % 81 % 1019,9 hPa 0,0 l/m² 11,4 km/h (2 Bft) N 5 ° 2 min 62 W/m² 10,2 °C 10,7 °C 19,3 km/h (3 Bft)
16.09.2024 09:21 23,7 °C 13,4 °C 51 % 81 % 1020,0 hPa 0,0 l/m² 10,9 km/h (2 Bft) NW 316 ° 1 min 62 W/m² 10,2 °C 10,9 °C 17,7 km/h (3 Bft)
16.09.2024 09:22 23,7 °C 13,4 °C 51 % 81 % 1020,0 hPa 0,0 l/m² 6,7 km/h (2 Bft) N-NW 337 ° 1 min 60 W/m² 10,2 °C 13,2 °C 12,9 km/h (3 Bft)
16.09.2024 09:23 23,7 °C 13,4 °C 51 % 81 % 1019,9 hPa 0,0 l/m² 11,8 km/h (2 Bft) NW 310 ° 1 min 60 W/m² 10,2 °C 10,5 °C 19,3 km/h (3 Bft)
16.09.2024 09:25 23,7 °C 13,4 °C 51 % 81 % 1020,0 hPa 0,0 l/m² 10,9 km/h (2 Bft) N 360 ° 2 min 54 W/m² 10,2 °C 10,9 °C 16,1 km/h (3 Bft)
16.09.2024 09:27 23,7 °C 13,4 °C 51 % 81 % 1020,0 hPa 0,0 l/m² 9,3 km/h (2 Bft) W 272 ° 0 min 51 W/m² 10,2 °C 11,7 °C 16,1 km/h (3 Bft)
16.09.2024 09:29 23,7 °C 13,4 °C 51 % 81 % 1019,9 hPa 0,0 l/m² 9,0 km/h (2 Bft) N-NW 328 ° 2 min 54 W/m² 10,2 °C 11,9 °C 17,7 km/h (3 Bft)
16.09.2024 09:31 23,7 °C 13,4 °C 51 % 81 % 1019,9 hPa 0,0 l/m² 10,2 km/h (2 Bft) N-NW 331 ° 2 min 74 W/m² 10,2 °C 11,3 °C 17,7 km/h (3 Bft)
16.09.2024 09:32 23,7 °C 13,4 °C 52 % 81 % 1019,9 hPa 0,0 l/m² 14,4 km/h (3 Bft) NW 304 ° 1 min 81 W/m² 10,2 °C 9,5 °C 22,5 km/h (4 Bft)
16.09.2024 09:33 23,7 °C 13,5 °C 52 % 81 % 1019,9 hPa 0,0 l/m² 9,3 km/h (2 Bft) N-NW 342 ° 1 min 84 W/m² 10,3 °C 11,8 °C 14,5 km/h (3 Bft)
16.09.2024 09:34 23,7 °C 13,5 °C 51 % 81 % 1019,9 hPa 0,0 l/m² 8,4 km/h (2 Bft) W-NW 301 ° 1 min 84 W/m² 10,3 °C 12,3 °C 14,5 km/h (3 Bft)
16.09.2024 09:36 23,7 °C 13,5 °C 51 % 81 % 1020,0 hPa 0,0 l/m² 11,8 km/h (2 Bft) NW 304 ° 2 min 76 W/m² 10,3 °C 10,6 °C 20,9 km/h (4 Bft)
16.09.2024 09:38 23,7 °C 13,6 °C 51 % 81 % 1020,1 hPa 0,0 l/m² 10,9 km/h (2 Bft) NW 310 ° 2 min 62 W/m² 10,4 °C 11,1 °C 19,3 km/h (3 Bft)
16.09.2024 09:40 23,7 °C 13,6 °C 51 % 81 % 1020,0 hPa 0,0 l/m² 7,5 km/h (2 Bft) W-NW 297 ° 2 min 53 W/m² 10,4 °C 12,9 °C 19,3 km/h (3 Bft)
16.09.2024 09:41 23,7 °C 13,6 °C 52 % 81 % 1020,1 hPa 0,0 l/m² 8,5 km/h (2 Bft) NW 326 ° 1 min 54 W/m² 10,4 °C 12,4 °C 16,1 km/h (3 Bft)
16.09.2024 09:42 23,7 °C 13,6 °C 52 % 81 % 1020,1 hPa 0,0 l/m² 7,1 km/h (2 Bft) W-NW 296 ° 1 min 58 W/m² 10,4 °C 13,2 °C 17,7 km/h (3 Bft)
16.09.2024 09:43 23,7 °C 13,6 °C 52 % 81 % 1020,1 hPa 0,0 l/m² 9,6 km/h (2 Bft) NW 307 ° 1 min 62 W/m² 10,4 °C 11,8 °C 16,1 km/h (3 Bft)
16.09.2024 09:45 23,7 °C 13,6 °C 52 % 81 % 1020,1 hPa 0,0 l/m² 9,1 km/h (2 Bft) NW 310 ° 2 min 72 W/m² 10,4 °C 12,0 °C 17,7 km/h (3 Bft)
16.09.2024 09:47 23,7 °C 13,6 °C 51 % 81 % 1020,2 hPa 0,0 l/m² 9,0 km/h (2 Bft) NW 317 ° 2 min 90 W/m² 10,4 °C 12,1 °C 17,7 km/h (3 Bft)
16.09.2024 09:48 23,7 °C 13,7 °C 51 % 81 % 1020,2 hPa 0,0 l/m² 10,5 km/h (2 Bft) W 277 ° 1 min 95 W/m² 10,5 °C 11,4 °C 14,5 km/h (3 Bft)
16.09.2024 09:50 23,7 °C 13,7 °C 51 % 81 % 1020,1 hPa 0,0 l/m² 11,2 km/h (2 Bft) W 276 ° 2 min 102 W/m² 10,5 °C 11,1 °C 20,9 km/h (4 Bft)
16.09.2024 09:51 23,7 °C 13,7 °C 51 % 81 % 1020,2 hPa 0,0 l/m² 11,9 km/h (2 Bft) N-NW 329 ° 1 min 107 W/m² 10,5 °C 10,8 °C 20,9 km/h (4 Bft)
16.09.2024 09:52 23,7 °C 13,7 °C 51 % 81 % 1020,2 hPa 0,0 l/m² 12,0 km/h (2 Bft) N-NW 333 ° 1 min 113 W/m² 10,5 °C 10,8 °C 16,1 km/h (3 Bft)
16.09.2024 09:53 23,7 °C 13,7 °C 52 % 81 % 1020,2 hPa 0,0 l/m² 10,9 km/h (2 Bft) W-NW 300 ° 1 min 118 W/m² 10,5 °C 11,3 °C 16,1 km/h (3 Bft)
16.09.2024 09:55 23,7 °C 13,8 °C 51 % 81 % 1020,2 hPa 0,0 l/m² 10,0 km/h (2 Bft) NW 305 ° 2 min 116 W/m² 10,6 °C 11,8 °C 22,5 km/h (4 Bft)
16.09.2024 09:57 23,7 °C 13,8 °C 51 % 81 % 1020,2 hPa 0,0 l/m² 12,1 km/h (2 Bft) NW 321 ° 2 min 95 W/m² 10,6 °C 10,8 °C 20,9 km/h (4 Bft)
16.09.2024 09:59 23,7 °C 13,8 °C 52 % 81 % 1020,2 hPa 0,0 l/m² 9,5 km/h (2 Bft) W 268 ° 2 min 81 W/m² 10,6 °C 12,0 °C 19,3 km/h (3 Bft)
16.09.2024 10:00 23,7 °C 13,8 °C 51 % 81 % 1020,2 hPa 0,0 l/m² 8,6 km/h (2 Bft) W-NW 288 ° 1 min 76 W/m² 10,6 °C 12,5 °C 16,1 km/h (3 Bft)
16.09.2024 10:01 23,7 °C 13,8 °C 51 % 81 % 1020,2 hPa 0,0 l/m² 8,5 km/h (2 Bft) W-SW 258 ° 1 min 74 W/m² 10,6 °C 12,6 °C 12,9 km/h (3 Bft)
16.09.2024 10:02 23,7 °C 13,8 °C 51 % 81 % 1020,1 hPa 0,0 l/m² 11,1 km/h (2 Bft) N-NW 329 ° 1 min 72 W/m² 10,6 °C 11,3 °C 17,7 km/h (3 Bft)
16.09.2024 10:04 23,7 °C 13,8 °C 52 % 82 % 1020,2 hPa 0,0 l/m² 7,8 km/h (2 Bft) NW 315 ° 2 min 72 W/m² 10,8 °C 13,0 °C 16,1 km/h (3 Bft)
16.09.2024 10:06 23,7 °C 13,8 °C 51 % 81 % 1020,2 hPa 0,0 l/m² 11,3 km/h (2 Bft) N 349 ° 2 min 65 W/m² 10,6 °C 11,2 °C 16,1 km/h (3 Bft)
16.09.2024 10:08 23,7 °C 13,7 °C 51 % 82 % 1020,1 hPa 0,0 l/m² 10,9 km/h (2 Bft) NW 318 ° 2 min 63 W/m² 10,7 °C 11,3 °C 19,3 km/h (3 Bft)
16.09.2024 10:10 23,7 °C 13,7 °C 52 % 82 % 1020,2 hPa 0,0 l/m² 10,3 km/h (2 Bft) W-NW 292 ° 2 min 63 W/m² 10,7 °C 11,5 °C 17,7 km/h (3 Bft)
16.09.2024 10:11 23,7 °C 13,7 °C 52 % 82 % 1020,1 hPa 0,0 l/m² 7,3 km/h (2 Bft) NW 311 ° 1 min 60 W/m² 10,7 °C 13,2 °C 16,1 km/h (3 Bft)
16.09.2024 10:12 23,7 °C 13,7 °C 52 % 82 % 1020,1 hPa 0,0 l/m² 6,0 km/h (2 Bft) W-NW 298 ° 1 min 58 W/m² 10,7 °C 13,7 °C 14,5 km/h (3 Bft)
16.09.2024 10:13 23,7 °C 13,7 °C 51 % 82 % 1020,2 hPa 0,0 l/m² 8,7 km/h (2 Bft) W-NW 296 ° 1 min 58 W/m² 10,7 °C 12,3 °C 16,1 km/h (3 Bft)
16.09.2024 10:15 23,7 °C 13,7 °C 52 % 82 % 1020,1 hPa 0,0 l/m² 10,8 km/h (2 Bft) N-NW 335 ° 2 min 58 W/m² 10,7 °C 11,3 °C 16,1 km/h (3 Bft)
16.09.2024 10:17 23,7 °C 13,7 °C 51 % 83 % 1020,1 hPa 0,0 l/m² 8,2 km/h (2 Bft) NW 304 ° 2 min 53 W/m² 10,9 °C 12,6 °C 16,1 km/h (3 Bft)
16.09.2024 10:19 23,7 °C 13,6 °C 51 % 83 % 1020,1 hPa 0,0 l/m² 7,4 km/h (2 Bft) NW 309 ° 0 min 47 W/m² 10,8 °C 13,0 °C 14,5 km/h (3 Bft)
16.09.2024 10:21 23,7 °C 13,6 °C 52 % 83 % 1020,1 hPa 0,0 l/m² 8,6 km/h (2 Bft) NW 324 ° 0 min 47 W/m² 10,8 °C 12,3 °C 19,3 km/h (3 Bft)
16.09.2024 10:22 23,7 °C 13,6 °C 52 % 83 % 1020,2 hPa 0,0 l/m² 10,1 km/h (2 Bft) N-NW 334 ° 0 min 49 W/m² 10,8 °C 11,5 °C 16,1 km/h (3 Bft)
16.09.2024 10:23 23,7 °C 13,6 °C 52 % 83 % 1020,2 hPa 0,0 l/m² 12,1 km/h (2 Bft) N-NW 336 ° 1 min 53 W/m² 10,8 °C 10,6 °C 16,1 km/h (3 Bft)
16.09.2024 10:24 23,6 °C 13,6 °C 52 % 83 % 1020,1 hPa 0,0 l/m² 7,7 km/h (2 Bft) NW 306 ° 1 min 54 W/m² 10,8 °C 12,8 °C 14,5 km/h (3 Bft)
16.09.2024 10:26 23,6 °C 13,6 °C 52 % 83 % 1020,3 hPa 0,0 l/m² 13,1 km/h (3 Bft) W 281 ° 0 min 49 W/m² 10,8 °C 10,2 °C 27,4 km/h (5 Bft)
16.09.2024 10:28 23,7 °C 13,5 °C 52 % 83 % 1020,1 hPa 0,0 l/m² 10,3 km/h (2 Bft) NW 306 ° 0 min 42 W/m² 10,7 °C 11,3 °C 16,1 km/h (3 Bft)
16.09.2024 10:30 23,6 °C 13,4 °C 52 % 83 % 1020,2 hPa 0,0 l/m² 11,3 km/h (2 Bft) W 279 ° 0 min 35 W/m² 10,6 °C 10,7 °C 24,1 km/h (4 Bft)
16.09.2024 10:31 23,7 °C 13,4 °C 52 % 84 % 1020,1 hPa 0,0 l/m² 11,6 km/h (2 Bft) W-NW 292 ° 0 min 35 W/m² 10,8 °C 10,6 °C 19,3 km/h (3 Bft)
16.09.2024 10:32 23,7 °C 13,4 °C 52 % 84 % 1020,1 hPa 0,0 l/m² 9,3 km/h (2 Bft) NW 317 ° 0 min 37 W/m² 10,8 °C 11,7 °C 16,1 km/h (3 Bft)
16.09.2024 10:33 23,6 °C 13,4 °C 52 % 84 % 1020,1 hPa 0,0 l/m² 12,9 km/h (3 Bft) W-NW 299 ° 0 min 39 W/m² 10,8 °C 10,1 °C 19,3 km/h (3 Bft)
16.09.2024 10:35 23,7 °C 13,3 °C 52 % 84 % 1020,0 hPa 0,2 l/m² 10,5 km/h (2 Bft) W-NW 292 ° 0 min 44 W/m² 10,7 °C 11,0 °C 24,1 km/h (4 Bft)
16.09.2024 10:37 23,6 °C 13,2 °C 52 % 85 % 1020,1 hPa 0,0 l/m² 12,1 km/h (2 Bft) NW 304 ° 0 min 49 W/m² 10,7 °C 10,2 °C 22,5 km/h (4 Bft)
16.09.2024 10:39 23,6 °C 13,1 °C 52 % 86 % 1020,2 hPa 0,0 l/m² 8,0 km/h (2 Bft) NW 304 ° 2 min 60 W/m² 10,8 °C 12,1 °C 19,3 km/h (3 Bft)
16.09.2024 10:41 23,6 °C 13,1 °C 52 % 86 % 1020,1 hPa 0,2 l/m² 8,8 km/h (2 Bft) W-NW 287 ° 2 min 69 W/m² 10,8 °C 11,7 °C 17,7 km/h (3 Bft)
16.09.2024 10:42 23,6 °C 13,0 °C 52 % 86 % 1020,0 hPa 0,0 l/m² 6,4 km/h (2 Bft) W-NW 300 ° 1 min 70 W/m² 10,7 °C 13,0 °C 12,9 km/h (3 Bft)
16.09.2024 10:43 23,6 °C 13,0 °C 52 % 87 % 1020,0 hPa 0,0 l/m² 6,2 km/h (2 Bft) W 279 ° 1 min 69 W/m² 10,9 °C 13,0 °C 9,7 km/h (2 Bft)
16.09.2024 10:44 23,6 °C 13,0 °C 52 % 87 % 1020,1 hPa 0,0 l/m² 9,5 km/h (2 Bft) W-SW 257 ° 1 min 67 W/m² 10,9 °C 11,2 °C 19,3 km/h (3 Bft)
16.09.2024 10:46 23,6 °C 12,9 °C 52 % 87 % 1020,1 hPa 0,0 l/m² 10,2 km/h (2 Bft) NW 313 ° 2 min 62 W/m² 10,8 °C 10,7 °C 19,3 km/h (3 Bft)
16.09.2024 10:48 23,6 °C 12,8 °C 52 % 87 % 1020,0 hPa 0,0 l/m² 7,1 km/h (2 Bft) NW 325 ° 2 min 56 W/m² 10,7 °C 12,4 °C 16,1 km/h (3 Bft)
16.09.2024 10:50 23,6 °C 12,8 °C 52 % 88 % 1020,1 hPa 0,0 l/m² 9,3 km/h (2 Bft) W 265 ° 2 min 56 W/m² 10,9 °C 11,1 °C 17,7 km/h (3 Bft)
16.09.2024 10:51 23,6 °C 12,8 °C 52 % 88 % 1020,1 hPa 0,0 l/m² 7,7 km/h (2 Bft) NW 304 ° 1 min 58 W/m² 10,9 °C 12,0 °C 16,1 km/h (3 Bft)
16.09.2024 10:52 23,6 °C 12,8 °C 52 % 88 % 1020,1 hPa 0,0 l/m² 10,2 km/h (2 Bft) N-NW 327 ° 1 min 58 W/m² 10,9 °C 10,6 °C 16,1 km/h (3 Bft)
16.09.2024 10:53 23,6 °C 12,8 °C 52 % 88 % 1020,1 hPa 0,0 l/m² 6,8 km/h (2 Bft) W-NW 296 ° 1 min 60 W/m² 10,9 °C 12,6 °C 16,1 km/h (3 Bft)
16.09.2024 10:55 23,6 °C 12,7 °C 52 % 88 % 1020,2 hPa 0,0 l/m² 7,6 km/h (2 Bft) W-NW 290 ° 2 min 62 W/m² 10,8 °C 11,9 °C 17,7 km/h (3 Bft)
16.09.2024 10:56 23,6 °C 12,7 °C 52 % 88 % 1020,1 hPa 0,0 l/m² 11,7 km/h (2 Bft) W 269 ° 1 min 62 W/m² 10,8 °C 9,8 °C 25,7 km/h (4 Bft)
16.09.2024 10:57 23,6 °C 12,7 °C 52 % 88 % 1020,1 hPa 0,0 l/m² 9,4 km/h (2 Bft) W-NW 300 ° 1 min 58 W/m² 10,8 °C 10,9 °C 24,1 km/h (4 Bft)
16.09.2024 10:59 23,6 °C 12,7 °C 52 % 88 % 1020,3 hPa 0,2 l/m² 14,5 km/h (3 Bft) N-NW 348 ° 2 min 56 W/m² 10,8 °C 8,6 °C 24,1 km/h (4 Bft)
16.09.2024 11:01 23,6 °C 12,7 °C 52 % 89 % 1020,2 hPa 0,0 l/m² 9,9 km/h (2 Bft) W-NW 295 ° 2 min 62 W/m² 10,9 °C 10,6 °C 19,3 km/h (3 Bft)
16.09.2024 11:02 23,6 °C 12,7 °C 52 % 89 % 1020,4 hPa 0,0 l/m² 14,1 km/h (3 Bft) W 277 ° 1 min 63 W/m² 10,9 °C 8,7 °C 20,9 km/h (4 Bft)
16.09.2024 11:03 23,6 °C 12,6 °C 52 % 89 % 1020,4 hPa 0,0 l/m² 8,1 km/h (2 Bft) N-NW 336 ° 1 min 67 W/m² 10,8 °C 11,5 °C 14,5 km/h (3 Bft)
16.09.2024 11:04 23,6 °C 12,6 °C 52 % 89 % 1020,3 hPa 0,0 l/m² 6,0 km/h (2 Bft) W 271 ° 1 min 76 W/m² 10,8 °C 12,6 °C 12,9 km/h (3 Bft)
16.09.2024 11:06 23,6 °C 12,6 °C 52 % 89 % 1020,3 hPa 0,2 l/m² 13,8 km/h (3 Bft) NW 322 ° 2 min 86 W/m² 10,8 °C 8,7 °C 24,1 km/h (4 Bft)
16.09.2024 11:08 23,6 °C 12,6 °C 52 % 89 % 1020,2 hPa 0,0 l/m² 7,8 km/h (2 Bft) NW 315 ° 2 min 93 W/m² 10,8 °C 11,7 °C 22,5 km/h (4 Bft)
16.09.2024 11:10 23,6 °C 12,6 °C 52 % 89 % 1020,1 hPa 0,0 l/m² 9,3 km/h (2 Bft) NW 309 ° 2 min 81 W/m² 10,8 °C 10,8 °C 20,9 km/h (4 Bft)
16.09.2024 11:11 23,6 °C 12,6 °C 52 % 89 % 1020,2 hPa 0,0 l/m² 6,7 km/h (2 Bft) NW 315 ° 1 min 76 W/m² 10,8 °C 12,4 °C 14,5 km/h (3 Bft)
16.09.2024 11:12 23,6 °C 12,6 °C 52 % 89 % 1020,2 hPa 0,0 l/m² 13,4 km/h (3 Bft) NW 310 ° 1 min 70 W/m² 10,8 °C 8,9 °C 22,5 km/h (4 Bft)
16.09.2024 11:13 23,6 °C 12,6 °C 52 % 89 % 1020,2 hPa 0,0 l/m² 13,8 km/h (3 Bft) W-NW 292 ° 1 min 67 W/m² 10,8 °C 8,7 °C 20,9 km/h (4 Bft)
16.09.2024 11:15 23,6 °C 12,6 °C 52 % 89 % 1020,2 hPa 0,0 l/m² 10,3 km/h (2 Bft) W 279 ° 2 min 72 W/m² 10,8 °C 10,3 °C 29,0 km/h (5 Bft)
16.09.2024 11:17 23,6 °C 12,6 °C 52 % 89 % 1020,3 hPa 0,0 l/m² 17,3 km/h (3 Bft) W-NW 290 ° 2 min 83 W/m² 10,8 °C 7,5 °C 25,7 km/h (4 Bft)
16.09.2024 11:19 23,6 °C 12,5 °C 52 % 89 % 1020,1 hPa 0,2 l/m² 12,7 km/h (3 Bft) NW 317 ° 2 min 93 W/m² 10,7 °C 9,1 °C 22,5 km/h (4 Bft)
16.09.2024 11:21 23,6 °C 12,5 °C 52 % 90 % 1020,3 hPa 0,0 l/m² 11,0 km/h (2 Bft) NW 313 ° 2 min 91 W/m² 10,9 °C 9,9 °C 25,7 km/h (4 Bft)
16.09.2024 11:22 23,6 °C 12,5 °C 52 % 90 % 1020,3 hPa 0,0 l/m² 11,2 km/h (2 Bft) W-NW 294 ° 1 min 81 W/m² 10,9 °C 9,8 °C 22,5 km/h (4 Bft)
16.09.2024 11:23 23,6 °C 12,5 °C 52 % 90 % 1020,3 hPa 0,0 l/m² 7,7 km/h (2 Bft) NW 315 ° 1 min 77 W/m² 10,9 °C 11,7 °C 20,9 km/h (4 Bft)
16.09.2024 11:24 23,6 °C 12,5 °C 52 % 90 % 1020,3 hPa 0,0 l/m² 14,6 km/h (3 Bft) W-NW 292 ° 1 min 77 W/m² 10,9 °C 8,3 °C 20,9 km/h (4 Bft)
16.09.2024 11:26 23,6 °C 12,5 °C 52 % 90 % 1020,3 hPa 0,0 l/m² 9,6 km/h (2 Bft) W-SW 240 ° 2 min 77 W/m² 10,9 °C 10,6 °C 24,1 km/h (4 Bft)
16.09.2024 11:28 23,6 °C 12,5 °C 52 % 90 % 1020,2 hPa 0,0 l/m² 9,5 km/h (2 Bft) W-NW 284 ° 2 min 88 W/m² 10,9 °C 10,6 °C 20,9 km/h (4 Bft)
16.09.2024 11:30 23,6 °C 12,4 °C 52 % 90 % 1020,2 hPa 0,0 l/m² 10,1 km/h (2 Bft) NW 312 ° 2 min 93 W/m² 10,8 °C 10,2 °C 20,9 km/h (4 Bft)
16.09.2024 11:31 23,6 °C 12,5 °C 52 % 90 % 1020,2 hPa 0,0 l/m² 6,5 km/h (2 Bft) NW 307 ° 1 min 95 W/m² 10,9 °C 12,5 °C 14,5 km/h (3 Bft)
16.09.2024 11:32 23,6 °C 12,5 °C 52 % 90 % 1020,2 hPa 0,0 l/m² 13,0 km/h (3 Bft) NW 310 ° 1 min 95 W/m² 10,9 °C 9,0 °C 17,7 km/h (3 Bft)
16.09.2024 11:33 23,6 °C 12,5 °C 52 % 90 % 1020,2 hPa 0,0 l/m² 9,2 km/h (2 Bft) N-NW 327 ° 1 min 93 W/m² 10,9 °C 10,8 °C 16,1 km/h (3 Bft)
16.09.2024 11:35 23,6 °C 12,5 °C 52 % 90 % 1020,3 hPa 0,0 l/m² 11,6 km/h (2 Bft) N-NW 327 ° 2 min 95 W/m² 10,9 °C 9,6 °C 20,9 km/h (4 Bft)
16.09.2024 11:36 23,6 °C 12,5 °C 52 % 90 % 1020,3 hPa 0,0 l/m² 7,6 km/h (2 Bft) W 277 ° 1 min 93 W/m² 10,9 °C 11,7 °C 17,7 km/h (3 Bft)
16.09.2024 11:37 23,6 °C 12,5 °C 52 % 90 % 1020,3 hPa 0,0 l/m² 6,4 km/h (2 Bft) W 270 ° 1 min 93 W/m² 10,9 °C 12,5 °C 12,9 km/h (3 Bft)
16.09.2024 11:38 23,6 °C 12,5 °C 52 % 90 % 1020,1 hPa 0,0 l/m² 6,1 km/h (2 Bft) N-NW 331 ° 1 min 93 W/m² 10,9 °C 12,5 °C 17,7 km/h (3 Bft)
16.09.2024 11:39 23,6 °C 12,6 °C 52 % 90 % 1020,2 hPa 0,0 l/m² 10,2 km/h (2 Bft) NW 309 ° 1 min 98 W/m² 11,0 °C 10,4 °C 17,7 km/h (3 Bft)
16.09.2024 11:40 23,6 °C 12,6 °C 52 % 90 % 1020,2 hPa 0,0 l/m² 6,1 km/h (2 Bft) W-NW 286 ° 1 min 104 W/m² 11,0 °C 12,6 °C 9,7 km/h (2 Bft)
16.09.2024 11:42 23,6 °C 12,6 °C 52 % 90 % 1020,3 hPa 0,0 l/m² 10,9 km/h (2 Bft) N-NW 336 ° 2 min 114 W/m² 11,0 °C 10,0 °C 20,9 km/h (4 Bft)
16.09.2024 11:44 23,6 °C 12,6 °C 52 % 90 % 1020,2 hPa 0,0 l/m² 13,8 km/h (3 Bft) NW 311 ° 2 min 118 W/m² 11,0 °C 8,7 °C 25,7 km/h (4 Bft)
16.09.2024 11:45 23,6 °C 12,6 °C 52 % 90 % 1020,2 hPa 0,0 l/m² 12,9 km/h (3 Bft) W 280 ° 1 min 111 W/m² 11,0 °C 9,1 °C 22,5 km/h (4 Bft)
16.09.2024 11:46 23,6 °C 12,6 °C 52 % 90 % 1020,2 hPa 0,0 l/m² 17,1 km/h (3 Bft) W-NW 296 ° 1 min 102 W/m² 11,0 °C 7,5 °C 25,7 km/h (4 Bft)
16.09.2024 11:47 23,6 °C 12,6 °C 52 % 90 % 1020,2 hPa 0,0 l/m² 9,5 km/h (2 Bft) NW 325 ° 1 min 95 W/m² 11,0 °C 10,7 °C 20,9 km/h (4 Bft)
16.09.2024 11:48 23,6 °C 12,6 °C 52 % 90 % 1020,3 hPa 0,0 l/m² 13,3 km/h (3 Bft) N-NW 335 ° 1 min 91 W/m² 11,0 °C 9,0 °C 19,3 km/h (3 Bft)
16.09.2024 11:49 23,6 °C 12,6 °C 52 % 90 % 1020,3 hPa 0,0 l/m² 10,7 km/h (2 Bft) NW 315 ° 1 min 88 W/m² 11,0 °C 10,1 °C 17,7 km/h (3 Bft)
16.09.2024 11:50 23,6 °C 12,6 °C 52 % 90 % 1020,3 hPa 0,0 l/m² 15,5 km/h (3 Bft) N-NW 329 ° 1 min 88 W/m² 11,0 °C 8,1 °C 25,7 km/h (4 Bft)
16.09.2024 11:52 23,6 °C 12,6 °C 52 % 90 % 1020,2 hPa 0,0 l/m² 14,3 km/h (3 Bft) NW 312 ° 2 min 83 W/m² 11,0 °C 8,6 °C 22,5 km/h (4 Bft)
16.09.2024 11:54 23,6 °C 12,7 °C 52 % 90 % 1020,3 hPa 0,0 l/m² 12,0 km/h (2 Bft) NW 314 ° 2 min 69 W/m² 11,1 °C 9,6 °C 24,1 km/h (4 Bft)
16.09.2024 11:55 23,6 °C 12,7 °C 52 % 90 % 1020,3 hPa 0,0 l/m² 10,3 km/h (2 Bft) W 275 ° 1 min 63 W/m² 11,1 °C 10,4 °C 20,9 km/h (4 Bft)
16.09.2024 11:56 23,6 °C 12,7 °C 52 % 90 % 1020,2 hPa 0,0 l/m² 14,3 km/h (3 Bft) W-NW 292 ° 1 min 60 W/m² 11,1 °C 8,7 °C 22,5 km/h (4 Bft)
16.09.2024 11:57 23,6 °C 12,7 °C 52 % 90 % 1020,3 hPa 0,0 l/m² 14,4 km/h (3 Bft) N-NW 328 ° 1 min 53 W/m² 11,1 °C 8,6 °C 22,5 km/h (4 Bft)
16.09.2024 11:58 23,6 °C 12,7 °C 52 % 89 % 1020,3 hPa 0,0 l/m² 13,7 km/h (3 Bft) N-NW 329 ° 1 min 54 W/m² 10,9 °C 8,9 °C 20,9 km/h (4 Bft)
16.09.2024 11:59 23,6 °C 12,7 °C 52 % 89 % 1020,3 hPa 0,0 l/m² 13,7 km/h (3 Bft) N-NO 18 ° 1 min 54 W/m² 10,9 °C 8,9 °C 25,7 km/h (4 Bft)
16.09.2024 12:00 23,6 °C 12,6 °C 52 % 89 % 1020,4 hPa 0,0 l/m² 13,6 km/h (3 Bft) N-NW 345 ° 1 min 56 W/m² 10,8 °C 8,8 °C 24,1 km/h (4 Bft)
16.09.2024 12:02 23,6 °C 12,6 °C 52 % 89 % 1020,3 hPa 0,0 l/m² 13,6 km/h (3 Bft) NW 311 ° 2 min 54 W/m² 10,8 °C 8,8 °C 25,7 km/h (4 Bft)
16.09.2024 12:04 23,6 °C 12,6 °C 52 % 89 % 1020,3 hPa 0,0 l/m² 13,7 km/h (3 Bft) N-NW 327 ° 2 min 63 W/m² 10,8 °C 8,8 °C 22,5 km/h (4 Bft)
16.09.2024 12:05 23,6 °C 12,7 °C 52 % 89 % 1020,3 hPa 0,0 l/m² 12,5 km/h (2 Bft) N-NW 333 ° 1 min 67 W/m² 10,9 °C 9,4 °C 16,1 km/h (3 Bft)
16.09.2024 12:06 23,5 °C 12,6 °C 52 % 89 % 1020,3 hPa 0,0 l/m² 14,3 km/h (3 Bft) NW 317 ° 1 min 69 W/m² 10,8 °C 8,6 °C 20,9 km/h (4 Bft)
16.09.2024 12:07 23,6 °C 12,6 °C 52 % 89 % 1020,3 hPa 0,0 l/m² 14,7 km/h (3 Bft) N-NW 331 ° 1 min 72 W/m² 10,8 °C 8,4 °C 24,1 km/h (4 Bft)
16.09.2024 12:08 23,5 °C 12,6 °C 52 % 89 % 1020,3 hPa 0,0 l/m² 11,8 km/h (2 Bft) NW 315 ° 1 min 74 W/m² 10,8 °C 9,6 °C 17,7 km/h (3 Bft)
16.09.2024 12:09 23,6 °C 12,7 °C 52 % 89 % 1020,3 hPa 0,0 l/m² 12,2 km/h (2 Bft) NW 326 ° 1 min 81 W/m² 10,9 °C 9,5 °C 20,9 km/h (4 Bft)
16.09.2024 12:11 23,5 °C 12,7 °C 52 % 89 % 1020,3 hPa 0,0 l/m² 14,8 km/h (3 Bft) NW 309 ° 2 min 79 W/m² 10,9 °C 8,5 °C 24,1 km/h (4 Bft)
16.09.2024 12:13 23,6 °C 12,7 °C 52 % 89 % 1020,4 hPa 0,0 l/m² 11,9 km/h (2 Bft) W-NW 296 ° 2 min 70 W/m² 10,9 °C 9,7 °C 25,7 km/h (4 Bft)
16.09.2024 12:14 23,6 °C 12,7 °C 52 % 89 % 1020,3 hPa 0,0 l/m² 12,4 km/h (2 Bft) NW 309 ° 1 min 69 W/m² 10,9 °C 9,4 °C 20,9 km/h (4 Bft)
16.09.2024 12:15 23,6 °C 12,7 °C 52 % 89 % 1020,3 hPa 0,0 l/m² 12,2 km/h (2 Bft) W-NW 298 ° 1 min 69 W/m² 10,9 °C 9,5 °C 22,5 km/h (4 Bft)
16.09.2024 12:16 23,5 °C 12,7 °C 52 % 89 % 1020,3 hPa 0,0 l/m² 14,7 km/h (3 Bft) NW 326 ° 1 min 70 W/m² 10,9 °C 8,5 °C 22,5 km/h (4 Bft)
16.09.2024 12:17 23,6 °C 12,7 °C 52 % 89 % 1020,3 hPa 0,0 l/m² 13,1 km/h (3 Bft) NW 323 ° 1 min 72 W/m² 10,9 °C 9,2 °C 17,7 km/h (3 Bft)
16.09.2024 12:18 23,5 °C 12,7 °C 52 % 89 % 1020,3 hPa 0,0 l/m² 15,6 km/h (3 Bft) NW 318 ° 1 min 76 W/m² 10,9 °C 8,2 °C 25,7 km/h (4 Bft)
16.09.2024 12:19 23,5 °C 12,7 °C 52 % 89 % 1020,4 hPa 0,0 l/m² 13,8 km/h (3 Bft) NW 313 ° 1 min 81 W/m² 10,9 °C 8,9 °C 24,1 km/h (4 Bft)
16.09.2024 12:21 23,6 °C 12,7 °C 52 % 89 % 1020,2 hPa 0,0 l/m² 16,7 km/h (3 Bft) N-NW 327 ° 2 min 77 W/m² 10,9 °C 7,8 °C 32,2 km/h (5 Bft)
16.09.2024 12:23 23,6 °C 12,7 °C 52 % 89 % 1020,4 hPa 0,0 l/m² 12,4 km/h (2 Bft) NW 306 ° 2 min 70 W/m² 10,9 °C 9,4 °C 30,6 km/h (5 Bft)
16.09.2024 12:24 23,5 °C 12,7 °C 52 % 89 % 1020,4 hPa 0,0 l/m² 10,2 km/h (2 Bft) NW 308 ° 1 min 67 W/m² 10,9 °C 10,5 °C 20,9 km/h (4 Bft)
16.09.2024 12:25 23,5 °C 12,7 °C 52 % 89 % 1020,4 hPa 0,0 l/m² 13,2 km/h (3 Bft) N-NW 346 ° 1 min 63 W/m² 10,9 °C 9,1 °C 25,7 km/h (4 Bft)
16.09.2024 12:26 23,5 °C 12,7 °C 52 % 89 % 1020,3 hPa 0,0 l/m² 17,0 km/h (3 Bft) NW 315 ° 1 min 65 W/m² 10,9 °C 7,7 °C 24,1 km/h (4 Bft)
16.09.2024 12:27 23,5 °C 12,7 °C 52 % 89 % 1020,4 hPa 0,0 l/m² 11,2 km/h (2 Bft) N-NW 347 ° 1 min 67 W/m² 10,9 °C 10,0 °C 22,5 km/h (4 Bft)
16.09.2024 12:28 23,5 °C 12,7 °C 52 % 89 % 1020,3 hPa 0,0 l/m² 17,2 km/h (3 Bft) W-NW 302 ° 1 min 70 W/m² 10,9 °C 7,6 °C 25,7 km/h (4 Bft)
16.09.2024 12:29 23,4 °C 12,7 °C 52 % 89 % 1020,3 hPa 0,0 l/m² 17,0 km/h (3 Bft) N-NW 331 ° 1 min 70 W/m² 10,9 °C 7,7 °C 24,1 km/h (4 Bft)
16.09.2024 12:31 23,5 °C 12,7 °C 52 % 89 % 1020,3 hPa 0,0 l/m² 15,5 km/h (3 Bft) NW 323 ° 2 min 74 W/m² 10,9 °C 8,2 °C 30,6 km/h (5 Bft)
16.09.2024 12:33 23,5 °C 12,7 °C 52 % 89 % 1020,4 hPa 0,0 l/m² 10,3 km/h (2 Bft) W-NW 291 ° 2 min 76 W/m² 10,9 °C 10,4 °C 17,7 km/h (3 Bft)
16.09.2024 12:34 23,4 °C 12,7 °C 52 % 89 % 1020,3 hPa 0,0 l/m² 16,0 km/h (3 Bft) W-NW 296 ° 1 min 74 W/m² 10,9 °C 8,0 °C 20,9 km/h (4 Bft)
16.09.2024 12:35 23,5 °C 12,7 °C 52 % 89 % 1020,2 hPa 0,0 l/m² 10,7 km/h (2 Bft) NW 323 ° 1 min 74 W/m² 10,9 °C 10,2 °C 16,1 km/h (3 Bft)
16.09.2024 12:36 23,5 °C 12,8 °C 52 % 89 % 1020,4 hPa 0,0 l/m² 12,4 km/h (2 Bft) NW 311 ° 1 min 72 W/m² 11,0 °C 9,6 °C 17,7 km/h (3 Bft)
16.09.2024 12:37 23,5 °C 12,8 °C 52 % 89 % 1020,3 hPa 0,0 l/m² 18,6 km/h (3 Bft) N-NW 330 ° 1 min 70 W/m² 11,0 °C 7,3 °C 29,0 km/h (5 Bft)
16.09.2024 12:38 23,5 °C 12,8 °C 52 % 89 % 1020,3 hPa 0,0 l/m² 14,2 km/h (3 Bft) N-NW 338 ° 1 min 72 W/m² 11,0 °C 8,8 °C 24,1 km/h (4 Bft)
16.09.2024 12:39 23,5 °C 12,8 °C 52 % 89 % 1020,3 hPa 0,0 l/m² 15,3 km/h (3 Bft) NW 325 ° 1 min 76 W/m² 11,0 °C 8,4 °C 27,4 km/h (5 Bft)
16.09.2024 12:41 23,4 °C 12,8 °C 52 % 89 % 1020,3 hPa 0,0 l/m² 14,4 km/h (3 Bft) N-NW 336 ° 2 min 84 W/m² 11,0 °C 8,8 °C 20,9 km/h (4 Bft)
16.09.2024 12:43 23,5 °C 12,8 °C 52 % 89 % 1020,3 hPa 0,0 l/m² 14,0 km/h (3 Bft) N-NW 329 ° 2 min 84 W/m² 11,0 °C 8,9 °C 22,5 km/h (4 Bft)
16.09.2024 12:45 23,4 °C 12,8 °C 52 % 89 % 1020,3 hPa 0,0 l/m² 14,7 km/h (3 Bft) NW 313 ° 2 min 77 W/m² 11,0 °C 8,6 °C 24,1 km/h (4 Bft)
16.09.2024 12:46 23,5 °C 12,9 °C 52 % 89 % 1020,3 hPa 0,0 l/m² 11,9 km/h (2 Bft) N-NW 342 ° 1 min 77 W/m² 11,1 °C 9,9 °C 17,7 km/h (3 Bft)
16.09.2024 12:47 23,4 °C 12,8 °C 52 % 89 % 1020,3 hPa 0,0 l/m² 12,7 km/h (3 Bft) N-NW 347 ° 1 min 77 W/m² 11,0 °C 9,4 °C 20,9 km/h (4 Bft)
16.09.2024 12:48 23,4 °C 12,8 °C 52 % 89 % 1020,3 hPa 0,0 l/m² 14,8 km/h (3 Bft) N-NW 339 ° 1 min 81 W/m² 11,0 °C 8,6 °C 20,9 km/h (4 Bft)
16.09.2024 12:49 23,4 °C 12,8 °C 52 % 89 % 1020,4 hPa 0,0 l/m² 16,4 km/h (3 Bft) NW 314 ° 1 min 83 W/m² 11,0 °C 8,0 °C 27,4 km/h (5 Bft)
16.09.2024 12:51 23,4 °C 12,9 °C 52 % 89 % 1020,4 hPa 0,0 l/m² 15,6 km/h (3 Bft) NW 310 ° 2 min 84 W/m² 11,1 °C 8,4 °C 22,5 km/h (4 Bft)
16.09.2024 12:52 23,5 °C 12,9 °C 52 % 88 % 1020,4 hPa 0,0 l/m² 12,5 km/h (2 Bft) NW 325 ° 1 min 84 W/m² 11,0 °C 9,6 °C 19,3 km/h (3 Bft)
16.09.2024 12:53 23,5 °C 12,9 °C 52 % 89 % 1020,4 hPa 0,0 l/m² 11,8 km/h (2 Bft) N-NW 334 ° 1 min 79 W/m² 11,1 °C 9,9 °C 17,7 km/h (3 Bft)
16.09.2024 12:54 23,4 °C 13,0 °C 52 % 89 % 1020,4 hPa 0,0 l/m² 13,0 km/h (3 Bft) N-NW 333 ° 1 min 74 W/m² 11,2 °C 9,5 °C 19,3 km/h (3 Bft)
16.09.2024 12:55 23,5 °C 12,9 °C 52 % 88 % 1020,3 hPa 0,0 l/m² 13,9 km/h (3 Bft) NW 313 ° 1 min 72 W/m² 11,0 °C 9,1 °C 22,5 km/h (4 Bft)
16.09.2024 12:57 23,4 °C 13,0 °C 52 % 88 % 1020,4 hPa 0,0 l/m² 15,1 km/h (3 Bft) N-NW 335 ° 2 min 74 W/m² 11,1 °C 8,7 °C 22,5 km/h (4 Bft)
16.09.2024 12:58 23,4 °C 13,0 °C 52 % 88 % 1020,4 hPa 0,0 l/m² 13,1 km/h (3 Bft) N-NW 336 ° 1 min 77 W/m² 11,1 °C 9,5 °C 19,3 km/h (3 Bft)
16.09.2024 12:59 23,4 °C 13,0 °C 52 % 88 % 1020,4 hPa 0,0 l/m² 13,7 km/h (3 Bft) W-NW 293 ° 1 min 81 W/m² 11,1 °C 9,3 °C 19,3 km/h (3 Bft)
16.09.2024 13:01 23,4 °C 13,1 °C 52 % 88 % 1020,4 hPa 0,0 l/m² 16,2 km/h (3 Bft) N-NW 348 ° 2 min 86 W/m² 11,2 °C 8,5 °C 29,0 km/h (5 Bft)
16.09.2024 13:02 23,4 °C 13,1 °C 52 % 88 % 1020,4 hPa 0,0 l/m² 19,1 km/h (3 Bft) N-NW 340 ° 1 min 88 W/m² 11,2 °C 7,6 °C 24,1 km/h (4 Bft)
16.09.2024 13:03 23,4 °C 13,1 °C 52 % 88 % 1020,4 hPa 0,0 l/m² 10,9 km/h (2 Bft) N-NO 32 ° 1 min 97 W/m² 11,2 °C 10,6 °C 19,3 km/h (3 Bft)
16.09.2024 13:04 23,4 °C 13,1 °C 52 % 88 % 1020,4 hPa 0,0 l/m² 15,0 km/h (3 Bft) NW 326 ° 1 min 107 W/m² 11,2 °C 8,9 °C 25,7 km/h (4 Bft)
16.09.2024 13:05 23,4 °C 13,1 °C 52 % 88 % 1020,3 hPa 0,0 l/m² 17,2 km/h (3 Bft) N-NW 328 ° 1 min 118 W/m² 11,2 °C 8,1 °C 22,5 km/h (4 Bft)
16.09.2024 13:06 23,4 °C 13,1 °C 52 % 87 % 1020,4 hPa 0,0 l/m² 15,2 km/h (3 Bft) NW 326 ° 1 min 125 W/m² 11,0 °C 8,8 °C 22,5 km/h (4 Bft)
16.09.2024 13:07 23,4 °C 13,1 °C 52 % 87 % 1020,3 hPa 0,0 l/m² 15,4 km/h (3 Bft) N-NW 346 ° 1 min 125 W/m² 11,0 °C 8,7 °C 24,1 km/h (4 Bft)
16.09.2024 13:08 23,4 °C 13,1 °C 52 % 88 % 1020,3 hPa 0,0 l/m² 14,1 km/h (3 Bft) W-NW 292 ° 1 min 125 W/m² 11,2 °C 9,2 °C 24,1 km/h (4 Bft)
16.09.2024 13:09 23,4 °C 13,2 °C 52 % 87 % 1020,3 hPa 0,0 l/m² 15,0 km/h (3 Bft) W-NW 300 ° 1 min 127 W/m² 11,1 °C 9,0 °C 27,4 km/h (5 Bft)
16.09.2024 13:11 23,4 °C 13,2 °C 52 % 87 % 1020,4 hPa 0,0 l/m² 16,4 km/h (3 Bft) W-NW 303 ° 2 min 120 W/m² 11,1 °C 8,5 °C 29,0 km/h (5 Bft)
16.09.2024 13:13 23,4 °C 13,2 °C 52 % 87 % 1020,4 hPa 0,0 l/m² 16,4 km/h (3 Bft) N-NW 331 ° 2 min 111 W/m² 11,1 °C 8,5 °C 27,4 km/h (5 Bft)
16.09.2024 13:14 23,4 °C 13,2 °C 52 % 87 % 1020,5 hPa 0,0 l/m² 11,3 km/h (2 Bft) NW 312 ° 1 min 111 W/m² 11,1 °C 10,5 °C 16,1 km/h (3 Bft)
16.09.2024 13:15 23,4 °C 13,2 °C 52 % 87 % 1020,4 hPa 0,0 l/m² 12,3 km/h (2 Bft) N 11 ° 1 min 109 W/m² 11,1 °C 10,1 °C 22,5 km/h (4 Bft)
16.09.2024 13:16 23,4 °C 13,2 °C 52 % 87 % 1020,4 hPa 0,0 l/m² 18,9 km/h (3 Bft) N-NW 330 ° 1 min 107 W/m² 11,1 °C 7,7 °C 27,4 km/h (5 Bft)
16.09.2024 13:17 23,4 °C 13,2 °C 52 % 87 % 1020,5 hPa 0,0 l/m² 16,8 km/h (3 Bft) N-NW 337 ° 1 min 105 W/m² 11,1 °C 8,4 °C 20,9 km/h (4 Bft)
16.09.2024 13:18 23,4 °C 13,3 °C 52 % 87 % 1020,5 hPa 0,0 l/m² 17,0 km/h (3 Bft) NW 320 ° 1 min 105 W/m² 11,2 °C 8,5 °C 27,4 km/h (5 Bft)
16.09.2024 13:19 23,4 °C 13,3 °C 52 % 87 % 1020,5 hPa 0,0 l/m² 19,6 km/h (3 Bft) NW 312 ° 1 min 113 W/m² 11,2 °C 7,7 °C 27,4 km/h (5 Bft)
16.09.2024 13:21 23,4 °C 13,3 °C 52 % 87 % 1020,5 hPa 0,0 l/m² 16,0 km/h (3 Bft) NW 314 ° 2 min 121 W/m² 11,2 °C 8,8 °C 24,1 km/h (4 Bft)
16.09.2024 13:23 23,4 °C 13,4 °C 52 % 87 % 1020,4 hPa 0,0 l/m² 14,4 km/h (3 Bft) N-NW 336 ° 2 min 132 W/m² 11,3 °C 9,5 °C 24,1 km/h (4 Bft)
16.09.2024 13:24 23,4 °C 13,4 °C 52 % 87 % 1020,4 hPa 0,0 l/m² 13,9 km/h (3 Bft) N-NW 341 ° 1 min 139 W/m² 11,3 °C 9,7 °C 24,1 km/h (4 Bft)
16.09.2024 13:25 23,4 °C 13,4 °C 52 % 87 % 1020,5 hPa 0,0 l/m² 12,5 km/h (2 Bft) N 355 ° 1 min 139 W/m² 11,3 °C 10,2 °C 19,3 km/h (3 Bft)
16.09.2024 13:26 23,4 °C 13,4 °C 52 % 86 % 1020,5 hPa 0,0 l/m² 15,3 km/h (3 Bft) N-NW 336 ° 1 min 144 W/m² 11,1 °C 9,1 °C 22,5 km/h (4 Bft)
16.09.2024 13:27 23,4 °C 13,5 °C 52 % 86 % 1020,5 hPa 0,0 l/m² 19,3 km/h (3 Bft) N 349 ° 1 min 144 W/m² 11,2 °C 8,0 °C 29,0 km/h (5 Bft)
16.09.2024 13:28 23,4 °C 13,5 °C 52 % 86 % 1020,5 hPa 0,0 l/m² 20,1 km/h (4 Bft) NW 307 ° 1 min 144 W/m² 11,2 °C 7,8 °C 27,4 km/h (5 Bft)
16.09.2024 13:29 23,4 °C 13,5 °C 52 % 85 % 1020,4 hPa 0,0 l/m² 22,4 km/h (4 Bft) N-NW 342 ° 1 min 142 W/m² 11,0 °C 7,2 °C 27,4 km/h (5 Bft)
16.09.2024 13:31 23,4 °C 13,6 °C 52 % 85 % 1020,5 hPa 0,0 l/m² 20,0 km/h (4 Bft) N-NW 332 ° 2 min 134 W/m² 11,1 °C 7,9 °C 30,6 km/h (5 Bft)
16.09.2024 13:33 23,4 °C 13,6 °C 52 % 85 % 1020,5 hPa 0,0 l/m² 20,6 km/h (4 Bft) N-NW 333 ° 2 min 137 W/m² 11,1 °C 7,8 °C 33,8 km/h (5 Bft)
16.09.2024 13:34 23,4 °C 13,6 °C 52 % 85 % 1020,5 hPa 0,0 l/m² 13,3 km/h (3 Bft) W-NW 296 ° 1 min 144 W/m² 11,1 °C 10,1 °C 25,7 km/h (4 Bft)
16.09.2024 13:35 23,4 °C 13,6 °C 52 % 85 % 1020,6 hPa 0,0 l/m² 12,9 km/h (3 Bft) NW 322 ° 1 min 153 W/m² 11,1 °C 10,3 °C 19,3 km/h (3 Bft)
16.09.2024 13:36 23,4 °C 13,7 °C 52 % 85 % 1020,4 hPa 0,0 l/m² 18,9 km/h (3 Bft) NW 326 ° 1 min 155 W/m² 11,2 °C 8,4 °C 27,4 km/h (5 Bft)
16.09.2024 13:37 23,4 °C 13,7 °C 52 % 84 % 1020,5 hPa 0,0 l/m² 17,6 km/h (3 Bft) N-NW 331 ° 1 min 144 W/m² 11,0 °C 8,8 °C 24,1 km/h (4 Bft)
16.09.2024 13:38 23,4 °C 13,7 °C 52 % 84 % 1020,5 hPa 0,0 l/m² 17,0 km/h (3 Bft) NW 314 ° 1 min 142 W/m² 11,0 °C 8,9 °C 20,9 km/h (4 Bft)
16.09.2024 13:39 23,4 °C 13,7 °C 52 % 84 % 1020,5 hPa 0,0 l/m² 20,0 km/h (4 Bft) NW 317 ° 1 min 144 W/m² 11,0 °C 8,1 °C 30,6 km/h (5 Bft)
16.09.2024 13:41 23,4 °C 13,7 °C 52 % 84 % 1020,5 hPa 0,0 l/m² 18,3 km/h (3 Bft) N-NW 342 ° 2 min 141 W/m² 11,0 °C 8,6 °C 25,7 km/h (4 Bft)
16.09.2024 13:43 23,4 °C 13,7 °C 52 % 84 % 1020,5 hPa 0,0 l/m² 21,0 km/h (4 Bft) W-NW 302 ° 2 min 111 W/m² 11,0 °C 7,8 °C 37,0 km/h (5 Bft)
16.09.2024 13:44 23,4 °C 13,7 °C 52 % 84 % 1020,6 hPa 0,0 l/m² 17,5 km/h (3 Bft) NW 324 ° 1 min 109 W/m² 11,0 °C 8,8 °C 27,4 km/h (5 Bft)
16.09.2024 13:45 23,4 °C 13,7 °C 52 % 84 % 1020,5 hPa 0,0 l/m² 15,7 km/h (3 Bft) NW 321 ° 1 min 105 W/m² 11,0 °C 9,4 °C 30,6 km/h (5 Bft)
16.09.2024 13:46 23,4 °C 13,7 °C 52 % 84 % 1020,6 hPa 0,0 l/m² 12,9 km/h (3 Bft) W-NW 302 ° 1 min 105 W/m² 11,0 °C 10,4 °C 20,9 km/h (4 Bft)
16.09.2024 13:47 23,4 °C 13,7 °C 52 % 84 % 1020,5 hPa 0,0 l/m² 12,4 km/h (2 Bft) N 9 ° 1 min 109 W/m² 11,0 °C 10,6 °C 17,7 km/h (3 Bft)
16.09.2024 13:48 23,4 °C 13,7 °C 52 % 84 % 1020,5 hPa 0,0 l/m² 18,5 km/h (3 Bft) N-NW 329 ° 1 min 121 W/m² 11,0 °C 8,5 °C 29,0 km/h (5 Bft)
16.09.2024 13:49 23,4 °C 13,7 °C 52 % 84 % 1020,5 hPa 0,0 l/m² 15,3 km/h (3 Bft) NW 307 ° 1 min 125 W/m² 11,0 °C 9,5 °C 24,1 km/h (4 Bft)
16.09.2024 13:51 23,4 °C 13,8 °C 52 % 84 % 1020,5 hPa 0,0 l/m² 10,1 km/h (2 Bft) N-NW 344 ° 2 min 130 W/m² 11,1 °C 11,7 °C 19,3 km/h (3 Bft)
16.09.2024 13:52 23,4 °C 13,7 °C 52 % 84 % 1020,6 hPa 0,0 l/m² 14,1 km/h (3 Bft) N-NW 332 ° 1 min 125 W/m² 11,0 °C 9,9 °C 24,1 km/h (4 Bft)
16.09.2024 13:53 23,4 °C 13,7 °C 52 % 84 % 1020,6 hPa 0,0 l/m² 14,6 km/h (3 Bft) N-NW 346 ° 1 min 116 W/m² 11,0 °C 9,8 °C 20,9 km/h (4 Bft)
16.09.2024 13:54 23,4 °C 13,8 °C 52 % 84 % 1020,5 hPa 0,0 l/m² 12,3 km/h (2 Bft) W-NW 294 ° 1 min 105 W/m² 11,1 °C 10,8 °C 22,5 km/h (4 Bft)
16.09.2024 13:55 23,4 °C 13,8 °C 52 % 85 % 1020,5 hPa 0,0 l/m² 10,6 km/h (2 Bft) N-NW 337 ° 1 min 107 W/m² 11,3 °C 11,5 °C 20,9 km/h (4 Bft)
16.09.2024 13:56 23,4 °C 13,7 °C 52 % 85 % 1020,6 hPa 0,0 l/m² 17,7 km/h (3 Bft) N-NW 337 ° 1 min 109 W/m² 11,2 °C 8,7 °C 25,7 km/h (4 Bft)
16.09.2024 13:57 23,4 °C 13,7 °C 52 % 85 % 1020,5 hPa 0,0 l/m² 13,7 km/h (3 Bft) NW 305 ° 1 min 111 W/m² 11,2 °C 10,1 °C 20,9 km/h (4 Bft)
16.09.2024 13:58 23,4 °C 13,7 °C 52 % 85 % 1020,6 hPa 0,0 l/m² 20,6 km/h (4 Bft) N-NW 342 ° 1 min 113 W/m² 11,2 °C 7,9 °C 29,0 km/h (5 Bft)
16.09.2024 13:59 23,4 °C 13,7 °C 52 % 85 % 1020,6 hPa 0,0 l/m² 17,0 km/h (3 Bft) W-NW 289 ° 1 min 113 W/m² 11,2 °C 8,9 °C 24,1 km/h (4 Bft)
16.09.2024 14:01 23,4 °C 13,7 °C 52 % 85 % 1020,6 hPa 0,0 l/m² 14,5 km/h (3 Bft) NW 325 ° 2 min 114 W/m² 11,2 °C 9,8 °C 25,7 km/h (4 Bft)
16.09.2024 14:03 23,4 °C 13,7 °C 52 % 85 % 1020,5 hPa 0,0 l/m² 16,3 km/h (3 Bft) NW 319 ° 2 min 109 W/m² 11,2 °C 9,2 °C 27,4 km/h (5 Bft)
16.09.2024 14:04 23,4 °C 13,8 °C 52 % 86 % 1020,5 hPa 0,0 l/m² 10,4 km/h (2 Bft) NW 316 ° 1 min 107 W/m² 11,5 °C 11,6 °C 19,3 km/h (3 Bft)
16.09.2024 14:05 23,4 °C 13,8 °C 52 % 86 % 1020,6 hPa 0,0 l/m² 9,6 km/h (2 Bft) W-NW 303 ° 1 min 105 W/m² 11,5 °C 12,0 °C 14,5 km/h (3 Bft)
16.09.2024 14:06 23,4 °C 13,8 °C 52 % 86 % 1020,5 hPa 0,0 l/m² 16,0 km/h (3 Bft) NW 306 ° 1 min 107 W/m² 11,5 °C 9,4 °C 27,4 km/h (5 Bft)
16.09.2024 14:07 23,4 °C 13,8 °C 52 % 86 % 1020,5 hPa 0,0 l/m² 17,5 km/h (3 Bft) W-NW 300 ° 1 min 105 W/m² 11,5 °C 8,9 °C 22,5 km/h (4 Bft)
16.09.2024 14:08 23,4 °C 13,8 °C 52 % 86 % 1020,5 hPa 0,0 l/m² 16,9 km/h (3 Bft) NW 309 ° 1 min 104 W/m² 11,5 °C 9,1 °C 22,5 km/h (4 Bft)
16.09.2024 14:09 23,4 °C 13,8 °C 52 % 86 % 1020,5 hPa 0,0 l/m² 12,7 km/h (3 Bft) N-NW 336 ° 1 min 105 W/m² 11,5 °C 10,6 °C 22,5 km/h (4 Bft)
16.09.2024 14:11 23,4 °C 13,8 °C 52 % 86 % 1020,5 hPa 0,0 l/m² 17,3 km/h (3 Bft) W-NW 296 ° 2 min 111 W/m² 11,5 °C 9,0 °C 25,7 km/h (4 Bft)
16.09.2024 14:13 23,4 °C 13,8 °C 52 % 86 % 1020,5 hPa 0,0 l/m² 13,0 km/h (3 Bft) N-NW 331 ° 2 min 98 W/m² 11,5 °C 10,5 °C 27,4 km/h (5 Bft)
16.09.2024 14:14 23,4 °C 13,8 °C 52 % 85 % 1020,5 hPa 0,0 l/m² 13,7 km/h (3 Bft) W-NW 288 ° 1 min 93 W/m² 11,3 °C 10,2 °C 22,5 km/h (4 Bft)
16.09.2024 14:15 23,4 °C 13,8 °C 52 % 85 % 1020,6 hPa 0,0 l/m² 16,5 km/h (3 Bft) NW 325 ° 1 min 88 W/m² 11,3 °C 9,2 °C 24,1 km/h (4 Bft)
16.09.2024 14:16 23,4 °C 13,7 °C 52 % 85 % 1020,5 hPa 0,0 l/m² 11,8 km/h (2 Bft) SW 231 ° 1 min 84 W/m² 11,2 °C 10,9 °C 19,3 km/h (3 Bft)
16.09.2024 14:17 23,4 °C 13,8 °C 52 % 85 % 1020,6 hPa 0,0 l/m² 13,7 km/h (3 Bft) N-NW 337 ° 1 min 81 W/m² 11,3 °C 10,2 °C 25,7 km/h (4 Bft)
16.09.2024 14:18 23,4 °C 13,8 °C 52 % 85 % 1020,7 hPa 0,0 l/m² 12,5 km/h (2 Bft) W-NW 300 ° 1 min 79 W/m² 11,3 °C 10,7 °C 24,1 km/h (4 Bft)
16.09.2024 14:19 23,4 °C 13,8 °C 52 % 85 % 1020,6 hPa 0,0 l/m² 13,1 km/h (3 Bft) NW 315 ° 1 min 79 W/m² 11,3 °C 10,4 °C 19,3 km/h (3 Bft)
16.09.2024 14:21 23,4 °C 13,8 °C 52 % 85 % 1020,6 hPa 0,0 l/m² 15,1 km/h (3 Bft) W-NW 297 ° 2 min 81 W/m² 11,3 °C 9,7 °C 27,4 km/h (5 Bft)
16.09.2024 14:23 23,4 °C 13,8 °C 52 % 85 % 1020,6 hPa 0,0 l/m² 15,2 km/h (3 Bft) W 268 ° 2 min 83 W/m² 11,3 °C 9,7 °C 24,1 km/h (4 Bft)
16.09.2024 14:24 23,4 °C 13,8 °C 52 % 85 % 1020,6 hPa 0,0 l/m² 14,7 km/h (3 Bft) N-NW 340 ° 1 min 86 W/m² 11,3 °C 9,8 °C 25,7 km/h (4 Bft)
16.09.2024 14:25 23,4 °C 13,8 °C 52 % 85 % 1020,6 hPa 0,0 l/m² 13,0 km/h (3 Bft) W-NW 291 ° 1 min 90 W/m² 11,3 °C 10,5 °C 24,1 km/h (4 Bft)
16.09.2024 14:26 23,4 °C 13,8 °C 52 % 85 % 1020,6 hPa 0,0 l/m² 12,9 km/h (3 Bft) W 269 ° 1 min 90 W/m² 11,3 °C 10,5 °C 20,9 km/h (4 Bft)
16.09.2024 14:27 23,4 °C 13,8 °C 52 % 85 % 1020,6 hPa 0,0 l/m² 16,2 km/h (3 Bft) NW 325 ° 1 min 90 W/m² 11,3 °C 9,3 °C 25,7 km/h (4 Bft)
16.09.2024 14:28 23,4 °C 13,8 °C 52 % 85 % 1020,6 hPa 0,0 l/m² 17,2 km/h (3 Bft) NW 304 ° 1 min 95 W/m² 11,3 °C 9,0 °C 29,0 km/h (5 Bft)
16.09.2024 14:29 23,4 °C 13,9 °C 52 % 85 % 1020,5 hPa 0,0 l/m² 13,1 km/h (3 Bft) W-NW 298 ° 1 min 100 W/m² 11,4 °C 10,6 °C 17,7 km/h (3 Bft)
16.09.2024 14:31 23,4 °C 13,9 °C 52 % 85 % 1020,6 hPa 0,0 l/m² 17,3 km/h (3 Bft) N 350 ° 2 min 98 W/m² 11,4 °C 9,1 °C 29,0 km/h (5 Bft)
16.09.2024 14:33 23,4 °C 13,9 °C 52 % 85 % 1020,6 hPa 0,0 l/m² 17,2 km/h (3 Bft) NW 313 ° 2 min 97 W/m² 11,4 °C 9,1 °C 27,4 km/h (5 Bft)
16.09.2024 14:34 23,4 °C 13,9 °C 52 % 85 % 1020,6 hPa 0,0 l/m² 10,2 km/h (2 Bft) NW 315 ° 1 min 100 W/m² 11,4 °C 11,8 °C 20,9 km/h (4 Bft)
16.09.2024 14:35 23,4 °C 14,0 °C 52 % 85 % 1020,5 hPa 0,0 l/m² 17,9 km/h (3 Bft) W-NW 297 ° 1 min 120 W/m² 11,5 °C 9,0 °C 25,7 km/h (4 Bft)
16.09.2024 14:36 23,4 °C 14,0 °C 52 % 85 % 1020,7 hPa 0,0 l/m² 14,7 km/h (3 Bft) W-NW 302 ° 1 min 125 W/m² 11,5 °C 10,1 °C 22,5 km/h (4 Bft)
16.09.2024 14:37 23,4 °C 14,1 °C 52 % 85 % 1020,6 hPa 0,0 l/m² 17,2 km/h (3 Bft) W-NW 301 ° 1 min 135 W/m² 11,6 °C 9,4 °C 22,5 km/h (4 Bft)
16.09.2024 14:38 23,4 °C 14,1 °C 52 % 84 % 1020,6 hPa 0,0 l/m² 13,2 km/h (3 Bft) W 281 ° 1 min 139 W/m² 11,4 °C 10,8 °C 19,3 km/h (3 Bft)
16.09.2024 14:39 23,4 °C 14,1 °C 52 % 84 % 1020,6 hPa 0,0 l/m² 13,6 km/h (3 Bft) NW 311 ° 1 min 139 W/m² 11,4 °C 10,6 °C 17,7 km/h (3 Bft)
16.09.2024 14:41 23,4 °C 14,2 °C 52 % 84 % 1020,7 hPa 0,0 l/m² 13,0 km/h (3 Bft) NW 314 ° 2 min 149 W/m² 11,5 °C 11,0 °C 24,1 km/h (4 Bft)
16.09.2024 14:43 23,4 °C 14,3 °C 52 % 84 % 1020,7 hPa 0,0 l/m² 15,2 km/h (3 Bft) NW 309 ° 2 min 151 W/m² 11,6 °C 10,3 °C 24,1 km/h (4 Bft)
16.09.2024 14:44 23,4 °C 14,3 °C 52 % 84 % 1020,6 hPa 0,0 l/m² 10,4 km/h (2 Bft) NW 312 ° 1 min 148 W/m² 11,6 °C 12,2 °C 16,1 km/h (3 Bft)
16.09.2024 14:45 23,3 °C 14,3 °C 52 % 84 % 1020,7 hPa 0,0 l/m² 14,6 km/h (3 Bft) NW 326 ° 1 min 155 W/m² 11,6 °C 10,5 °C 20,9 km/h (4 Bft)
16.09.2024 14:46 23,4 °C 14,3 °C 52 % 84 % 1020,6 hPa 0,0 l/m² 17,7 km/h (3 Bft) NW 323 ° 1 min 155 W/m² 11,6 °C 9,5 °C 27,4 km/h (5 Bft)
16.09.2024 14:47 23,4 °C 14,4 °C 52 % 83 % 1020,7 hPa 0,0 l/m² 11,7 km/h (2 Bft) N-NW 333 ° 1 min 151 W/m² 11,5 °C 11,7 °C 16,1 km/h (3 Bft)
16.09.2024 14:48 23,4 °C 14,4 °C 52 % 84 % 1020,6 hPa 0,0 l/m² 13,2 km/h (3 Bft) N-NW 330 ° 1 min 144 W/m² 11,7 °C 11,1 °C 25,7 km/h (4 Bft)
16.09.2024 14:49 23,3 °C 14,4 °C 52 % 84 % 1020,7 hPa 0,0 l/m² 17,6 km/h (3 Bft) NW 322 ° 1 min 146 W/m² 11,7 °C 9,6 °C 25,7 km/h (4 Bft)
16.09.2024 14:51 23,4 °C 14,5 °C 52 % 83 % 1020,6 hPa 0,0 l/m² 15,2 km/h (3 Bft) NW 319 ° 2 min 156 W/m² 11,6 °C 10,5 °C 25,7 km/h (4 Bft)
16.09.2024 14:52 23,4 °C 14,6 °C 52 % 83 % 1020,6 hPa 0,0 l/m² 15,3 km/h (3 Bft) NW 306 ° 1 min 163 W/m² 11,7 °C 10,6 °C 22,5 km/h (4 Bft)
16.09.2024 14:53 23,4 °C 14,6 °C 52 % 83 % 1020,6 hPa 0,0 l/m² 15,3 km/h (3 Bft) NW 313 ° 1 min 167 W/m² 11,7 °C 10,6 °C 22,5 km/h (4 Bft)
16.09.2024 14:54 23,4 °C 14,6 °C 52 % 83 % 1020,7 hPa 0,0 l/m² 13,4 km/h (3 Bft) NW 308 ° 1 min 171 W/m² 11,7 °C 11,3 °C 19,3 km/h (3 Bft)
16.09.2024 14:55 23,4 °C 14,7 °C 52 % 83 % 1020,7 hPa 0,0 l/m² 11,5 km/h (2 Bft) W-NW 296 ° 1 min 185 W/m² 11,8 °C 12,1 °C 19,3 km/h (3 Bft)
16.09.2024 14:56 23,4 °C 14,7 °C 52 % 82 % 1020,7 hPa 0,0 l/m² 16,5 km/h (3 Bft) N-NW 331 ° 1 min 193 W/m² 11,7 °C 10,3 °C 24,1 km/h (4 Bft)
16.09.2024 14:57 23,4 °C 14,7 °C 52 % 82 % 1020,7 hPa 0,0 l/m² 17,5 km/h (3 Bft) N-NW 331 ° 1 min 193 W/m² 11,7 °C 10,0 °C 24,1 km/h (4 Bft)
16.09.2024 14:58 23,3 °C 14,8 °C 52 % 82 % 1020,6 hPa 0,0 l/m² 16,3 km/h (3 Bft) N-NW 340 ° 1 min 193 W/m² 11,8 °C 10,5 °C 22,5 km/h (4 Bft)
16.09.2024 14:59 23,3 °C 14,8 °C 52 % 82 % 1020,7 hPa 0,0 l/m² 10,6 km/h (2 Bft) N 355 ° 1 min 192 W/m² 11,8 °C 12,6 °C 19,3 km/h (3 Bft)
16.09.2024 15:01 23,3 °C 14,9 °C 52 % 82 % 1020,6 hPa 0,0 l/m² 16,1 km/h (3 Bft) N-NW 345 ° 2 min 179 W/m² 11,9 °C 10,7 °C 25,7 km/h (4 Bft)
16.09.2024 15:03 23,3 °C 14,9 °C 52 % 82 % 1020,7 hPa 0,0 l/m² 12,5 km/h (2 Bft) NW 304 ° 2 min 167 W/m² 11,9 °C 12,0 °C 22,5 km/h (4 Bft)
16.09.2024 15:04 23,4 °C 14,9 °C 52 % 82 % 1020,7 hPa 0,0 l/m² 16,8 km/h (3 Bft) N 355 ° 1 min 146 W/m² 11,9 °C 10,5 °C 25,7 km/h (4 Bft)
16.09.2024 15:06 23,3 °C 15,0 °C 52 % 81 % 1020,7 hPa 0,0 l/m² 12,3 km/h (2 Bft) NW 314 ° 2 min 130 W/m² 11,8 °C 12,2 °C 19,3 km/h (3 Bft)
16.09.2024 15:07 23,3 °C 15,0 °C 52 % 81 % 1020,7 hPa 0,0 l/m² 12,7 km/h (3 Bft) NW 315 ° 1 min 125 W/m² 11,8 °C 12,0 °C 20,9 km/h (4 Bft)
16.09.2024 15:08 23,4 °C 14,9 °C 52 % 81 % 1020,7 hPa 0,0 l/m² 14,8 km/h (3 Bft) NW 311 ° 1 min 125 W/m² 11,7 °C 11,1 °C 19,3 km/h (3 Bft)
16.09.2024 15:09 23,4 °C 14,9 °C 52 % 81 % 1020,7 hPa 0,0 l/m² 16,3 km/h (3 Bft) W-NW 298 ° 1 min 123 W/m² 11,7 °C 10,7 °C 25,7 km/h (4 Bft)
16.09.2024 15:11 23,4 °C 14,9 °C 52 % 81 % 1020,7 hPa 0,0 l/m² 11,3 km/h (2 Bft) NW 305 ° 2 min 120 W/m² 11,7 °C 12,4 °C 22,5 km/h (4 Bft)
16.09.2024 15:13 23,3 °C 14,9 °C 52 % 81 % 1020,8 hPa 0,0 l/m² 13,7 km/h (3 Bft) NW 322 ° 2 min 123 W/m² 11,7 °C 11,5 °C 20,9 km/h (4 Bft)
16.09.2024 15:14 23,3 °C 14,9 °C 52 % 81 % 1020,7 hPa 0,0 l/m² 10,2 km/h (2 Bft) W-NW 298 ° 1 min 120 W/m² 11,7 °C 12,9 °C 14,5 km/h (3 Bft)
16.09.2024 15:15 23,4 °C 14,9 °C 52 % 81 % 1020,7 hPa 0,0 l/m² 11,7 km/h (2 Bft) NW 309 ° 1 min 118 W/m² 11,7 °C 12,3 °C 19,3 km/h (3 Bft)
16.09.2024 15:16 23,4 °C 14,9 °C 52 % 81 % 1020,7 hPa 0,0 l/m² 14,6 km/h (3 Bft) N-NW 342 ° 1 min 123 W/m² 11,7 °C 11,2 °C 25,7 km/h (4 Bft)
16.09.2024 15:18 23,4 °C 14,9 °C 52 % 80 % 1020,7 hPa 0,0 l/m² 14,4 km/h (3 Bft) N-NW 327 ° 2 min 127 W/m² 11,5 °C 11,3 °C 22,5 km/h (4 Bft)
16.09.2024 15:19 23,4 °C 14,9 °C 52 % 80 % 1020,8 hPa 0,0 l/m² 13,3 km/h (3 Bft) N 350 ° 1 min 128 W/m² 11,5 °C 11,7 °C 19,3 km/h (3 Bft)
16.09.2024 15:21 23,3 °C 14,9 °C 52 % 81 % 1020,8 hPa 0,0 l/m² 16,0 km/h (3 Bft) W-NW 290 ° 2 min 123 W/m² 11,7 °C 10,7 °C 24,1 km/h (4 Bft)
16.09.2024 15:23 23,3 °C 14,9 °C 52 % 80 % 1020,7 hPa 0,0 l/m² 14,0 km/h (3 Bft) N-NW 327 ° 2 min 123 W/m² 11,5 °C 11,4 °C 24,1 km/h (4 Bft)
16.09.2024 15:24 23,3 °C 14,9 °C 52 % 80 % 1020,7 hPa 0,0 l/m² 12,7 km/h (3 Bft) NW 319 ° 1 min 125 W/m² 11,5 °C 11,9 °C 20,9 km/h (4 Bft)
16.09.2024 15:25 23,3 °C 14,9 °C 52 % 81 % 1020,7 hPa 0,0 l/m² 14,0 km/h (3 Bft) N 360 ° 1 min 128 W/m² 11,7 °C 11,4 °C 24,1 km/h (4 Bft)
16.09.2024 15:26 23,3 °C 14,9 °C 52 % 80 % 1020,6 hPa 0,0 l/m² 15,4 km/h (3 Bft) W-NW 295 ° 1 min 132 W/m² 11,5 °C 10,9 °C 20,9 km/h (4 Bft)
16.09.2024 15:27 23,4 °C 14,9 °C 52 % 80 % 1020,6 hPa 0,0 l/m² 11,8 km/h (2 Bft) N-NW 328 ° 1 min 135 W/m² 11,5 °C 12,2 °C 22,5 km/h (4 Bft)
16.09.2024 15:28 23,3 °C 15,0 °C 52 % 80 % 1020,7 hPa 0,0 l/m² 11,8 km/h (2 Bft) NW 311 ° 1 min 137 W/m² 11,6 °C 12,4 °C 17,7 km/h (3 Bft)
16.09.2024 15:29 23,3 °C 15,1 °C 52 % 80 % 1020,6 hPa 0,0 l/m² 11,2 km/h (2 Bft) NW 307 ° 1 min 134 W/m² 11,7 °C 12,7 °C 19,3 km/h (3 Bft)
16.09.2024 15:31 23,3 °C 15,1 °C 52 % 81 % 1020,7 hPa 0,0 l/m² 11,1 km/h (2 Bft) N-NW 342 ° 2 min 128 W/m² 11,9 °C 12,8 °C 19,3 km/h (3 Bft)
16.09.2024 15:33 23,3 °C 15,1 °C 52 % 80 % 1020,6 hPa 0,0 l/m² 14,2 km/h (3 Bft) NW 319 ° 2 min 127 W/m² 11,7 °C 11,6 °C 24,1 km/h (4 Bft)
16.09.2024 15:34 23,3 °C 15,1 °C 52 % 80 % 1020,7 hPa 0,0 l/m² 12,4 km/h (2 Bft) NW 305 ° 1 min 125 W/m² 11,7 °C 12,2 °C 22,5 km/h (4 Bft)
16.09.2024 15:35 23,3 °C 15,1 °C 52 % 80 % 1020,7 hPa 0,0 l/m² 13,5 km/h (3 Bft) W-NW 302 ° 1 min 127 W/m² 11,7 °C 11,8 °C 24,1 km/h (4 Bft)
16.09.2024 15:36 23,3 °C 15,1 °C 52 % 80 % 1020,6 hPa 0,0 l/m² 15,8 km/h (3 Bft) NW 305 ° 1 min 130 W/m² 11,7 °C 11,1 °C 24,1 km/h (4 Bft)
16.09.2024 15:37 23,3 °C 15,1 °C 52 % 80 % 1020,6 hPa 0,0 l/m² 12,7 km/h (3 Bft) W-NW 302 ° 1 min 135 W/m² 11,7 °C 12,1 °C 20,9 km/h (4 Bft)
16.09.2024 15:38 23,3 °C 15,1 °C 52 % 80 % 1020,6 hPa 0,0 l/m² 14,0 km/h (3 Bft) NW 324 ° 1 min 139 W/m² 11,7 °C 11,6 °C 22,5 km/h (4 Bft)
16.09.2024 15:39 23,3 °C 15,1 °C 52 % 80 % 1020,6 hPa 0,0 l/m² 10,6 km/h (2 Bft) W 279 ° 1 min 141 W/m² 11,7 °C 13,0 °C 19,3 km/h (3 Bft)
16.09.2024 15:41 23,3 °C 15,2 °C 52 % 80 % 1020,6 hPa 0,0 l/m² 9,2 km/h (2 Bft) W 273 ° 2 min 135 W/m² 11,8 °C 13,7 °C 22,5 km/h (4 Bft)
16.09.2024 15:43 23,3 °C 15,2 °C 52 % 80 % 1020,6 hPa 0,0 l/m² 7,8 km/h (2 Bft) W-NW 299 ° 2 min 134 W/m² 11,8 °C 14,4 °C 17,7 km/h (3 Bft)
16.09.2024 15:44 23,3 °C 15,2 °C 52 % 81 % 1020,6 hPa 0,0 l/m² 8,1 km/h (2 Bft) NW 309 ° 1 min 135 W/m² 12,0 °C 14,3 °C 12,9 km/h (3 Bft)
16.09.2024 15:46 23,3 °C 15,3 °C 52 % 80 % 1020,7 hPa 0,0 l/m² 14,3 km/h (3 Bft) NW 304 ° 2 min 125 W/m² 11,9 °C 11,8 °C 25,7 km/h (4 Bft)
16.09.2024 15:47 23,3 °C 15,3 °C 52 % 80 % 1020,6 hPa 0,0 l/m² 6,6 km/h (2 Bft) NW 304 ° 1 min 121 W/m² 11,9 °C 15,2 °C 19,3 km/h (3 Bft)
16.09.2024 15:48 23,3 °C 15,3 °C 52 % 80 % 1020,7 hPa 0,0 l/m² 13,3 km/h (3 Bft) N 355 ° 1 min 120 W/m² 11,9 °C 12,1 °C 19,3 km/h (3 Bft)
16.09.2024 15:49 23,3 °C 15,3 °C 52 % 79 % 1020,7 hPa 0,0 l/m² 14,5 km/h (3 Bft) W-NW 287 ° 1 min 116 W/m² 11,7 °C 11,7 °C 20,9 km/h (4 Bft)
16.09.2024 15:51 23,3 °C 15,3 °C 52 % 79 % 1020,7 hPa 0,0 l/m² 10,1 km/h (2 Bft) N-NW 332 ° 2 min 111 W/m² 11,7 °C 13,4 °C 19,3 km/h (3 Bft)
16.09.2024 15:53 23,3 °C 15,3 °C 52 % 80 % 1020,6 hPa 0,0 l/m² 11,4 km/h (2 Bft) NW 307 ° 2 min 120 W/m² 11,9 °C 12,9 °C 17,7 km/h (3 Bft)
16.09.2024 15:54 23,3 °C 15,3 °C 52 % 80 % 1020,6 hPa 0,0 l/m² 15,5 km/h (3 Bft) W-NW 298 ° 1 min 125 W/m² 11,9 °C 11,4 °C 22,5 km/h (4 Bft)
16.09.2024 15:55 23,3 °C 15,3 °C 52 % 80 % 1020,6 hPa 0,0 l/m² 7,8 km/h (2 Bft) W-NW 300 ° 1 min 132 W/m² 11,9 °C 14,5 °C 14,5 km/h (3 Bft)
16.09.2024 15:56 23,3 °C 15,3 °C 52 % 80 % 1020,6 hPa 0,0 l/m² 7,6 km/h (2 Bft) NW 305 ° 1 min 135 W/m² 11,9 °C 14,6 °C 19,3 km/h (3 Bft)
16.09.2024 15:57 23,3 °C 15,3 °C 52 % 80 % 1020,6 hPa 0,0 l/m² 9,7 km/h (2 Bft) W-NW 301 ° 1 min 142 W/m² 11,9 °C 13,6 °C 17,7 km/h (3 Bft)
16.09.2024 15:58 23,3 °C 15,3 °C 52 % 80 % 1020,6 hPa 0,0 l/m² 12,3 km/h (2 Bft) W 273 ° 1 min 144 W/m² 11,9 °C 12,5 °C 19,3 km/h (3 Bft)
16.09.2024 15:59 23,3 °C 15,3 °C 52 % 80 % 1020,6 hPa 0,0 l/m² 5,4 km/h (2 Bft) W-SW 254 ° 1 min 146 W/m² 11,9 °C 15,3 °C 12,9 km/h (3 Bft)
16.09.2024 16:01 23,3 °C 15,3 °C 52 % 79 % 1020,6 hPa 0,0 l/m² 11,7 km/h (2 Bft) NW 314 ° 2 min 148 W/m² 11,7 °C 12,7 °C 22,5 km/h (4 Bft)
16.09.2024 16:03 23,3 °C 15,4 °C 52 % 79 % 1020,6 hPa 0,0 l/m² 15,6 km/h (3 Bft) W-NW 296 ° 2 min 130 W/m² 11,8 °C 11,5 °C 27,4 km/h (5 Bft)
16.09.2024 16:04 23,3 °C 15,4 °C 52 % 79 % 1020,6 hPa 0,0 l/m² 13,5 km/h (3 Bft) N-NW 335 ° 1 min 127 W/m² 11,8 °C 12,2 °C 20,9 km/h (4 Bft)
16.09.2024 16:05 23,3 °C 15,4 °C 52 % 79 % 1020,6 hPa 0,0 l/m² 14,9 km/h (3 Bft) NW 314 ° 1 min 125 W/m² 11,8 °C 11,7 °C 20,9 km/h (4 Bft)
16.09.2024 16:06 23,3 °C 15,4 °C 52 % 79 % 1020,7 hPa 0,0 l/m² 8,2 km/h (2 Bft) W 272 ° 1 min 123 W/m² 11,8 °C 14,4 °C 17,7 km/h (3 Bft)
16.09.2024 16:07 23,3 °C 15,4 °C 52 % 79 % 1020,7 hPa 0,0 l/m² 11,7 km/h (2 Bft) NW 313 ° 1 min 120 W/m² 11,8 °C 12,8 °C 17,7 km/h (3 Bft)
16.09.2024 16:08 23,3 °C 15,4 °C 52 % 79 % 1020,6 hPa 0,0 l/m² 12,3 km/h (2 Bft) N 5 ° 1 min 116 W/m² 11,8 °C 12,6 °C 17,7 km/h (3 Bft)
16.09.2024 16:09 23,3 °C 15,4 °C 52 % 79 % 1020,6 hPa 0,0 l/m² 10,3 km/h (2 Bft) N 351 ° 1 min 116 W/m² 11,8 °C 13,4 °C 16,1 km/h (3 Bft)
16.09.2024 16:10 23,3 °C 15,4 °C 52 % 79 % 1020,6 hPa 0,0 l/m² 12,5 km/h (2 Bft) NW 306 ° 1 min 116 W/m² 11,8 °C 12,5 °C 17,7 km/h (3 Bft)
16.09.2024 16:12 23,3 °C 15,4 °C 52 % 79 % 1020,6 hPa 0,0 l/m² 15,6 km/h (3 Bft) W-NW 288 ° 2 min 121 W/m² 11,8 °C 11,5 °C 27,4 km/h (5 Bft)
16.09.2024 16:13 23,3 °C 15,4 °C 52 % 78 % 1020,5 hPa 0,0 l/m² 9,6 km/h (2 Bft) W-NW 298 ° 1 min 121 W/m² 11,6 °C 13,7 °C 19,3 km/h (3 Bft)
16.09.2024 16:14 23,3 °C 15,4 °C 52 % 79 % 1020,6 hPa 0,0 l/m² 6,9 km/h (2 Bft) N-NO 14 ° 1 min 120 W/m² 11,8 °C 15,1 °C 17,7 km/h (3 Bft)
16.09.2024 16:15 23,3 °C 15,5 °C 52 % 79 % 1020,6 hPa 0,0 l/m² 7,4 km/h (2 Bft) N-NW 332 ° 1 min 120 W/m² 11,9 °C 14,9 °C 12,9 km/h (3 Bft)
16.09.2024 16:16 23,3 °C 15,5 °C 52 % 79 % 1020,6 hPa 0,0 l/m² 15,2 km/h (3 Bft) W-NW 288 ° 1 min 116 W/m² 11,9 °C 11,7 °C 24,1 km/h (4 Bft)
16.09.2024 16:17 23,3 °C 15,5 °C 52 % 79 % 1020,6 hPa 0,0 l/m² 13,6 km/h (3 Bft) W-NW 291 ° 1 min 114 W/m² 11,9 °C 12,3 °C 19,3 km/h (3 Bft)
16.09.2024 16:18 23,3 °C 15,5 °C 52 % 78 % 1020,7 hPa 0,0 l/m² 12,7 km/h (3 Bft) W-NW 288 ° 1 min 113 W/m² 11,7 °C 12,6 °C 19,3 km/h (3 Bft)
16.09.2024 16:19 23,3 °C 15,6 °C 52 % 79 % 1020,7 hPa 0,0 l/m² 9,6 km/h (2 Bft) N-NW 332 ° 1 min 113 W/m² 12,0 °C 14,0 °C 19,3 km/h (3 Bft)
16.09.2024 16:21 23,3 °C 15,5 °C 52 % 78 % 1020,7 hPa 0,0 l/m² 14,2 km/h (3 Bft) W-NW 299 ° 2 min 105 W/m² 11,7 °C 12,1 °C 22,5 km/h (4 Bft)
16.09.2024 16:23 23,3 °C 15,6 °C 52 % 78 % 1020,6 hPa 0,0 l/m² 13,4 km/h (3 Bft) NW 317 ° 2 min 100 W/m² 11,8 °C 12,5 °C 20,9 km/h (4 Bft)
16.09.2024 16:24 23,3 °C 15,5 °C 52 % 78 % 1020,6 hPa 0,0 l/m² 10,5 km/h (2 Bft) NW 309 ° 1 min 98 W/m² 11,7 °C 13,5 °C 16,1 km/h (3 Bft)
16.09.2024 16:25 23,3 °C 15,5 °C 52 % 79 % 1020,7 hPa 0,0 l/m² 11,8 km/h (2 Bft) NW 318 ° 1 min 97 W/m² 11,9 °C 12,9 °C 17,7 km/h (3 Bft)
16.09.2024 16:26 23,3 °C 15,5 °C 52 % 79 % 1020,6 hPa 0,0 l/m² 14,3 km/h (3 Bft) W-NW 299 ° 1 min 90 W/m² 11,9 °C 12,0 °C 24,1 km/h (4 Bft)
16.09.2024 16:27 23,3 °C 15,5 °C 52 % 79 % 1020,6 hPa 0,0 l/m² 13,9 km/h (3 Bft) NW 313 ° 1 min 84 W/m² 11,9 °C 12,2 °C 17,7 km/h (3 Bft)
16.09.2024 16:28 23,3 °C 15,5 °C 52 % 79 % 1020,7 hPa 0,0 l/m² 5,4 km/h (2 Bft) W-NW 295 ° 1 min 79 W/m² 11,9 °C 15,5 °C 19,3 km/h (3 Bft)
16.09.2024 16:29 23,3 °C 15,5 °C 52 % 79 % 1020,6 hPa 0,0 l/m² 12,8 km/h (3 Bft) W 269 ° 1 min 72 W/m² 11,9 °C 12,5 °C 19,3 km/h (3 Bft)
16.09.2024 16:31 23,3 °C 15,5 °C 52 % 79 % 1020,7 hPa 0,0 l/m² 15,6 km/h (3 Bft) NW 317 ° 2 min 70 W/m² 11,9 °C 11,6 °C 25,7 km/h (4 Bft)
16.09.2024 16:33 23,3 °C 15,4 °C 52 % 78 % 1020,6 hPa 0,0 l/m² 14,4 km/h (3 Bft) N-NW 333 ° 2 min 86 W/m² 11,6 °C 11,9 °C 25,7 km/h (4 Bft)
16.09.2024 16:34 23,3 °C 15,5 °C 52 % 78 % 1020,6 hPa 0,0 l/m² 13,1 km/h (3 Bft) NW 304 ° 1 min 90 W/m² 11,7 °C 12,4 °C 19,3 km/h (3 Bft)
16.09.2024 16:35 23,3 °C 15,4 °C 52 % 79 % 1020,7 hPa 0,0 l/m² 6,2 km/h (2 Bft) SW 232 ° 1 min 90 W/m² 11,8 °C 15,4 °C 11,3 km/h (2 Bft)
16.09.2024 16:36 23,3 °C 15,4 °C 52 % 79 % 1020,6 hPa 0,0 l/m² 10,8 km/h (2 Bft) NW 305 ° 1 min 90 W/m² 11,8 °C 13,2 °C 17,7 km/h (3 Bft)
16.09.2024 16:37 23,3 °C 15,5 °C 52 % 79 % 1020,6 hPa 0,0 l/m² 12,7 km/h (3 Bft) NW 313 ° 1 min 93 W/m² 11,9 °C 12,6 °C 16,1 km/h (3 Bft)
16.09.2024 16:38 23,3 °C 15,5 °C 52 % 79 % 1020,6 hPa 0,0 l/m² 11,2 km/h (2 Bft) W 275 ° 1 min 91 W/m² 11,9 °C 13,2 °C 19,3 km/h (3 Bft)
16.09.2024 16:39 23,3 °C 15,5 °C 52 % 79 % 1020,6 hPa 0,0 l/m² 8,7 km/h (2 Bft) W-NW 286 ° 1 min 91 W/m² 11,9 °C 14,3 °C 19,3 km/h (3 Bft)
16.09.2024 16:40 23,3 °C 15,5 °C 52 % 79 % 1020,6 hPa 0,0 l/m² 19,0 km/h (3 Bft) NW 320 ° 1 min 93 W/m² 11,9 °C 10,6 °C 25,7 km/h (4 Bft)
16.09.2024 16:42 23,3 °C 15,5 °C 52 % 79 % 1020,7 hPa 0,0 l/m² 12,7 km/h (3 Bft) W-NW 302 ° 2 min 91 W/m² 11,9 °C 12,6 °C 22,5 km/h (4 Bft)
16.09.2024 16:43 23,3 °C 15,5 °C 52 % 79 % 1020,7 hPa 0,0 l/m² 16,4 km/h (3 Bft) NW 321 ° 1 min 90 W/m² 11,9 °C 11,4 °C 25,7 km/h (4 Bft)
16.09.2024 16:44 23,3 °C 15,5 °C 52 % 78 % 1020,7 hPa 0,0 l/m² 19,0 km/h (3 Bft) NW 314 ° 1 min 90 W/m² 11,7 °C 10,6 °C 27,4 km/h (5 Bft)
16.09.2024 16:45 23,3 °C 15,5 °C 52 % 78 % 1020,6 hPa 0,0 l/m² 16,5 km/h (3 Bft) N-NW 327 ° 1 min 90 W/m² 11,7 °C 11,3 °C 24,1 km/h (4 Bft)
16.09.2024 16:46 23,3 °C 15,5 °C 52 % 78 % 1020,8 hPa 0,0 l/m² 11,2 km/h (2 Bft) NW 315 ° 1 min 91 W/m² 11,7 °C 13,2 °C 14,5 km/h (3 Bft)
16.09.2024 16:47 23,3 °C 15,5 °C 52 % 79 % 1020,7 hPa 0,0 l/m² 8,6 km/h (2 Bft) NW 310 ° 1 min 97 W/m² 11,9 °C 14,3 °C 14,5 km/h (3 Bft)
16.09.2024 16:48 23,3 °C 15,6 °C 52 % 79 % 1020,8 hPa 0,0 l/m² 9,6 km/h (2 Bft) W-NW 292 ° 1 min 104 W/m² 12,0 °C 14,0 °C 20,9 km/h (4 Bft)
16.09.2024 16:49 23,3 °C 15,6 °C 52 % 79 % 1020,6 hPa 0,0 l/m² 12,4 km/h (2 Bft) W-NW 300 ° 1 min 107 W/m² 12,0 °C 12,8 °C 17,7 km/h (3 Bft)
16.09.2024 16:51 23,3 °C 15,6 °C 52 % 78 % 1020,6 hPa 0,0 l/m² 16,1 km/h (3 Bft) N-NW 329 ° 2 min 118 W/m² 11,8 °C 11,6 °C 27,4 km/h (5 Bft)
16.09.2024 16:53 23,3 °C 15,6 °C 52 % 79 % 1020,5 hPa 0,0 l/m² 15,5 km/h (3 Bft) W 275 ° 2 min 121 W/m² 12,0 °C 11,8 °C 24,1 km/h (4 Bft)
16.09.2024 16:54 23,3 °C 15,6 °C 52 % 78 % 1020,4 hPa 0,0 l/m² 15,1 km/h (3 Bft) NW 317 ° 1 min 125 W/m² 11,8 °C 11,9 °C 22,5 km/h (4 Bft)
16.09.2024 16:55 23,3 °C 15,6 °C 52 % 79 % 1020,5 hPa 0,0 l/m² 8,7 km/h (2 Bft) W-NW 299 ° 1 min 128 W/m² 12,0 °C 14,4 °C 24,1 km/h (4 Bft)
16.09.2024 16:56 23,3 °C 15,7 °C 52 % 79 % 1020,4 hPa 0,0 l/m² 16,3 km/h (3 Bft) W-NW 288 ° 1 min 127 W/m² 12,1 °C 11,6 °C 25,7 km/h (4 Bft)
16.09.2024 16:57 23,3 °C 15,6 °C 52 % 78 % 1020,4 hPa 0,0 l/m² 12,7 km/h (3 Bft) W-NW 294 ° 1 min 125 W/m² 11,8 °C 12,7 °C 17,7 km/h (3 Bft)
16.09.2024 16:58 23,3 °C 15,7 °C 52 % 79 % 1020,3 hPa 0,0 l/m² 13,4 km/h (3 Bft) NW 320 ° 1 min 123 W/m² 12,1 °C 12,6 °C 22,5 km/h (4 Bft)
16.09.2024 16:59 23,3 °C 15,7 °C 52 % 79 % 1020,4 hPa 0,0 l/m² 16,0 km/h (3 Bft) W-SW 242 ° 1 min 118 W/m² 12,1 °C 11,7 °C 25,7 km/h (4 Bft)
16.09.2024 17:01 23,3 °C 15,7 °C 52 % 79 % 1020,5 hPa 0,0 l/m² 12,7 km/h (3 Bft) N-NW 336 ° 2 min 113 W/m² 12,1 °C 12,8 °C 24,1 km/h (4 Bft)
16.09.2024 17:03 23,3 °C 15,7 °C 52 % 79 % 1020,6 hPa 0,0 l/m² 10,7 km/h (2 Bft) N-NW 340 ° 2 min 109 W/m² 12,1 °C 13,6 °C 17,7 km/h (3 Bft)
16.09.2024 17:04 23,2 °C 15,7 °C 52 % 79 % 1020,6 hPa 0,0 l/m² 5,7 km/h (2 Bft) N 5 ° 1 min 102 W/m² 12,1 °C 15,7 °C 12,9 km/h (3 Bft)
16.09.2024 17:05 23,2 °C 15,7 °C 52 % 79 % 1020,6 hPa 0,0 l/m² 8,9 km/h (2 Bft) NW 308 ° 1 min 95 W/m² 12,1 °C 14,4 °C 14,5 km/h (3 Bft)
16.09.2024 17:06 23,2 °C 15,7 °C 52 % 79 % 1020,6 hPa 0,0 l/m² 15,8 km/h (3 Bft) NW 319 ° 1 min 90 W/m² 12,1 °C 11,8 °C 25,7 km/h (4 Bft)
16.09.2024 17:07 23,2 °C 15,7 °C 52 % 79 % 1020,7 hPa 0,0 l/m² 14,4 km/h (3 Bft) W 273 ° 1 min 93 W/m² 12,1 °C 12,2 °C 24,1 km/h (4 Bft)
16.09.2024 17:08 23,2 °C 15,7 °C 51 % 79 % 1020,6 hPa 0,0 l/m² 12,7 km/h (3 Bft) N-NW 341 ° 1 min 90 W/m² 12,1 °C 12,8 °C 20,9 km/h (4 Bft)
16.09.2024 17:09 23,2 °C 15,7 °C 51 % 79 % 1020,7 hPa 0,0 l/m² 17,2 km/h (3 Bft) NW 325 ° 1 min 86 W/m² 12,1 °C 11,4 °C 27,4 km/h (5 Bft)
16.09.2024 17:11 23,2 °C 15,7 °C 51 % 78 % 1020,7 hPa 0,0 l/m² 15,2 km/h (3 Bft) NW 311 ° 2 min 84 W/m² 11,9 °C 12,0 °C 27,4 km/h (5 Bft)
16.09.2024 17:13 23,2 °C 15,7 °C 51 % 79 % 1020,8 hPa 0,0 l/m² 10,3 km/h (2 Bft) NW 321 ° 2 min 79 W/m² 12,1 °C 13,8 °C 22,5 km/h (4 Bft)
16.09.2024 17:14 23,2 °C 15,7 °C 51 % 79 % 1020,8 hPa 0,0 l/m² 17,2 km/h (3 Bft) N-NW 327 ° 1 min 77 W/m² 12,1 °C 11,4 °C 29,0 km/h (5 Bft)
16.09.2024 17:15 23,2 °C 15,7 °C 51 % 79 % 1020,8 hPa 0,0 l/m² 14,0 km/h (3 Bft) W-NW 292 ° 1 min 76 W/m² 12,1 °C 12,4 °C 19,3 km/h (3 Bft)
16.09.2024 17:16 23,1 °C 15,7 °C 51 % 79 % 1020,7 hPa 0,0 l/m² 9,3 km/h (2 Bft) W 269 ° 1 min 72 W/m² 12,1 °C 14,2 °C 20,9 km/h (4 Bft)
16.09.2024 17:17 23,2 °C 15,7 °C 51 % 79 % 1020,7 hPa 0,0 l/m² 12,7 km/h (3 Bft) NW 323 ° 1 min 67 W/m² 12,1 °C 12,8 °C 22,5 km/h (4 Bft)
16.09.2024 17:18 23,1 °C 15,7 °C 51 % 79 % 1020,8 hPa 0,0 l/m² 10,3 km/h (2 Bft) N 5 ° 1 min 65 W/m² 12,1 °C 13,8 °C 22,5 km/h (4 Bft)
16.09.2024 17:19 23,2 °C 15,6 °C 51 % 79 % 1020,7 hPa 0,0 l/m² 14,4 km/h (3 Bft) NW 319 ° 1 min 65 W/m² 12,0 °C 12,1 °C 27,4 km/h (5 Bft)
16.09.2024 17:21 23,1 °C 15,6 °C 51 % 79 % 1020,7 hPa 0,0 l/m² 14,7 km/h (3 Bft) NW 306 ° 2 min 63 W/m² 12,0 °C 12,0 °C 25,7 km/h (4 Bft)
16.09.2024 17:22 23,1 °C 15,6 °C 51 % 79 % 1020,8 hPa 0,0 l/m² 9,7 km/h (2 Bft) W-SW 252 ° 1 min 63 W/m² 12,0 °C 13,9 °C 19,3 km/h (3 Bft)
16.09.2024 17:23 23,1 °C 15,6 °C 51 % 79 % 1020,8 hPa 0,0 l/m² 13,4 km/h (3 Bft) NW 311 ° 1 min 63 W/m² 12,0 °C 12,5 °C 22,5 km/h (4 Bft)
16.09.2024 17:24 23,1 °C 15,6 °C 51 % 79 % 1020,8 hPa 0,0 l/m² 9,1 km/h (2 Bft) W-NW 296 ° 1 min 65 W/m² 12,0 °C 14,2 °C 14,5 km/h (3 Bft)
16.09.2024 17:25 23,1 °C 15,6 °C 51 % 80 % 1021,0 hPa 0,0 l/m² 15,8 km/h (3 Bft) NW 306 ° 1 min 67 W/m² 12,2 °C 11,7 °C 27,4 km/h (5 Bft)
16.09.2024 17:26 23,1 °C 15,6 °C 51 % 80 % 1020,9 hPa 0,0 l/m² 12,1 km/h (2 Bft) N-NW 331 ° 1 min 67 W/m² 12,2 °C 12,9 °C 19,3 km/h (3 Bft)
16.09.2024 17:27 23,1 °C 15,6 °C 51 % 80 % 1020,9 hPa 0,0 l/m² 10,8 km/h (2 Bft) N-NW 342 ° 1 min 65 W/m² 12,2 °C 13,4 °C 19,3 km/h (3 Bft)
16.09.2024 17:28 23,1 °C 15,6 °C 51 % 80 % 1020,9 hPa 0,0 l/m² 14,3 km/h (3 Bft) W-NW 284 ° 1 min 67 W/m² 12,2 °C 12,1 °C 22,5 km/h (4 Bft)
16.09.2024 17:29 23,1 °C 15,6 °C 51 % 80 % 1020,9 hPa 0,0 l/m² 10,4 km/h (2 Bft) W-NW 286 ° 1 min 69 W/m² 12,2 °C 13,6 °C 19,3 km/h (3 Bft)
16.09.2024 17:31 23,1 °C 15,6 °C 51 % 80 % 1020,8 hPa 0,0 l/m² 11,7 km/h (2 Bft) W-NW 285 ° 2 min 72 W/m² 12,2 °C 13,1 °C 24,1 km/h (4 Bft)
16.09.2024 17:33 23,1 °C 15,6 °C 51 % 80 % 1021,0 hPa 0,0 l/m² 10,2 km/h (2 Bft) NW 316 ° 2 min 70 W/m² 12,2 °C 13,7 °C 20,9 km/h (4 Bft)
16.09.2024 17:34 23,1 °C 15,6 °C 51 % 80 % 1021,0 hPa 0,0 l/m² 11,9 km/h (2 Bft) NW 306 ° 1 min 72 W/m² 12,2 °C 13,0 °C 19,3 km/h (3 Bft)
16.09.2024 17:35 23,1 °C 15,6 °C 51 % 80 % 1021,0 hPa 0,0 l/m² 10,6 km/h (2 Bft) W-NW 299 ° 1 min 74 W/m² 12,2 °C 13,5 °C 14,5 km/h (3 Bft)
16.09.2024 17:36 23,1 °C 15,6 °C 51 % 80 % 1021,0 hPa 0,0 l/m² 8,7 km/h (2 Bft) N-NW 333 ° 1 min 74 W/m² 12,2 °C 14,4 °C 14,5 km/h (3 Bft)
16.09.2024 17:37 23,1 °C 15,6 °C 51 % 80 % 1021,0 hPa 0,0 l/m² 6,5 km/h (2 Bft) N-NW 334 ° 1 min 69 W/m² 12,2 °C 15,6 °C 14,5 km/h (3 Bft)
16.09.2024 17:38 23,1 °C 15,6 °C 52 % 80 % 1021,0 hPa 0,0 l/m² 7,8 km/h (2 Bft) NW 325 ° 1 min 67 W/m² 12,2 °C 14,8 °C 14,5 km/h (3 Bft)
16.09.2024 17:39 23,1 °C 15,7 °C 52 % 80 % 1021,0 hPa 0,0 l/m² 12,8 km/h (3 Bft) W-NW 296 ° 1 min 63 W/m² 12,3 °C 12,8 °C 19,3 km/h (3 Bft)
16.09.2024 17:41 23,2 °C 15,7 °C 52 % 80 % 1021,1 hPa 0,0 l/m² 12,4 km/h (2 Bft) NW 305 ° 2 min 56 W/m² 12,3 °C 12,9 °C 20,9 km/h (4 Bft)
16.09.2024 17:43 23,1 °C 15,6 °C 52 % 80 % 1021,1 hPa 0,0 l/m² 11,3 km/h (2 Bft) W-NW 296 ° 2 min 54 W/m² 12,2 °C 13,2 °C 24,1 km/h (4 Bft)
16.09.2024 17:44 23,1 °C 15,6 °C 52 % 79 % 1021,1 hPa 0,0 l/m² 11,7 km/h (2 Bft) NW 306 ° 1 min 54 W/m² 12,0 °C 13,1 °C 19,3 km/h (3 Bft)
16.09.2024 17:45 23,1 °C 15,7 °C 52 % 79 % 1021,1 hPa 0,0 l/m² 14,3 km/h (3 Bft) NW 325 ° 1 min 56 W/m² 12,1 °C 12,3 °C 19,3 km/h (3 Bft)
16.09.2024 17:46 23,1 °C 15,6 °C 52 % 79 % 1021,5 hPa 0,0 l/m² 7,2 km/h (2 Bft) NW 309 ° 1 min 58 W/m² 12,0 °C 15,2 °C 16,1 km/h (3 Bft)
16.09.2024 17:47 23,1 °C 15,6 °C 52 % 79 % 1021,1 hPa 0,0 l/m² 8,9 km/h (2 Bft) N-NW 327 ° 1 min 56 W/m² 12,0 °C 14,3 °C 16,1 km/h (3 Bft)
16.09.2024 17:48 23,1 °C 15,7 °C 52 % 79 % 1021,1 hPa 0,0 l/m² 13,3 km/h (3 Bft) N-NW 337 ° 1 min 58 W/m² 12,1 °C 12,6 °C 20,9 km/h (4 Bft)
16.09.2024 17:49 23,1 °C 15,6 °C 52 % 79 % 1021,1 hPa 0,0 l/m² 8,6 km/h (2 Bft) N-NW 344 ° 1 min 60 W/m² 12,0 °C 14,4 °C 16,1 km/h (3 Bft)
16.09.2024 17:51 23,2 °C 15,7 °C 52 % 79 % 1021,1 hPa 0,0 l/m² 9,5 km/h (2 Bft) NW 317 ° 2 min 58 W/m² 12,1 °C 14,1 °C 22,5 km/h (4 Bft)
16.09.2024 17:53 23,1 °C 15,7 °C 51 % 79 % 1021,1 hPa 0,0 l/m² 9,5 km/h (2 Bft) W-NW 289 ° 2 min 56 W/m² 12,1 °C 14,1 °C 17,7 km/h (3 Bft)
16.09.2024 17:54 23,1 °C 15,7 °C 51 % 79 % 1021,0 hPa 0,0 l/m² 11,9 km/h (2 Bft) W-NW 299 ° 1 min 56 W/m² 12,1 °C 13,1 °C 20,9 km/h (4 Bft)
16.09.2024 17:55 23,1 °C 15,7 °C 51 % 79 % 1021,1 hPa 0,0 l/m² 10,1 km/h (2 Bft) W-NW 290 ° 1 min 56 W/m² 12,1 °C 13,8 °C 20,9 km/h (4 Bft)
16.09.2024 17:56 23,1 °C 15,7 °C 52 % 79 % 1021,1 hPa 0,0 l/m² 8,6 km/h (2 Bft) W-NW 296 ° 1 min 54 W/m² 12,1 °C 14,5 °C 17,7 km/h (3 Bft)
16.09.2024 17:57 23,1 °C 15,7 °C 51 % 79 % 1021,1 hPa 0,0 l/m² 3,2 km/h (1 Bft) W 281 ° 1 min 53 W/m² 12,1 °C 15,7 °C 6,4 km/h (2 Bft)
16.09.2024 17:58 23,2 °C 15,7 °C 52 % 79 % 1021,2 hPa 0,0 l/m² 7,0 km/h (2 Bft) N-NW 333 ° 1 min 53 W/m² 12,1 °C 15,4 °C 12,9 km/h (3 Bft)
16.09.2024 17:59 23,1 °C 15,7 °C 52 % 79 % 1021,0 hPa 0,0 l/m² 7,6 km/h (2 Bft) NW 324 ° 1 min 53 W/m² 12,1 °C 15,0 °C 14,5 km/h (3 Bft)
16.09.2024 18:01 23,1 °C 15,7 °C 52 % 79 % 1021,1 hPa 0,0 l/m² 6,1 km/h (2 Bft) W 275 ° 0 min 51 W/m² 12,1 °C 15,7 °C 12,9 km/h (3 Bft)
16.09.2024 18:03 23,1 °C 15,7 °C 52 % 79 % 1021,1 hPa 0,0 l/m² 7,7 km/h (2 Bft) NW 314 ° 0 min 47 W/m² 12,1 °C 15,0 °C 16,1 km/h (3 Bft)
16.09.2024 18:04 23,2 °C 15,7 °C 52 % 79 % 1021,1 hPa 0,0 l/m² 6,7 km/h (2 Bft) W-NW 290 ° 0 min 46 W/m² 12,1 °C 15,5 °C 11,3 km/h (2 Bft)
16.09.2024 18:05 23,2 °C 15,7 °C 52 % 79 % 1021,2 hPa 0,0 l/m² 11,3 km/h (2 Bft) W-NW 301 ° 0 min 42 W/m² 12,1 °C 13,3 °C 19,3 km/h (3 Bft)
16.09.2024 18:06 23,1 °C 15,7 °C 52 % 79 % 1021,2 hPa 0,0 l/m² 10,1 km/h (2 Bft) W 274 ° 0 min 40 W/m² 12,1 °C 13,8 °C 17,7 km/h (3 Bft)
16.09.2024 18:07 23,1 °C 15,7 °C 52 % 79 % 1021,3 hPa 0,0 l/m² 10,3 km/h (2 Bft) NW 314 ° 0 min 39 W/m² 12,1 °C 13,8 °C 16,1 km/h (3 Bft)
16.09.2024 18:08 23,2 °C 15,7 °C 52 % 79 % 1021,3 hPa 0,0 l/m² 9,8 km/h (2 Bft) NW 325 ° 0 min 39 W/m² 12,1 °C 14,0 °C 17,7 km/h (3 Bft)
16.09.2024 18:09 23,1 °C 15,7 °C 52 % 79 % 1021,3 hPa 0,0 l/m² 7,4 km/h (2 Bft) W-NW 302 ° 0 min 37 W/m² 12,1 °C 15,2 °C 12,9 km/h (3 Bft)
16.09.2024 18:11 23,1 °C 15,7 °C 52 % 79 % 1021,3 hPa 0,0 l/m² 7,5 km/h (2 Bft) N-NW 328 ° 0 min 37 W/m² 12,1 °C 15,1 °C 16,1 km/h (3 Bft)
16.09.2024 18:12 23,1 °C 15,7 °C 52 % 79 % 1021,3 hPa 0,0 l/m² 5,5 km/h (2 Bft) NW 310 ° 0 min 37 W/m² 12,1 °C 15,7 °C 11,3 km/h (2 Bft)
16.09.2024 18:13 23,2 °C 15,7 °C 52 % 79 % 1021,3 hPa 0,0 l/m² 13,1 km/h (3 Bft) NW 315 ° 0 min 37 W/m² 12,1 °C 12,7 °C 20,9 km/h (4 Bft)
16.09.2024 18:14 23,2 °C 15,7 °C 52 % 79 % 1021,3 hPa 0,0 l/m² 8,7 km/h (2 Bft) NW 325 ° 0 min 37 W/m² 12,1 °C 14,5 °C 17,7 km/h (3 Bft)
16.09.2024 18:15 23,2 °C 15,7 °C 52 % 79 % 1021,4 hPa 0,0 l/m² 5,4 km/h (2 Bft) W-NW 289 ° 0 min 35 W/m² 12,1 °C 15,7 °C 11,3 km/h (2 Bft)
16.09.2024 18:16 23,1 °C 15,7 °C 52 % 79 % 1021,3 hPa 0,0 l/m² 6,9 km/h (2 Bft) NW 319 ° 0 min 35 W/m² 12,1 °C 15,4 °C 16,1 km/h (3 Bft)
16.09.2024 18:17 23,1 °C 15,7 °C 52 % 79 % 1021,2 hPa 0,0 l/m² 11,1 km/h (2 Bft) W-NW 295 ° 0 min 35 W/m² 12,1 °C 13,4 °C 16,1 km/h (3 Bft)
16.09.2024 18:18 23,1 °C 15,7 °C 52 % 79 % 1021,3 hPa 0,0 l/m² 5,2 km/h (1 Bft) NW 312 ° 0 min 35 W/m² 12,1 °C 15,7 °C 11,3 km/h (2 Bft)
16.09.2024 18:19 23,1 °C 15,7 °C 52 % 79 % 1021,3 hPa 0,0 l/m² 3,6 km/h (1 Bft) W-NW 294 ° 0 min 33 W/m² 12,1 °C 15,7 °C 6,4 km/h (2 Bft)
16.09.2024 18:20 23,1 °C 15,7 °C 52 % 79 % 1021,3 hPa 0,0 l/m² 2,0 km/h (1 Bft) W-NW 294 ° 0 min 33 W/m² 12,1 °C 15,7 °C 4,8 km/h (1 Bft)
16.09.2024 18:21 23,2 °C 15,7 °C 52 % 79 % 1021,3 hPa 0,0 l/m² 5,3 km/h (1 Bft) NW 311 ° 0 min 33 W/m² 12,1 °C 15,7 °C 17,7 km/h (3 Bft)
16.09.2024 18:22 23,2 °C 15,7 °C 52 % 79 % 1021,2 hPa 0,0 l/m² 5,8 km/h (2 Bft) W-NW 282 ° 0 min 33 W/m² 12,1 °C 15,7 °C 16,1 km/h (3 Bft)
16.09.2024 18:23 23,2 °C 15,7 °C 52 % 79 % 1021,3 hPa 0,0 l/m² 4,8 km/h (1 Bft) W-NW 296 ° 0 min 33 W/m² 12,1 °C 15,7 °C 12,9 km/h (3 Bft)
16.09.2024 18:24 23,2 °C 15,7 °C 52 % 79 % 1021,3 hPa 0,0 l/m² 2,6 km/h (1 Bft) W-NW 290 ° 0 min 33 W/m² 12,1 °C 15,7 °C 9,7 km/h (2 Bft)
16.09.2024 18:25 23,2 °C 15,7 °C 52 % 79 % 1021,3 hPa 0,0 l/m² 7,0 km/h (2 Bft) N 350 ° 0 min 33 W/m² 12,1 °C 15,4 °C 14,5 km/h (3 Bft)
16.09.2024 18:26 23,1 °C 15,7 °C 52 % 79 % 1021,4 hPa 0,0 l/m² 9,1 km/h (2 Bft) W-NW 297 ° 0 min 33 W/m² 12,1 °C 14,3 °C 14,5 km/h (3 Bft)
16.09.2024 18:27 23,2 °C 15,7 °C 52 % 79 % 1021,4 hPa 0,0 l/m² 10,0 km/h (2 Bft) NW 309 ° 0 min 32 W/m² 12,1 °C 13,9 °C 16,1 km/h (3 Bft)
16.09.2024 18:28 23,2 °C 15,7 °C 52 % 79 % 1021,3 hPa 0,0 l/m² 9,2 km/h (2 Bft) W 272 ° 0 min 32 W/m² 12,1 °C 14,3 °C 17,7 km/h (3 Bft)
16.09.2024 18:29 23,2 °C 15,7 °C 52 % 79 % 1021,3 hPa 0,0 l/m² 8,8 km/h (2 Bft) NW 318 ° 0 min 30 W/m² 12,1 °C 14,4 °C 14,5 km/h (3 Bft)
16.09.2024 18:30 23,1 °C 15,7 °C 52 % 79 % 1021,4 hPa 0,0 l/m² 8,9 km/h (2 Bft) NW 308 ° 0 min 30 W/m² 12,1 °C 14,4 °C 16,1 km/h (3 Bft)
16.09.2024 18:31 23,1 °C 15,7 °C 52 % 79 % 1021,4 hPa 0,0 l/m² 2,8 km/h (1 Bft) NW 304 ° 0 min 30 W/m² 12,1 °C 15,7 °C 6,4 km/h (2 Bft)
16.09.2024 18:32 23,2 °C 15,7 °C 52 % 79 % 1021,5 hPa 0,0 l/m² 6,3 km/h (2 Bft) W-NW 301 ° 0 min 28 W/m² 12,1 °C 15,7 °C 12,9 km/h (3 Bft)
16.09.2024 18:33 23,2 °C 15,7 °C 52 % 79 % 1021,5 hPa 0,0 l/m² 5,8 km/h (2 Bft) NW 309 ° 0 min 28 W/m² 12,1 °C 15,7 °C 11,3 km/h (2 Bft)
16.09.2024 18:34 23,1 °C 15,7 °C 52 % 79 % 1021,5 hPa 0,0 l/m² 8,2 km/h (2 Bft) NW 326 ° 0 min 28 W/m² 12,1 °C 14,7 °C 14,5 km/h (3 Bft)
16.09.2024 18:35 23,1 °C 15,7 °C 52 % 79 % 1021,4 hPa 0,0 l/m² 7,9 km/h (2 Bft) W 272 ° 0 min 26 W/m² 12,1 °C 14,9 °C 12,9 km/h (3 Bft)
16.09.2024 18:36 23,1 °C 15,7 °C 52 % 79 % 1021,5 hPa 0,0 l/m² 9,1 km/h (2 Bft) NW 323 ° 0 min 26 W/m² 12,1 °C 14,3 °C 17,7 km/h (3 Bft)
16.09.2024 18:37 23,2 °C 15,7 °C 52 % 79 % 1021,5 hPa 0,0 l/m² 12,1 km/h (2 Bft) W-NW 296 ° 0 min 25 W/m² 12,1 °C 13,0 °C 22,5 km/h (4 Bft)
16.09.2024 18:38 23,2 °C 15,7 °C 52 % 79 % 1021,5 hPa 0,0 l/m² 5,5 km/h (2 Bft) NW 311 ° 0 min 25 W/m² 12,1 °C 15,7 °C 12,9 km/h (3 Bft)
16.09.2024 18:39 23,1 °C 15,7 °C 52 % 79 % 1021,5 hPa 0,0 l/m² 5,6 km/h (2 Bft) NW 316 ° 0 min 23 W/m² 12,1 °C 15,7 °C 12,9 km/h (3 Bft)
16.09.2024 18:40 23,2 °C 15,7 °C 52 % 79 % 1021,5 hPa 0,0 l/m² 4,8 km/h (1 Bft) NW 315 ° 0 min 23 W/m² 12,1 °C 15,7 °C 9,7 km/h (2 Bft)
16.09.2024 18:42 23,1 °C 15,7 °C 52 % 79 % 1021,5 hPa 0,0 l/m² 7,3 km/h (2 Bft) W 279 ° 0 min 21 W/m² 12,1 °C 15,2 °C 14,5 km/h (3 Bft)
16.09.2024 18:43 23,1 °C 15,7 °C 52 % 79 % 1021,5 hPa 0,0 l/m² 8,8 km/h (2 Bft) NW 313 ° 0 min 21 W/m² 12,1 °C 14,4 °C 14,5 km/h (3 Bft)
16.09.2024 18:45 23,1 °C 15,7 °C 52 % 79 % 1021,6 hPa 0,0 l/m² 6,8 km/h (2 Bft) NW 304 ° 0 min 19 W/m² 12,1 °C 15,5 °C 16,1 km/h (3 Bft)
16.09.2024 18:46 23,1 °C 15,7 °C 52 % 79 % 1021,6 hPa 0,0 l/m² 7,7 km/h (2 Bft) N-NW 336 ° 0 min 19 W/m² 12,1 °C 15,0 °C 14,5 km/h (3 Bft)
16.09.2024 18:47 23,1 °C 15,7 °C 52 % 79 % 1021,6 hPa 0,0 l/m² 5,2 km/h (1 Bft) NW 306 ° 0 min 18 W/m² 12,1 °C 15,7 °C 9,7 km/h (2 Bft)
16.09.2024 18:48 23,1 °C 15,7 °C 52 % 79 % 1021,6 hPa 0,0 l/m² 5,2 km/h (1 Bft) W-NW 286 ° 0 min 16 W/m² 12,1 °C 15,7 °C 17,7 km/h (3 Bft)
16.09.2024 18:49 23,1 °C 15,7 °C 52 % 79 % 1021,6 hPa 0,0 l/m² 7,2 km/h (2 Bft) W 281 ° 0 min 16 W/m² 12,1 °C 15,3 °C 12,9 km/h (3 Bft)
16.09.2024 18:50 23,1 °C 15,7 °C 52 % 79 % 1021,7 hPa 0,0 l/m² 9,4 km/h (2 Bft) W 281 ° 0 min 16 W/m² 12,1 °C 14,2 °C 16,1 km/h (3 Bft)
16.09.2024 18:51 23,1 °C 15,7 °C 52 % 79 % 1021,7 hPa 0,0 l/m² 7,1 km/h (2 Bft) NW 312 ° 0 min 14 W/m² 12,1 °C 15,3 °C 12,9 km/h (3 Bft)
16.09.2024 18:52 23,1 °C 15,7 °C 52 % 79 % 1021,7 hPa 0,0 l/m² 8,5 km/h (2 Bft) W 272 ° 0 min 14 W/m² 12,1 °C 14,6 °C 12,9 km/h (3 Bft)
16.09.2024 18:53 23,1 °C 15,7 °C 52 % 79 % 1021,7 hPa 0,0 l/m² 8,3 km/h (2 Bft) NW 319 ° 0 min 14 W/m² 12,1 °C 14,7 °C 12,9 km/h (3 Bft)
16.09.2024 18:54 23,1 °C 15,7 °C 52 % 79 % 1021,9 hPa 0,0 l/m² 5,0 km/h (1 Bft) W-NW 296 ° 0 min 12 W/m² 12,1 °C 15,7 °C 9,7 km/h (2 Bft)
16.09.2024 18:55 23,1 °C 15,7 °C 52 % 79 % 1021,8 hPa 0,0 l/m² 3,8 km/h (1 Bft) W 274 ° 0 min 12 W/m² 12,1 °C 15,7 °C 8,0 km/h (2 Bft)
16.09.2024 18:56 23,1 °C 15,7 °C 52 % 79 % 1021,8 hPa 0,0 l/m² 7,3 km/h (2 Bft) W-NW 297 ° 0 min 12 W/m² 12,1 °C 15,2 °C 12,9 km/h (3 Bft)
16.09.2024 18:57 23,1 °C 15,7 °C 52 % 79 % 1021,9 hPa 0,0 l/m² 7,5 km/h (2 Bft) W-NW 294 ° 0 min 11 W/m² 12,1 °C 15,1 °C 12,9 km/h (3 Bft)
16.09.2024 18:58 23,1 °C 15,7 °C 52 % 79 % 1021,9 hPa 0,0 l/m² 6,0 km/h (2 Bft) NW 306 ° 0 min 11 W/m² 12,1 °C 15,7 °C 12,9 km/h (3 Bft)
16.09.2024 18:59 23,1 °C 15,7 °C 52 % 79 % 1021,9 hPa 0,0 l/m² 6,1 km/h (2 Bft) W 277 ° 0 min 11 W/m² 12,1 °C 15,7 °C 12,9 km/h (3 Bft)
16.09.2024 19:00 23,1 °C 15,7 °C 52 % 79 % 1021,9 hPa 0,0 l/m² 5,1 km/h (1 Bft) W-NW 303 ° 0 min 9 W/m² 12,1 °C 15,7 °C 8,0 km/h (2 Bft)
16.09.2024 19:01 23,1 °C 15,7 °C 52 % 79 % 1021,9 hPa 0,0 l/m² 4,6 km/h (1 Bft) W-NW 290 ° 0 min 9 W/m² 12,1 °C 15,7 °C 12,9 km/h (3 Bft)
16.09.2024 19:02 23,1 °C 15,7 °C 53 % 79 % 1021,9 hPa 0,0 l/m² 10,4 km/h (2 Bft) NW 315 ° 0 min 9 W/m² 12,1 °C 13,7 °C 16,1 km/h (3 Bft)
16.09.2024 19:03 23,1 °C 15,7 °C 53 % 79 % 1021,9 hPa 0,0 l/m² 7,4 km/h (2 Bft) W-NW 288 ° 0 min 9 W/m² 12,1 °C 15,2 °C 14,5 km/h (3 Bft)
16.09.2024 19:04 23,1 °C 15,7 °C 53 % 79 % 1021,9 hPa 0,0 l/m² 1,8 km/h (1 Bft) W-NW 289 ° 0 min 7 W/m² 12,1 °C 15,7 °C 3,2 km/h (1 Bft)
16.09.2024 19:05 23,1 °C 15,7 °C 53 % 79 % 1022,0 hPa 0,0 l/m² 6,9 km/h (2 Bft) NW 304 ° 0 min 7 W/m² 12,1 °C 15,4 °C 14,5 km/h (3 Bft)
16.09.2024 19:06 23,1 °C 15,7 °C 53 % 80 % 1021,9 hPa 0,0 l/m² 9,3 km/h (2 Bft) N-NW 327 ° 0 min 7 W/m² 12,3 °C 14,2 °C 12,9 km/h (3 Bft)
16.09.2024 19:07 23,1 °C 15,7 °C 53 % 79 % 1022,0 hPa 0,0 l/m² 4,8 km/h (1 Bft) W-NW 290 ° 0 min 7 W/m² 12,1 °C 15,7 °C 6,4 km/h (2 Bft)
16.09.2024 19:08 23,1 °C 15,7 °C 53 % 79 % 1021,9 hPa 0,0 l/m² 13,6 km/h (3 Bft) NW 324 ° 0 min 5 W/m² 12,1 °C 12,5 °C 19,3 km/h (3 Bft)
16.09.2024 19:09 23,1 °C 15,7 °C 53 % 79 % 1021,9 hPa 0,0 l/m² 8,4 km/h (2 Bft) NW 313 ° 0 min 5 W/m² 12,1 °C 14,6 °C 14,5 km/h (3 Bft)
16.09.2024 19:10 23,1 °C 15,7 °C 53 % 79 % 1021,9 hPa 0,0 l/m² 5,6 km/h (2 Bft) W-NW 298 ° 0 min 5 W/m² 12,1 °C 15,7 °C 9,7 km/h (2 Bft)
16.09.2024 19:12 23,1 °C 15,7 °C 53 % 79 % 1022,0 hPa 0,0 l/m² 6,4 km/h (2 Bft) W-NW 294 ° 0 min 5 W/m² 12,1 °C 15,7 °C 12,9 km/h (3 Bft)
16.09.2024 19:13 23,1 °C 15,7 °C 53 % 79 % 1022,0 hPa 0,0 l/m² 2,1 km/h (1 Bft) W-NW 296 ° 0 min 5 W/m² 12,1 °C 15,7 °C 6,4 km/h (2 Bft)
16.09.2024 19:14 23,1 °C 15,7 °C 53 % 79 % 1022,0 hPa 0,0 l/m² 3,5 km/h (1 Bft) W-NW 282 ° 0 min 5 W/m² 12,1 °C 15,7 °C 9,7 km/h (2 Bft)
16.09.2024 19:15 23,1 °C 15,7 °C 53 % 79 % 1021,9 hPa 0,0 l/m² 3,8 km/h (1 Bft) NW 319 ° 0 min 5 W/m² 12,1 °C 15,7 °C 8,0 km/h (2 Bft)
16.09.2024 19:16 23,1 °C 15,7 °C 53 % 80 % 1021,9 hPa 0,0 l/m² 1,9 km/h (1 Bft) NW 319 ° 0 min 0 W/m² 12,3 °C 15,7 °C 4,8 km/h (1 Bft)
16.09.2024 19:17 23,1 °C 15,7 °C 53 % 80 % 1021,9 hPa 0,0 l/m² 4,3 km/h (1 Bft) N-NW 337 ° 0 min 0 W/m² 12,3 °C 15,7 °C 8,0 km/h (2 Bft)
16.09.2024 19:18 23,1 °C 15,7 °C 53 % 80 % 1021,9 hPa 0,0 l/m² 7,8 km/h (2 Bft) NW 311 ° 0 min 0 W/m² 12,3 °C 14,9 °C 12,9 km/h (3 Bft)
16.09.2024 19:19 23,1 °C 15,6 °C 53 % 80 % 1021,9 hPa 0,0 l/m² 4,8 km/h (1 Bft) W-NW 292 ° 0 min 0 W/m² 12,2 °C 15,6 °C 11,3 km/h (2 Bft)
16.09.2024 19:20 23,1 °C 15,6 °C 53 % 80 % 1021,8 hPa 0,0 l/m² 4,1 km/h (1 Bft) NW 308 ° 0 min 0 W/m² 12,2 °C 15,6 °C 8,0 km/h (2 Bft)
16.09.2024 19:21 23,1 °C 15,6 °C 53 % 80 % 1021,9 hPa 0,0 l/m² 3,8 km/h (1 Bft) NW 305 ° 0 min 0 W/m² 12,2 °C 15,6 °C 6,4 km/h (2 Bft)
16.09.2024 19:22 23,1 °C 15,6 °C 53 % 80 % 1021,9 hPa 0,0 l/m² 6,3 km/h (2 Bft) W 275 ° 0 min 0 W/m² 12,2 °C 15,6 °C 12,9 km/h (3 Bft)
16.09.2024 19:23 23,1 °C 15,6 °C 53 % 80 % 1022,0 hPa 0,0 l/m² 4,2 km/h (1 Bft) NW 315 ° 0 min 0 W/m² 12,2 °C 15,6 °C 12,9 km/h (3 Bft)
16.09.2024 19:24 23,1 °C 15,6 °C 53 % 80 % 1021,9 hPa 0,0 l/m² 1,7 km/h (1 Bft) W-NW 302 ° 0 min 0 W/m² 12,2 °C 15,6 °C 4,8 km/h (1 Bft)
16.09.2024 19:25 23,1 °C 15,6 °C 53 % 80 % 1021,9 hPa 0,0 l/m² 1,4 km/h (1 Bft) W-NW 293 ° 0 min 0 W/m² 12,2 °C 15,6 °C 6,4 km/h (2 Bft)
16.09.2024 19:26 23,1 °C 15,6 °C 53 % 80 % 1021,9 hPa 0,0 l/m² 4,6 km/h (1 Bft) W-NW 292 ° 0 min 0 W/m² 12,2 °C 15,6 °C 8,0 km/h (2 Bft)
16.09.2024 19:27 23,1 °C 15,6 °C 53 % 80 % 1021,9 hPa 0,0 l/m² 8,5 km/h (2 Bft) NW 315 ° 0 min 0 W/m² 12,2 °C 14,5 °C 16,1 km/h (3 Bft)
16.09.2024 19:28 23,1 °C 15,6 °C 53 % 80 % 1021,9 hPa 0,0 l/m² 10,5 km/h (2 Bft) W-NW 296 ° 0 min 0 W/m² 12,2 °C 13,6 °C 16,1 km/h (3 Bft)
16.09.2024 19:29 23,1 °C 15,6 °C 53 % 80 % 1021,9 hPa 0,0 l/m² 5,3 km/h (1 Bft) NW 310 ° 0 min 0 W/m² 12,2 °C 15,6 °C 9,7 km/h (2 Bft)
16.09.2024 19:30 23,1 °C 15,6 °C 53 % 80 % 1022,0 hPa 0,0 l/m² 4,1 km/h (1 Bft) W 281 ° 0 min 0 W/m² 12,2 °C 15,6 °C 8,0 km/h (2 Bft)
16.09.2024 19:31 23,1 °C 15,6 °C 53 % 80 % 1022,0 hPa 0,0 l/m² 4,8 km/h (1 Bft) N-NW 327 ° 0 min 0 W/m² 12,2 °C 15,6 °C 6,4 km/h (2 Bft)
16.09.2024 19:32 23,1 °C 15,6 °C 53 % 80 % 1022,0 hPa 0,0 l/m² 4,0 km/h (1 Bft) N-NW 333 ° 0 min 0 W/m² 12,2 °C 15,6 °C 8,0 km/h (2 Bft)
16.09.2024 19:33 23,1 °C 15,6 °C 53 % 80 % 1022,0 hPa 0,0 l/m² 1,4 km/h (1 Bft) N-NW 335 ° 0 min 0 W/m² 12,2 °C 15,6 °C 4,8 km/h (1 Bft)
16.09.2024 19:34 23,1 °C 15,6 °C 53 % 80 % 1022,0 hPa 0,0 l/m² 7,1 km/h (2 Bft) W-NW 300 ° 0 min 0 W/m² 12,2 °C 15,2 °C 14,5 km/h (3 Bft)
16.09.2024 19:35 23,1 °C 15,6 °C 53 % 79 % 1022,0 hPa 0,0 l/m² 8,9 km/h (2 Bft) NW 304 ° 0 min 0 W/m² 12,0 °C 14,3 °C 16,1 km/h (3 Bft)
16.09.2024 19:36 23,1 °C 15,6 °C 53 % 79 % 1022,0 hPa 0,0 l/m² 4,8 km/h (1 Bft) W-SW 256 ° 0 min 0 W/m² 12,0 °C 15,6 °C 16,1 km/h (3 Bft)
16.09.2024 19:37 23,1 °C 15,6 °C 53 % 79 % 1022,0 hPa 0,0 l/m² 6,9 km/h (2 Bft) NW 309 ° 0 min 0 W/m² 12,0 °C 15,3 °C 14,5 km/h (3 Bft)
16.09.2024 19:38 23,1 °C 15,6 °C 53 % 79 % 1022,1 hPa 0,0 l/m² 9,6 km/h (2 Bft) N-NW 329 ° 0 min 0 W/m² 12,0 °C 14,0 °C 14,5 km/h (3 Bft)
16.09.2024 19:39 23,1 °C 15,7 °C 53 % 79 % 1022,1 hPa 0,0 l/m² 4,8 km/h (1 Bft) NW 319 ° 0 min 0 W/m² 12,1 °C 15,7 °C 8,0 km/h (2 Bft)
16.09.2024 19:40 23,1 °C 15,7 °C 53 % 79 % 1022,1 hPa 0,0 l/m² 4,5 km/h (1 Bft) W 278 ° 0 min 0 W/m² 12,1 °C 15,7 °C 11,3 km/h (2 Bft)
16.09.2024 19:41 23,1 °C 15,7 °C 53 % 79 % 1022,1 hPa 0,0 l/m² 3,4 km/h (1 Bft) W-NW 292 ° 0 min 0 W/m² 12,1 °C 15,7 °C 6,4 km/h (2 Bft)
16.09.2024 19:42 23,1 °C 15,6 °C 53 % 79 % 1022,1 hPa 0,0 l/m² 1,1 km/h (1 Bft) W-NW 294 ° 0 min 0 W/m² 12,0 °C 15,6 °C 3,2 km/h (1 Bft)
16.09.2024 19:44 23,1 °C 15,6 °C 53 % 79 % 1022,1 hPa 0,0 l/m² 3,9 km/h (1 Bft) W-NW 301 ° 0 min 0 W/m² 12,0 °C 15,6 °C 12,9 km/h (3 Bft)
16.09.2024 19:45 23,1 °C 15,6 °C 53 % 79 % 1022,1 hPa 0,0 l/m² 4,5 km/h (1 Bft) NW 313 ° 0 min 0 W/m² 12,0 °C 15,6 °C 12,9 km/h (3 Bft)
16.09.2024 19:46 23,1 °C 15,6 °C 53 % 79 % 1022,2 hPa 0,0 l/m² 5,7 km/h (2 Bft) NW 309 ° 0 min 0 W/m² 12,0 °C 15,6 °C 8,0 km/h (2 Bft)
16.09.2024 19:47 23,1 °C 15,6 °C 53 % 79 % 1022,1 hPa 0,0 l/m² 5,0 km/h (1 Bft) W-NW 297 ° 0 min 0 W/m² 12,0 °C 15,6 °C 8,0 km/h (2 Bft)
16.09.2024 19:48 23,1 °C 15,6 °C 53 % 79 % 1022,2 hPa 0,0 l/m² 3,9 km/h (1 Bft) W-NW 300 ° 0 min 0 W/m² 12,0 °C 15,6 °C 8,0 km/h (2 Bft)
16.09.2024 19:49 23,1 °C 15,6 °C 53 % 79 % 1022,1 hPa 0,0 l/m² 4,2 km/h (1 Bft) W-NW 300 ° 0 min 0 W/m² 12,0 °C 15,6 °C 6,4 km/h (2 Bft)
16.09.2024 19:50 23,1 °C 15,6 °C 53 % 79 % 1022,2 hPa 0,0 l/m² 0,9 km/h (0 Bft) W-NW 300 ° 0 min 0 W/m² 12,0 °C 15,6 °C 3,2 km/h (1 Bft)
16.09.2024 19:51 23,1 °C 15,6 °C 53 % 79 % 1022,2 hPa 0,0 l/m² 1,7 km/h (1 Bft) W-NW 292 ° 0 min 0 W/m² 12,0 °C 15,6 °C 4,8 km/h (1 Bft)
16.09.2024 19:52 23,1 °C 15,6 °C 53 % 80 % 1022,2 hPa 0,0 l/m² 3,4 km/h (1 Bft) W-NW 285 ° 0 min 0 W/m² 12,2 °C 15,6 °C 6,4 km/h (2 Bft)
16.09.2024 19:53 23,1 °C 15,5 °C 53 % 79 % 1022,2 hPa 0,0 l/m² 5,7 km/h (2 Bft) NW 304 ° 0 min 0 W/m² 11,9 °C 15,5 °C 11,3 km/h (2 Bft)
16.09.2024 19:54 23,1 °C 15,5 °C 53 % 79 % 1022,3 hPa 0,0 l/m² 1,7 km/h (1 Bft) NW 304 ° 0 min 0 W/m² 11,9 °C 15,5 °C 3,2 km/h (1 Bft)
16.09.2024 19:55 23,1 °C 15,5 °C 53 % 80 % 1022,3 hPa 0,0 l/m² 1,4 km/h (1 Bft) NW 304 ° 0 min 0 W/m² 12,1 °C 15,5 °C 3,2 km/h (1 Bft)
16.09.2024 19:56 23,1 °C 15,4 °C 53 % 80 % 1022,2 hPa 0,0 l/m² 3,6 km/h (1 Bft) W 264 ° 0 min 0 W/m² 12,0 °C 15,4 °C 11,3 km/h (2 Bft)
16.09.2024 19:57 23,1 °C 15,4 °C 53 % 80 % 1022,2 hPa 0,0 l/m² 2,5 km/h (1 Bft) W 270 ° 0 min 0 W/m² 12,0 °C 15,4 °C 4,8 km/h (1 Bft)
16.09.2024 19:58 23,1 °C 15,4 °C 53 % 80 % 1022,3 hPa 0,0 l/m² 3,8 km/h (1 Bft) W-NW 290 ° 0 min 0 W/m² 12,0 °C 15,4 °C 12,9 km/h (3 Bft)
16.09.2024 19:59 23,1 °C 15,4 °C 53 % 80 % 1022,2 hPa 0,0 l/m² 7,2 km/h (2 Bft) W-NW 291 ° 0 min 0 W/m² 12,0 °C 15,0 °C 16,1 km/h (3 Bft)
16.09.2024 20:00 23,0 °C 15,4 °C 53 % 80 % 1022,4 hPa 0,0 l/m² 1,1 km/h (1 Bft) W-SW 250 ° 0 min 0 W/m² 12,0 °C 15,4 °C 4,8 km/h (1 Bft)
16.09.2024 20:01 23,1 °C 15,4 °C 53 % 79 % 1022,3 hPa 0,0 l/m² 3,9 km/h (1 Bft) W-NW 288 ° 0 min 0 W/m² 11,8 °C 15,4 °C 6,4 km/h (2 Bft)
16.09.2024 20:02 23,1 °C 15,4 °C 53 % 80 % 1022,4 hPa 0,0 l/m² 2,3 km/h (1 Bft) W 281 ° 0 min 0 W/m² 12,0 °C 15,4 °C 9,7 km/h (2 Bft)
16.09.2024 20:03 23,0 °C 15,4 °C 53 % 80 % 1022,3 hPa 0,0 l/m² 1,4 km/h (1 Bft) W 276 ° 0 min 0 W/m² 12,0 °C 15,4 °C 6,4 km/h (2 Bft)
16.09.2024 20:04 23,0 °C 15,4 °C 53 % 80 % 1022,4 hPa 0,0 l/m² 2,3 km/h (1 Bft) W 271 ° 0 min 0 W/m² 12,0 °C 15,4 °C 4,8 km/h (1 Bft)
16.09.2024 20:05 23,0 °C 15,4 °C 53 % 79 % 1022,5 hPa 0,0 l/m² 4,4 km/h (1 Bft) W-NW 298 ° 0 min 0 W/m² 11,8 °C 15,4 °C 6,4 km/h (2 Bft)
16.09.2024 20:06 23,0 °C 15,4 °C 53 % 79 % 1022,5 hPa 0,0 l/m² 3,6 km/h (1 Bft) W-NW 285 ° 0 min 0 W/m² 11,8 °C 15,4 °C 6,4 km/h (2 Bft)
16.09.2024 20:07 23,0 °C 15,4 °C 53 % 79 % 1022,5 hPa 0,0 l/m² 5,6 km/h (2 Bft) NW 309 ° 0 min 0 W/m² 11,8 °C 15,4 °C 9,7 km/h (2 Bft)
16.09.2024 20:08 23,0 °C 15,4 °C 53 % 79 % 1022,5 hPa 0,0 l/m² 5,0 km/h (1 Bft) W-NW 292 ° 0 min 0 W/m² 11,8 °C 15,4 °C 8,0 km/h (2 Bft)
16.09.2024 20:09 23,0 °C 15,4 °C 53 % 79 % 1022,4 hPa 0,0 l/m² 2,4 km/h (1 Bft) W-NW 285 ° 0 min 0 W/m² 11,8 °C 15,4 °C 8,0 km/h (2 Bft)
16.09.2024 20:10 23,0 °C 15,4 °C 53 % 79 % 1022,5 hPa 0,0 l/m² 2,6 km/h (1 Bft) W 275 ° 0 min 0 W/m² 11,8 °C 15,4 °C 9,7 km/h (2 Bft)
16.09.2024 20:11 23,0 °C 15,4 °C 53 % 79 % 1022,5 hPa 0,0 l/m² 5,8 km/h (2 Bft) W-NW 302 ° 0 min 0 W/m² 11,8 °C 15,4 °C 11,3 km/h (2 Bft)
16.09.2024 20:12 23,0 °C 15,4 °C 53 % 79 % 1022,5 hPa 0,0 l/m² 3,1 km/h (1 Bft) W-NW 302 ° 0 min 0 W/m² 11,8 °C 15,4 °C 4,8 km/h (1 Bft)
16.09.2024 20:13 23,0 °C 15,4 °C 53 % 79 % 1022,6 hPa 0,0 l/m² 5,6 km/h (2 Bft) NW 310 ° 0 min 0 W/m² 11,8 °C 15,4 °C 11,3 km/h (2 Bft)
16.09.2024 20:14 23,0 °C 15,3 °C 53 % 79 % 1022,7 hPa 0,0 l/m² 4,8 km/h (1 Bft) NW 311 ° 0 min 0 W/m² 11,7 °C 15,3 °C 8,0 km/h (2 Bft)
16.09.2024 20:15 23,0 °C 15,3 °C 53 % 79 % 1022,6 hPa 0,0 l/m² 3,4 km/h (1 Bft) W-NW 297 ° 0 min 0 W/m² 11,7 °C 15,3 °C 4,8 km/h (1 Bft)
16.09.2024 20:16 23,0 °C 15,3 °C 53 % 79 % 1022,7 hPa 0,0 l/m² 2,8 km/h (1 Bft) W-NW 292 ° 0 min 0 W/m² 11,7 °C 15,3 °C 4,8 km/h (1 Bft)
16.09.2024 20:17 23,1 °C 15,3 °C 53 % 79 % 1022,7 hPa 0,0 l/m² 5,1 km/h (1 Bft) W-NW 298 ° 0 min 0 W/m² 11,7 °C 15,3 °C 8,0 km/h (2 Bft)
16.09.2024 20:18 23,0 °C 15,3 °C 53 % 79 % 1022,7 hPa 0,0 l/m² 4,9 km/h (1 Bft) N-NW 327 ° 0 min 0 W/m² 11,7 °C 15,3 °C 8,0 km/h (2 Bft)
16.09.2024 20:19 23,0 °C 15,3 °C 53 % 79 % 1022,7 hPa 0,0 l/m² 5,6 km/h (2 Bft) W-NW 283 ° 0 min 0 W/m² 11,7 °C 15,3 °C 11,3 km/h (2 Bft)
16.09.2024 20:20 23,1 °C 15,3 °C 53 % 79 % 1022,7 hPa 0,0 l/m² 3,4 km/h (1 Bft) W-NW 292 ° 0 min 0 W/m² 11,7 °C 15,3 °C 6,4 km/h (2 Bft)
16.09.2024 20:21 23,1 °C 15,3 °C 53 % 79 % 1022,7 hPa 0,0 l/m² 3,4 km/h (1 Bft) W-NW 292 ° 0 min 0 W/m² 11,7 °C 15,3 °C 4,8 km/h (1 Bft)
16.09.2024 20:22 23,1 °C 15,3 °C 53 % 79 % 1022,7 hPa 0,0 l/m² 4,2 km/h (1 Bft) W-NW 298 ° 0 min 0 W/m² 11,7 °C 15,3 °C 8,0 km/h (2 Bft)
16.09.2024 20:23 23,1 °C 15,3 °C 53 % 79 % 1022,7 hPa 0,0 l/m² 3,6 km/h (1 Bft) W-NW 301 ° 0 min 0 W/m² 11,7 °C 15,3 °C 6,4 km/h (2 Bft)
16.09.2024 20:24 23,1 °C 15,3 °C 53 % 80 % 1022,7 hPa 0,0 l/m² 2,9 km/h (1 Bft) W-NW 301 ° 0 min 0 W/m² 11,9 °C 15,3 °C 4,8 km/h (1 Bft)
16.09.2024 20:25 23,1 °C 15,2 °C 53 % 79 % 1022,7 hPa 0,0 l/m² 4,7 km/h (1 Bft) NW 321 ° 0 min 0 W/m² 11,6 °C 15,2 °C 8,0 km/h (2 Bft)
16.09.2024 20:26 23,1 °C 15,2 °C 53 % 80 % 1022,7 hPa 0,0 l/m² 3,0 km/h (1 Bft) N-NW 330 ° 0 min 0 W/m² 11,8 °C 15,2 °C 8,0 km/h (2 Bft)
16.09.2024 20:27 23,1 °C 15,2 °C 53 % 80 % 1022,7 hPa 0,0 l/m² 1,1 km/h (1 Bft) NW 319 ° 0 min 0 W/m² 11,8 °C 15,2 °C 3,2 km/h (1 Bft)
16.09.2024 20:28 23,1 °C 15,2 °C 53 % 80 % 1022,7 hPa 0,0 l/m² 1,3 km/h (1 Bft) W-NW 294 ° 0 min 0 W/m² 11,8 °C 15,2 °C 4,8 km/h (1 Bft)
16.09.2024 20:29 23,1 °C 15,1 °C 53 % 80 % 1022,7 hPa 0,0 l/m² 5,0 km/h (1 Bft) W-NW 302 ° 0 min 0 W/m² 11,7 °C 15,1 °C 9,7 km/h (2 Bft)
16.09.2024 20:30 23,1 °C 15,1 °C 53 % 80 % 1022,7 hPa 0,0 l/m² 5,1 km/h (1 Bft) W-NW 300 ° 0 min 0 W/m² 11,7 °C 15,1 °C 12,9 km/h (3 Bft)
16.09.2024 20:31 23,1 °C 15,1 °C 53 % 80 % 1022,8 hPa 0,0 l/m² 3,7 km/h (1 Bft) NW 312 ° 0 min 0 W/m² 11,7 °C 15,1 °C 8,0 km/h (2 Bft)
16.09.2024 20:32 23,1 °C 15,1 °C 53 % 80 % 1022,9 hPa 0,0 l/m² 4,2 km/h (1 Bft) NW 314 ° 0 min 0 W/m² 11,7 °C 15,1 °C 12,9 km/h (3 Bft)
16.09.2024 20:33 23,1 °C 15,1 °C 53 % 80 % 1022,9 hPa 0,0 l/m² 8,1 km/h (2 Bft) NW 307 ° 0 min 0 W/m² 11,7 °C 14,2 °C 11,3 km/h (2 Bft)
16.09.2024 20:34 23,1 °C 15,1 °C 53 % 80 % 1022,9 hPa 0,0 l/m² 5,6 km/h (2 Bft) W-NW 300 ° 0 min 0 W/m² 11,7 °C 15,1 °C 9,7 km/h (2 Bft)
16.09.2024 20:35 23,1 °C 15,1 °C 53 % 80 % 1022,9 hPa 0,0 l/m² 4,3 km/h (1 Bft) NW 308 ° 0 min 0 W/m² 11,7 °C 15,1 °C 8,0 km/h (2 Bft)
16.09.2024 20:36 23,1 °C 15,1 °C 53 % 80 % 1022,9 hPa 0,0 l/m² 8,3 km/h (2 Bft) NW 309 ° 0 min 0 W/m² 11,7 °C 14,0 °C 14,5 km/h (3 Bft)
16.09.2024 20:37 23,1 °C 15,1 °C 53 % 80 % 1022,9 hPa 0,0 l/m² 6,9 km/h (2 Bft) W 268 ° 0 min 0 W/m² 11,7 °C 14,8 °C 14,5 km/h (3 Bft)
16.09.2024 20:38 23,1 °C 15,2 °C 53 % 80 % 1022,9 hPa 0,0 l/m² 8,1 km/h (2 Bft) N-NW 336 ° 0 min 0 W/m² 11,8 °C 14,3 °C 11,3 km/h (2 Bft)
16.09.2024 20:39 23,1 °C 15,1 °C 53 % 80 % 1022,8 hPa 0,0 l/m² 5,9 km/h (2 Bft) NW 323 ° 0 min 0 W/m² 11,7 °C 15,1 °C 9,7 km/h (2 Bft)
16.09.2024 20:40 23,1 °C 15,1 °C 53 % 80 % 1022,9 hPa 0,0 l/m² 5,4 km/h (2 Bft) W-NW 300 ° 0 min 0 W/m² 11,7 °C 15,1 °C 11,3 km/h (2 Bft)
16.09.2024 20:41 23,1 °C 15,2 °C 53 % 80 % 1023,0 hPa 0,0 l/m² 6,2 km/h (2 Bft) N-NW 342 ° 0 min 0 W/m² 11,8 °C 15,2 °C 9,7 km/h (2 Bft)
16.09.2024 20:42 23,2 °C 15,2 °C 53 % 80 % 1022,9 hPa 0,0 l/m² 6,9 km/h (2 Bft) W-NW 300 ° 0 min 0 W/m² 11,8 °C 14,9 °C 12,9 km/h (3 Bft)
16.09.2024 20:43 23,1 °C 15,1 °C 54 % 80 % 1023,0 hPa 0,0 l/m² 7,4 km/h (2 Bft) W-NW 303 ° 0 min 0 W/m² 11,7 °C 14,5 °C 16,1 km/h (3 Bft)
16.09.2024 20:44 23,1 °C 15,1 °C 54 % 79 % 1023,0 hPa 0,0 l/m² 8,1 km/h (2 Bft) W 280 ° 0 min 0 W/m² 11,5 °C 14,2 °C 16,1 km/h (3 Bft)
16.09.2024 20:45 23,1 °C 15,2 °C 54 % 80 % 1023,0 hPa 0,0 l/m² 10,8 km/h (2 Bft) W-NW 288 ° 0 min 0 W/m² 11,8 °C 13,0 °C 20,9 km/h (4 Bft)
16.09.2024 20:46 23,1 °C 15,1 °C 54 % 79 % 1023,0 hPa 0,0 l/m² 8,9 km/h (2 Bft) N-NW 328 ° 0 min 0 W/m² 11,5 °C 13,7 °C 14,5 km/h (3 Bft)
16.09.2024 20:47 23,2 °C 15,2 °C 54 % 79 % 1022,9 hPa 0,0 l/m² 6,4 km/h (2 Bft) N-NW 331 ° 0 min 0 W/m² 11,6 °C 15,2 °C 9,7 km/h (2 Bft)
16.09.2024 20:48 23,2 °C 15,2 °C 54 % 79 % 1023,0 hPa 0,0 l/m² 8,4 km/h (2 Bft) N-NW 338 ° 0 min 0 W/m² 11,6 °C 14,1 °C 16,1 km/h (3 Bft)
16.09.2024 20:49 23,2 °C 15,2 °C 54 % 79 % 1023,0 hPa 0,0 l/m² 5,4 km/h (2 Bft) W-NW 291 ° 0 min 0 W/m² 11,6 °C 15,2 °C 6,4 km/h (2 Bft)
16.09.2024 20:50 23,2 °C 15,2 °C 54 % 79 % 1023,0 hPa 0,0 l/m² 7,2 km/h (2 Bft) N-NW 333 ° 0 min 0 W/m² 11,6 °C 14,8 °C 16,1 km/h (3 Bft)
16.09.2024 20:52 23,2 °C 15,1 °C 54 % 79 % 1023,0 hPa 0,0 l/m² 6,2 km/h (2 Bft) N-NW 347 ° 0 min 0 W/m² 11,5 °C 15,1 °C 11,3 km/h (2 Bft)
16.09.2024 20:53 23,2 °C 15,1 °C 54 % 79 % 1023,0 hPa 0,0 l/m² 7,9 km/h (2 Bft) NW 316 ° 0 min 0 W/m² 11,5 °C 14,3 °C 12,9 km/h (3 Bft)
16.09.2024 20:54 23,2 °C 15,1 °C 54 % 79 % 1023,0 hPa 0,0 l/m² 11,4 km/h (2 Bft) NW 314 ° 0 min 0 W/m² 11,5 °C 12,6 °C 16,1 km/h (3 Bft)
16.09.2024 20:55 23,2 °C 15,1 °C 54 % 79 % 1023,0 hPa 0,0 l/m² 11,5 km/h (2 Bft) NW 321 ° 0 min 0 W/m² 11,5 °C 12,6 °C 16,1 km/h (3 Bft)
16.09.2024 20:56 23,2 °C 15,1 °C 54 % 79 % 1023,0 hPa 0,0 l/m² 6,9 km/h (2 Bft) N 355 ° 0 min 0 W/m² 11,5 °C 14,8 °C 9,7 km/h (2 Bft)
16.09.2024 20:58 23,2 °C 15,2 °C 54 % 79 % 1023,0 hPa 0,0 l/m² 10,7 km/h (2 Bft) W 273 ° 0 min 0 W/m² 11,6 °C 13,0 °C 17,7 km/h (3 Bft)
16.09.2024 20:59 23,2 °C 15,2 °C 54 % 79 % 1023,0 hPa 0,0 l/m² 8,7 km/h (2 Bft) N-NW 329 ° 0 min 0 W/m² 11,6 °C 14,0 °C 12,9 km/h (3 Bft)
16.09.2024 21:00 23,2 °C 15,2 °C 54 % 79 % 1023,0 hPa 0,0 l/m² 7,3 km/h (2 Bft) W-NW 292 ° 0 min 0 W/m² 11,6 °C 14,7 °C 9,7 km/h (2 Bft)
16.09.2024 21:01 23,2 °C 15,2 °C 54 % 79 % 1023,1 hPa 0,0 l/m² 8,3 km/h (2 Bft) N-NW 331 ° 0 min 0 W/m² 11,6 °C 14,2 °C 12,9 km/h (3 Bft)
16.09.2024 21:03 23,2 °C 15,1 °C 54 % 79 % 1023,0 hPa 0,0 l/m² 8,1 km/h (2 Bft) N-NW 334 ° 0 min 0 W/m² 11,5 °C 14,2 °C 12,9 km/h (3 Bft)
16.09.2024 21:04 23,2 °C 15,2 °C 54 % 79 % 1023,0 hPa 0,0 l/m² 9,7 km/h (2 Bft) N-NW 339 ° 0 min 0 W/m² 11,6 °C 13,5 °C 14,5 km/h (3 Bft)
16.09.2024 21:05 23,2 °C 15,1 °C 54 % 79 % 1023,1 hPa 0,0 l/m² 7,8 km/h (2 Bft) N 355 ° 0 min 0 W/m² 11,5 °C 14,3 °C 9,7 km/h (2 Bft)
16.09.2024 21:06 23,2 °C 15,1 °C 54 % 79 % 1023,1 hPa 0,0 l/m² 8,9 km/h (2 Bft) N 349 ° 0 min 0 W/m² 11,5 °C 13,7 °C 16,1 km/h (3 Bft)
16.09.2024 21:07 23,2 °C 15,1 °C 54 % 79 % 1023,1 hPa 0,0 l/m² 11,9 km/h (2 Bft) NW 313 ° 0 min 0 W/m² 11,5 °C 12,4 °C 16,1 km/h (3 Bft)
16.09.2024 21:08 23,2 °C 15,1 °C 54 % 79 % 1023,1 hPa 0,0 l/m² 10,8 km/h (2 Bft) NW 326 ° 0 min 0 W/m² 11,5 °C 12,9 °C 17,7 km/h (3 Bft)
16.09.2024 21:09 23,2 °C 15,2 °C 54 % 79 % 1023,1 hPa 0,0 l/m² 7,5 km/h (2 Bft) N-NW 328 ° 0 min 0 W/m² 11,6 °C 14,6 °C 14,5 km/h (3 Bft)
16.09.2024 21:10 23,2 °C 15,1 °C 54 % 79 % 1023,1 hPa 0,0 l/m² 4,7 km/h (1 Bft) NW 306 ° 0 min 0 W/m² 11,5 °C 15,1 °C 6,4 km/h (2 Bft)
16.09.2024 21:11 23,2 °C 15,1 °C 54 % 79 % 1023,1 hPa 0,0 l/m² 8,9 km/h (2 Bft) N-NW 338 ° 0 min 0 W/m² 11,5 °C 13,7 °C 14,5 km/h (3 Bft)
16.09.2024 21:12 23,2 °C 15,1 °C 54 % 79 % 1023,1 hPa 0,0 l/m² 7,0 km/h (2 Bft) N-NW 337 ° 0 min 0 W/m² 11,5 °C 14,8 °C 12,9 km/h (3 Bft)
16.09.2024 21:13 23,2 °C 15,1 °C 54 % 79 % 1023,1 hPa 0,0 l/m² 6,6 km/h (2 Bft) NW 313 ° 0 min 0 W/m² 11,5 °C 15,0 °C 14,5 km/h (3 Bft)
16.09.2024 21:14 23,2 °C 15,1 °C 54 % 79 % 1023,2 hPa 0,0 l/m² 4,8 km/h (1 Bft) N-NW 333 ° 0 min 0 W/m² 11,5 °C 15,1 °C 8,0 km/h (2 Bft)
16.09.2024 21:15 23,2 °C 15,1 °C 54 % 79 % 1023,1 hPa 0,0 l/m² 11,4 km/h (2 Bft) NW 308 ° 0 min 0 W/m² 11,5 °C 12,6 °C 14,5 km/h (3 Bft)
16.09.2024 21:16 23,2 °C 15,1 °C 54 % 79 % 1023,1 hPa 0,0 l/m² 7,5 km/h (2 Bft) NW 319 ° 0 min 0 W/m² 11,5 °C 14,5 °C 12,9 km/h (3 Bft)
16.09.2024 21:18 23,2 °C 15,1 °C 54 % 79 % 1023,0 hPa 0,0 l/m² 9,1 km/h (2 Bft) W-NW 294 ° 0 min 0 W/m² 11,5 °C 13,6 °C 16,1 km/h (3 Bft)
16.09.2024 21:19 23,2 °C 15,1 °C 54 % 79 % 1023,0 hPa 0,0 l/m² 6,9 km/h (2 Bft) NW 323 ° 0 min 0 W/m² 11,5 °C 14,8 °C 11,3 km/h (2 Bft)
16.09.2024 21:20 23,2 °C 15,1 °C 54 % 79 % 1023,0 hPa 0,0 l/m² 8,9 km/h (2 Bft) N 355 ° 0 min 0 W/m² 11,5 °C 13,7 °C 14,5 km/h (3 Bft)
16.09.2024 21:21 23,2 °C 15,1 °C 54 % 79 % 1023,0 hPa 0,0 l/m² 6,9 km/h (2 Bft) NW 307 ° 0 min 0 W/m² 11,5 °C 14,8 °C 12,9 km/h (3 Bft)
16.09.2024 21:23 23,2 °C 15,1 °C 54 % 79 % 1023,1 hPa 0,0 l/m² 7,2 km/h (2 Bft) N-NW 336 ° 0 min 0 W/m² 11,5 °C 14,6 °C 16,1 km/h (3 Bft)
16.09.2024 21:24 23,2 °C 15,0 °C 54 % 79 % 1023,1 hPa 0,0 l/m² 5,8 km/h (2 Bft) W-NW 290 ° 0 min 0 W/m² 11,4 °C 15,0 °C 12,9 km/h (3 Bft)
16.09.2024 21:25 23,2 °C 15,0 °C 55 % 80 % 1023,0 hPa 0,0 l/m² 8,4 km/h (2 Bft) NW 313 ° 0 min 0 W/m² 11,6 °C 13,9 °C 12,9 km/h (3 Bft)
16.09.2024 21:26 23,2 °C 15,0 °C 54 % 80 % 1023,1 hPa 0,0 l/m² 6,4 km/h (2 Bft) N-NW 343 ° 0 min 0 W/m² 11,6 °C 15,0 °C 11,3 km/h (2 Bft)
16.09.2024 21:27 23,2 °C 15,0 °C 54 % 80 % 1023,0 hPa 0,0 l/m² 8,0 km/h (2 Bft) W-NW 287 ° 0 min 0 W/m² 11,6 °C 14,1 °C 12,9 km/h (3 Bft)
16.09.2024 21:28 23,2 °C 15,0 °C 55 % 80 % 1023,1 hPa 0,0 l/m² 6,8 km/h (2 Bft) NW 313 ° 0 min 0 W/m² 11,6 °C 14,8 °C 11,3 km/h (2 Bft)
16.09.2024 21:29 23,3 °C 14,9 °C 54 % 80 % 1023,1 hPa 0,0 l/m² 9,6 km/h (2 Bft) NW 304 ° 0 min 0 W/m² 11,5 °C 13,2 °C 14,5 km/h (3 Bft)
16.09.2024 21:30 23,3 °C 15,0 °C 55 % 80 % 1023,0 hPa 0,0 l/m² 8,5 km/h (2 Bft) NW 323 ° 0 min 0 W/m² 11,6 °C 13,8 °C 14,5 km/h (3 Bft)
16.09.2024 21:31 23,2 °C 14,9 °C 55 % 80 % 1023,0 hPa 0,0 l/m² 8,9 km/h (2 Bft) W-NW 296 ° 0 min 0 W/m² 11,5 °C 13,5 °C 14,5 km/h (3 Bft)
16.09.2024 21:32 23,2 °C 14,9 °C 55 % 80 % 1023,1 hPa 0,0 l/m² 8,4 km/h (2 Bft) W-NW 286 ° 0 min 0 W/m² 11,5 °C 13,8 °C 14,5 km/h (3 Bft)
16.09.2024 21:33 23,2 °C 14,9 °C 55 % 80 % 1023,0 hPa 0,0 l/m² 8,3 km/h (2 Bft) W-NW 294 ° 0 min 0 W/m² 11,5 °C 13,8 °C 14,5 km/h (3 Bft)
16.09.2024 21:34 23,2 °C 14,9 °C 55 % 80 % 1023,1 hPa 0,0 l/m² 6,0 km/h (2 Bft) NW 313 ° 0 min 0 W/m² 11,5 °C 14,9 °C 14,5 km/h (3 Bft)
16.09.2024 21:35 23,3 °C 14,9 °C 55 % 80 % 1023,1 hPa 0,0 l/m² 5,7 km/h (2 Bft) NW 306 ° 0 min 0 W/m² 11,5 °C 14,9 °C 8,0 km/h (2 Bft)
16.09.2024 21:36 23,2 °C 14,9 °C 55 % 80 % 1023,2 hPa 0,0 l/m² 5,9 km/h (2 Bft) NW 312 ° 0 min 0 W/m² 11,5 °C 14,9 °C 9,7 km/h (2 Bft)
16.09.2024 21:38 23,2 °C 14,9 °C 54 % 80 % 1023,2 hPa 0,0 l/m² 4,5 km/h (1 Bft) NW 304 ° 0 min 0 W/m² 11,5 °C 14,9 °C 9,7 km/h (2 Bft)
16.09.2024 21:39 23,2 °C 14,9 °C 54 % 80 % 1023,2 hPa 0,0 l/m² 4,9 km/h (1 Bft) N-NW 327 ° 0 min 0 W/m² 11,5 °C 14,9 °C 6,4 km/h (2 Bft)
16.09.2024 21:40 23,2 °C 14,8 °C 54 % 80 % 1023,2 hPa 0,0 l/m² 5,5 km/h (2 Bft) W-NW 294 ° 0 min 0 W/m² 11,4 °C 14,8 °C 9,7 km/h (2 Bft)
16.09.2024 21:41 23,2 °C 14,8 °C 54 % 80 % 1023,2 hPa 0,0 l/m² 4,0 km/h (1 Bft) W-NW 286 ° 0 min 0 W/m² 11,4 °C 14,8 °C 8,0 km/h (2 Bft)
16.09.2024 21:43 23,2 °C 14,8 °C 54 % 80 % 1023,2 hPa 0,0 l/m² 7,1 km/h (2 Bft) NW 317 ° 0 min 0 W/m² 11,4 °C 14,4 °C 12,9 km/h (3 Bft)
16.09.2024 21:44 23,2 °C 14,8 °C 54 % 80 % 1023,1 hPa 0,0 l/m² 7,2 km/h (2 Bft) NW 309 ° 0 min 0 W/m² 11,4 °C 14,3 °C 12,9 km/h (3 Bft)
16.09.2024 21:46 23,2 °C 14,8 °C 54 % 80 % 1023,1 hPa 0,0 l/m² 7,5 km/h (2 Bft) W-NW 300 ° 0 min 0 W/m² 11,4 °C 14,2 °C 14,5 km/h (3 Bft)
16.09.2024 21:47 23,2 °C 14,7 °C 54 % 80 % 1023,1 hPa 0,0 l/m² 10,5 km/h (2 Bft) N-NW 338 ° 0 min 0 W/m² 11,3 °C 12,6 °C 17,7 km/h (3 Bft)
16.09.2024 21:48 23,2 °C 14,7 °C 54 % 80 % 1023,1 hPa 0,0 l/m² 6,2 km/h (2 Bft) NW 307 ° 0 min 0 W/m² 11,3 °C 14,7 °C 12,9 km/h (3 Bft)
16.09.2024 21:49 23,2 °C 14,7 °C 55 % 80 % 1023,0 hPa 0,0 l/m² 5,2 km/h (1 Bft) N-NW 342 ° 0 min 0 W/m² 11,3 °C 14,7 °C 9,7 km/h (2 Bft)
16.09.2024 21:50 23,2 °C 14,7 °C 55 % 80 % 1023,0 hPa 0,0 l/m² 7,7 km/h (2 Bft) N-NW 338 ° 0 min 0 W/m² 11,3 °C 14,0 °C 14,5 km/h (3 Bft)
16.09.2024 21:51 23,2 °C 14,7 °C 55 % 80 % 1022,9 hPa 0,0 l/m² 4,6 km/h (1 Bft) W-NW 303 ° 0 min 0 W/m² 11,3 °C 14,7 °C 14,5 km/h (3 Bft)
16.09.2024 21:52 23,2 °C 14,6 °C 55 % 80 % 1022,9 hPa 0,0 l/m² 4,1 km/h (1 Bft) NW 317 ° 0 min 0 W/m² 11,2 °C 14,6 °C 11,3 km/h (2 Bft)
16.09.2024 21:53 23,2 °C 14,6 °C 55 % 80 % 1022,9 hPa 0,0 l/m² 6,4 km/h (2 Bft) W-NW 286 ° 0 min 0 W/m² 11,2 °C 14,6 °C 16,1 km/h (3 Bft)
16.09.2024 21:54 23,2 °C 14,6 °C 55 % 80 % 1022,9 hPa 0,0 l/m² 6,0 km/h (2 Bft) W-NW 298 ° 0 min 0 W/m² 11,2 °C 14,6 °C 14,5 km/h (3 Bft)
16.09.2024 21:55 23,2 °C 14,5 °C 55 % 80 % 1022,9 hPa 0,0 l/m² 3,5 km/h (1 Bft) W 279 ° 0 min 0 W/m² 11,1 °C 14,5 °C 16,1 km/h (3 Bft)
16.09.2024 21:56 23,2 °C 14,4 °C 55 % 80 % 1022,8 hPa 0,0 l/m² 6,4 km/h (2 Bft) NW 320 ° 0 min 0 W/m² 11,0 °C 14,4 °C 12,9 km/h (3 Bft)
16.09.2024 21:58 23,2 °C 14,4 °C 54 % 80 % 1022,7 hPa 0,0 l/m² 7,2 km/h (2 Bft) W-NW 297 ° 0 min 0 W/m² 11,0 °C 13,9 °C 17,7 km/h (3 Bft)
16.09.2024 21:59 23,2 °C 14,4 °C 54 % 80 % 1022,7 hPa 0,0 l/m² 3,7 km/h (1 Bft) W-NW 291 ° 0 min 0 W/m² 11,0 °C 14,4 °C 11,3 km/h (2 Bft)
16.09.2024 22:00 23,2 °C 14,4 °C 54 % 80 % 1022,8 hPa 0,0 l/m² 2,6 km/h (1 Bft) W-NW 287 ° 0 min 0 W/m² 11,0 °C 14,4 °C 11,3 km/h (2 Bft)
16.09.2024 22:01 23,2 °C 14,3 °C 55 % 80 % 1022,8 hPa 0,0 l/m² 4,6 km/h (1 Bft) W 277 ° 0 min 0 W/m² 10,9 °C 14,3 °C 9,7 km/h (2 Bft)
16.09.2024 22:03 23,2 °C 14,3 °C 55 % 81 % 1022,8 hPa 0,0 l/m² 1,0 km/h (0 Bft) W 279 ° 0 min 0 W/m² 11,1 °C 14,3 °C 4,8 km/h (1 Bft)
16.09.2024 22:04 23,2 °C 14,2 °C 55 % 81 % 1022,8 hPa 0,0 l/m² 5,1 km/h (1 Bft) W 269 ° 0 min 0 W/m² 11,0 °C 14,2 °C 12,9 km/h (3 Bft)
16.09.2024 22:05 23,2 °C 14,2 °C 55 % 81 % 1022,8 hPa 0,0 l/m² 2,2 km/h (1 Bft) NW 305 ° 0 min 0 W/m² 11,0 °C 14,2 °C 8,0 km/h (2 Bft)
16.09.2024 22:06 23,2 °C 14,2 °C 55 % 81 % 1022,8 hPa 0,0 l/m² 2,9 km/h (1 Bft) N-NW 335 ° 0 min 0 W/m² 11,0 °C 14,2 °C 8,0 km/h (2 Bft)
16.09.2024 22:07 23,2 °C 14,1 °C 55 % 81 % 1022,9 hPa 0,0 l/m² 5,9 km/h (2 Bft) N-NW 335 ° 0 min 0 W/m² 10,9 °C 14,1 °C 11,3 km/h (2 Bft)
16.09.2024 22:08 23,2 °C 14,1 °C 55 % 81 % 1022,8 hPa 0,0 l/m² 3,8 km/h (1 Bft) W 280 ° 0 min 0 W/m² 10,9 °C 14,1 °C 17,7 km/h (3 Bft)
16.09.2024 22:09 23,1 °C 14,0 °C 55 % 81 % 1022,8 hPa 0,0 l/m² 10,7 km/h (2 Bft) W-NW 296 ° 0 min 0 W/m² 10,8 °C 11,7 °C 14,5 km/h (3 Bft)
16.09.2024 22:10 23,2 °C 14,0 °C 55 % 81 % 1022,9 hPa 0,0 l/m² 5,6 km/h (2 Bft) NW 304 ° 0 min 0 W/m² 10,8 °C 14,0 °C 11,3 km/h (2 Bft)
16.09.2024 22:12 23,1 °C 14,0 °C 55 % 81 % 1022,9 hPa 0,0 l/m² 6,0 km/h (2 Bft) NW 323 ° 0 min 0 W/m² 10,8 °C 14,0 °C 11,3 km/h (2 Bft)
16.09.2024 22:13 23,1 °C 14,0 °C 55 % 81 % 1022,9 hPa 0,0 l/m² 3,4 km/h (1 Bft) N-NW 335 ° 0 min 0 W/m² 10,8 °C 14,0 °C 4,8 km/h (1 Bft)
16.09.2024 22:14 23,2 °C 14,0 °C 55 % 81 % 1022,9 hPa 0,0 l/m² 1,5 km/h (1 Bft) W-NW 303 ° 0 min 0 W/m² 10,8 °C 14,0 °C 3,2 km/h (1 Bft)
16.09.2024 22:15 23,2 °C 13,9 °C 55 % 81 % 1022,9 hPa 0,0 l/m² 6,2 km/h (2 Bft) N-NW 331 ° 0 min 0 W/m² 10,7 °C 13,9 °C 11,3 km/h (2 Bft)
16.09.2024 22:16 23,1 °C 13,9 °C 55 % 82 % 1023,0 hPa 0,0 l/m² 8,4 km/h (2 Bft) W-NW 282 ° 0 min 0 W/m² 10,9 °C 12,7 °C 14,5 km/h (3 Bft)
16.09.2024 22:18 23,2 °C 14,0 °C 55 % 81 % 1023,1 hPa 0,0 l/m² 3,4 km/h (1 Bft) W 271 ° 0 min 0 W/m² 10,8 °C 14,0 °C 8,0 km/h (2 Bft)
16.09.2024 22:19 23,2 °C 14,0 °C 55 % 82 % 1023,1 hPa 0,0 l/m² 3,5 km/h (1 Bft) W 279 ° 0 min 0 W/m² 11,0 °C 14,0 °C 6,4 km/h (2 Bft)
16.09.2024 22:20 23,1 °C 14,0 °C 55 % 82 % 1023,1 hPa 0,0 l/m² 4,7 km/h (1 Bft) W-NW 291 ° 0 min 0 W/m² 11,0 °C 14,0 °C 11,3 km/h (2 Bft)
16.09.2024 22:22 23,1 °C 14,1 °C 55 % 82 % 1023,1 hPa 0,0 l/m² 4,6 km/h (1 Bft) W-NW 300 ° 0 min 0 W/m² 11,1 °C 14,1 °C 11,3 km/h (2 Bft)
16.09.2024 22:23 23,1 °C 14,1 °C 55 % 81 % 1023,1 hPa 0,0 l/m² 4,8 km/h (1 Bft) W-NW 292 ° 0 min 0 W/m² 10,9 °C 14,1 °C 9,7 km/h (2 Bft)
16.09.2024 22:24 23,1 °C 14,1 °C 55 % 81 % 1023,2 hPa 0,0 l/m² 3,6 km/h (1 Bft) W-NW 302 ° 0 min 0 W/m² 10,9 °C 14,1 °C 6,4 km/h (2 Bft)
16.09.2024 22:25 23,1 °C 14,1 °C 55 % 81 % 1023,2 hPa 0,0 l/m² 5,4 km/h (2 Bft) NW 309 ° 0 min 0 W/m² 10,9 °C 14,1 °C 8,0 km/h (2 Bft)
16.09.2024 22:26 23,1 °C 14,2 °C 55 % 81 % 1023,3 hPa 0,0 l/m² 4,1 km/h (1 Bft) NW 318 ° 0 min 0 W/m² 11,0 °C 14,2 °C 6,4 km/h (2 Bft)
16.09.2024 22:27 23,1 °C 14,2 °C 55 % 81 % 1023,2 hPa 0,0 l/m² 4,3 km/h (1 Bft) N 355 ° 0 min 0 W/m² 11,0 °C 14,2 °C 8,0 km/h (2 Bft)
16.09.2024 22:28 23,1 °C 14,2 °C 55 % 81 % 1023,2 hPa 0,0 l/m² 5,8 km/h (2 Bft) NW 304 ° 0 min 0 W/m² 11,0 °C 14,2 °C 11,3 km/h (2 Bft)
16.09.2024 22:29 23,1 °C 14,2 °C 55 % 81 % 1023,2 hPa 0,0 l/m² 6,4 km/h (2 Bft) W-NW 300 ° 0 min 0 W/m² 11,0 °C 14,2 °C 8,0 km/h (2 Bft)
16.09.2024 22:30 23,1 °C 14,2 °C 55 % 81 % 1023,2 hPa 0,0 l/m² 7,9 km/h (2 Bft) NW 323 ° 0 min 0 W/m² 11,0 °C 13,3 °C 12,9 km/h (3 Bft)
16.09.2024 22:31 23,1 °C 14,3 °C 55 % 81 % 1023,2 hPa 0,0 l/m² 5,5 km/h (2 Bft) NW 309 ° 0 min 0 W/m² 11,1 °C 14,3 °C 8,0 km/h (2 Bft)
16.09.2024 22:32 23,1 °C 14,3 °C 55 % 81 % 1023,3 hPa 0,0 l/m² 2,6 km/h (1 Bft) W-NW 294 ° 0 min 0 W/m² 11,1 °C 14,3 °C 6,4 km/h (2 Bft)
16.09.2024 22:33 23,1 °C 14,3 °C 55 % 81 % 1023,3 hPa 0,0 l/m² 3,0 km/h (1 Bft) W-NW 295 ° 0 min 0 W/m² 11,1 °C 14,3 °C 8,0 km/h (2 Bft)
16.09.2024 22:34 23,0 °C 14,3 °C 55 % 81 % 1023,3 hPa 0,0 l/m² 4,2 km/h (1 Bft) W-NW 303 ° 0 min 0 W/m² 11,1 °C 14,3 °C 8,0 km/h (2 Bft)
16.09.2024 22:35 23,1 °C 14,3 °C 55 % 81 % 1023,3 hPa 0,0 l/m² 5,2 km/h (1 Bft) W-NW 302 ° 0 min 0 W/m² 11,1 °C 14,3 °C 11,3 km/h (2 Bft)
16.09.2024 22:36 23,1 °C 14,3 °C 55 % 81 % 1023,3 hPa 0,0 l/m² 5,4 km/h (2 Bft) W-NW 285 ° 0 min 0 W/m² 11,1 °C 14,3 °C 9,7 km/h (2 Bft)
16.09.2024 22:37 23,1 °C 14,3 °C 55 % 81 % 1023,3 hPa 0,0 l/m² 2,4 km/h (1 Bft) W-NW 297 ° 0 min 0 W/m² 11,1 °C 14,3 °C 6,4 km/h (2 Bft)
16.09.2024 22:38 23,1 °C 14,3 °C 55 % 81 % 1023,3 hPa 0,0 l/m² 3,4 km/h (1 Bft) NW 314 ° 0 min 0 W/m² 11,1 °C 14,3 °C 9,7 km/h (2 Bft)
16.09.2024 22:39 23,1 °C 14,3 °C 55 % 81 % 1023,3 hPa 0,0 l/m² 2,2 km/h (1 Bft) NW 312 ° 0 min 0 W/m² 11,1 °C 14,3 °C 4,8 km/h (1 Bft)
16.09.2024 22:40 23,1 °C 14,4 °C 55 % 80 % 1023,4 hPa 0,0 l/m² 6,0 km/h (2 Bft) W-NW 301 ° 0 min 0 W/m² 11,0 °C 14,4 °C 8,0 km/h (2 Bft)
16.09.2024 22:41 23,1 °C 14,4 °C 55 % 80 % 1023,3 hPa 0,0 l/m² 5,8 km/h (2 Bft) NW 305 ° 0 min 0 W/m² 11,0 °C 14,4 °C 8,0 km/h (2 Bft)
16.09.2024 22:42 23,0 °C 14,4 °C 55 % 80 % 1023,3 hPa 0,0 l/m² 6,9 km/h (2 Bft) W-NW 302 ° 0 min 0 W/m² 11,0 °C 14,1 °C 14,5 km/h (3 Bft)
16.09.2024 22:43 23,0 °C 14,4 °C 55 % 80 % 1023,3 hPa 0,0 l/m² 3,8 km/h (1 Bft) W-NW 286 ° 0 min 0 W/m² 11,0 °C 14,4 °C 8,0 km/h (2 Bft)
16.09.2024 22:44 23,0 °C 14,4 °C 55 % 80 % 1023,3 hPa 0,0 l/m² 3,7 km/h (1 Bft) W-NW 296 ° 0 min 0 W/m² 11,0 °C 14,4 °C 12,9 km/h (3 Bft)
16.09.2024 22:45 23,0 °C 14,4 °C 55 % 80 % 1023,2 hPa 0,0 l/m² 5,1 km/h (1 Bft) W-NW 298 ° 0 min 0 W/m² 11,0 °C 14,4 °C 11,3 km/h (2 Bft)
16.09.2024 22:46 23,0 °C 14,4 °C 55 % 80 % 1023,3 hPa 0,0 l/m² 5,1 km/h (1 Bft) NW 309 ° 0 min 0 W/m² 11,0 °C 14,4 °C 8,0 km/h (2 Bft)
16.09.2024 22:47 23,0 °C 14,4 °C 55 % 80 % 1023,3 hPa 0,0 l/m² 6,6 km/h (2 Bft) W-NW 302 ° 0 min 0 W/m² 11,0 °C 14,3 °C 12,9 km/h (3 Bft)
16.09.2024 22:48 22,9 °C 14,4 °C 55 % 80 % 1023,3 hPa 0,0 l/m² 3,7 km/h (1 Bft) NW 306 ° 0 min 0 W/m² 11,0 °C 14,4 °C 6,4 km/h (2 Bft)
16.09.2024 22:49 23,0 °C 14,4 °C 55 % 80 % 1023,3 hPa 0,0 l/m² 4,4 km/h (1 Bft) N-NW 333 ° 0 min 0 W/m² 11,0 °C 14,4 °C 6,4 km/h (2 Bft)
16.09.2024 22:50 22,9 °C 14,5 °C 55 % 80 % 1023,4 hPa 0,0 l/m² 3,6 km/h (1 Bft) W-NW 291 ° 0 min 0 W/m² 11,1 °C 14,5 °C 6,4 km/h (2 Bft)
16.09.2024 22:51 22,9 °C 14,4 °C 55 % 80 % 1023,4 hPa 0,0 l/m² 1,9 km/h (1 Bft) W 279 ° 0 min 0 W/m² 11,0 °C 14,4 °C 4,8 km/h (1 Bft)
16.09.2024 22:52 22,9 °C 14,5 °C 55 % 80 % 1023,4 hPa 0,0 l/m² 0,3 km/h (0 Bft) W 279 ° 0 min 0 W/m² 11,1 °C 14,5 °C 1,6 km/h (1 Bft)
16.09.2024 22:53 22,9 °C 14,4 °C 55 % 80 % 1023,4 hPa 0,0 l/m² 3,8 km/h (1 Bft) W-NW 293 ° 0 min 0 W/m² 11,0 °C 14,4 °C 8,0 km/h (2 Bft)
16.09.2024 22:54 22,9 °C 14,4 °C 55 % 80 % 1023,4 hPa 0,0 l/m² 4,3 km/h (1 Bft) W-NW 302 ° 0 min 0 W/m² 11,0 °C 14,4 °C 8,0 km/h (2 Bft)
16.09.2024 22:55 22,9 °C 14,4 °C 55 % 80 % 1023,4 hPa 0,0 l/m² 3,5 km/h (1 Bft) NW 321 ° 0 min 0 W/m² 11,0 °C 14,4 °C 8,0 km/h (2 Bft)
16.09.2024 22:56 22,9 °C 14,4 °C 55 % 80 % 1023,5 hPa 0,0 l/m² 6,9 km/h (2 Bft) W-NW 288 ° 0 min 0 W/m² 11,0 °C 14,1 °C 12,9 km/h (3 Bft)
16.09.2024 22:57 22,9 °C 14,4 °C 55 % 80 % 1023,4 hPa 0,0 l/m² 3,1 km/h (1 Bft) N 355 ° 0 min 0 W/m² 11,0 °C 14,4 °C 12,9 km/h (3 Bft)
16.09.2024 22:58 22,9 °C 14,4 °C 55 % 80 % 1023,4 hPa 0,0 l/m² 9,2 km/h (2 Bft) W-NW 284 ° 0 min 0 W/m² 11,0 °C 12,8 °C 14,5 km/h (3 Bft)
16.09.2024 22:59 22,9 °C 14,5 °C 55 % 80 % 1023,4 hPa 0,0 l/m² 7,4 km/h (2 Bft) W 279 ° 0 min 0 W/m² 11,1 °C 13,9 °C 11,3 km/h (2 Bft)
16.09.2024 23:00 22,9 °C 14,5 °C 55 % 79 % 1023,4 hPa 0,0 l/m² 5,6 km/h (2 Bft) NW 309 ° 0 min 0 W/m² 10,9 °C 14,5 °C 11,3 km/h (2 Bft)
16.09.2024 23:01 22,9 °C 14,5 °C 55 % 79 % 1023,4 hPa 0,0 l/m² 5,9 km/h (2 Bft) W-NW 301 ° 0 min 0 W/m² 10,9 °C 14,5 °C 9,7 km/h (2 Bft)
16.09.2024 23:02 22,9 °C 14,6 °C 55 % 79 % 1023,3 hPa 0,0 l/m² 7,2 km/h (2 Bft) W 263 ° 0 min 0 W/m² 11,0 °C 14,1 °C 12,9 km/h (3 Bft)
16.09.2024 23:03 22,9 °C 14,6 °C 55 % 79 % 1023,3 hPa 0,0 l/m² 4,6 km/h (1 Bft) NW 317 ° 0 min 0 W/m² 11,0 °C 14,6 °C 12,9 km/h (3 Bft)
16.09.2024 23:04 22,9 °C 14,5 °C 55 % 79 % 1023,3 hPa 0,0 l/m² 2,7 km/h (1 Bft) W 274 ° 0 min 0 W/m² 10,9 °C 14,5 °C 9,7 km/h (2 Bft)
16.09.2024 23:05 22,9 °C 14,6 °C 55 % 79 % 1023,3 hPa 0,0 l/m² 0,9 km/h (0 Bft) W 265 ° 0 min 0 W/m² 11,0 °C 14,6 °C 3,2 km/h (1 Bft)
16.09.2024 23:06 22,9 °C 14,6 °C 55 % 79 % 1023,3 hPa 0,0 l/m² 2,6 km/h (1 Bft) W 278 ° 0 min 0 W/m² 11,0 °C 14,6 °C 6,4 km/h (2 Bft)
16.09.2024 23:07 22,9 °C 14,6 °C 55 % 79 % 1023,2 hPa 0,0 l/m² 8,4 km/h (2 Bft) W-NW 288 ° 0 min 0 W/m² 11,0 °C 13,5 °C 17,7 km/h (3 Bft)
16.09.2024 23:08 22,9 °C 14,5 °C 55 % 79 % 1023,3 hPa 0,0 l/m² 4,5 km/h (1 Bft) NW 318 ° 0 min 0 W/m² 10,9 °C 14,5 °C 11,3 km/h (2 Bft)
16.09.2024 23:09 22,9 °C 14,6 °C 55 % 79 % 1023,4 hPa 0,0 l/m² 2,5 km/h (1 Bft) N-NW 333 ° 0 min 0 W/m² 11,0 °C 14,6 °C 8,0 km/h (2 Bft)
16.09.2024 23:10 22,9 °C 14,6 °C 55 % 79 % 1023,3 hPa 0,0 l/m² 2,0 km/h (1 Bft) W-NW 285 ° 0 min 0 W/m² 11,0 °C 14,6 °C 4,8 km/h (1 Bft)
16.09.2024 23:11 22,9 °C 14,6 °C 55 % 79 % 1023,3 hPa 0,0 l/m² 0,8 km/h (0 Bft) W 279 ° 0 min 0 W/m² 11,0 °C 14,6 °C 1,6 km/h (1 Bft)
16.09.2024 23:12 22,9 °C 14,6 °C 55 % 79 % 1023,3 hPa 0,0 l/m² 2,4 km/h (1 Bft) W 267 ° 0 min 0 W/m² 11,0 °C 14,6 °C 4,8 km/h (1 Bft)
16.09.2024 23:13 22,9 °C 14,6 °C 55 % 80 % 1023,3 hPa 0,0 l/m² 4,7 km/h (1 Bft) W-NW 284 ° 0 min 0 W/m² 11,2 °C 14,6 °C 12,9 km/h (3 Bft)
16.09.2024 23:14 22,9 °C 14,6 °C 55 % 79 % 1023,3 hPa 0,0 l/m² 6,6 km/h (2 Bft) W-NW 282 ° 0 min 0 W/m² 11,0 °C 14,5 °C 12,9 km/h (3 Bft)
16.09.2024 23:15 22,9 °C 14,5 °C 55 % 79 % 1023,3 hPa 0,0 l/m² 4,0 km/h (1 Bft) NW 317 ° 0 min 0 W/m² 10,9 °C 14,5 °C 8,0 km/h (2 Bft)
16.09.2024 23:16 22,9 °C 14,5 °C 55 % 79 % 1023,3 hPa 0,0 l/m² 4,8 km/h (1 Bft) W-NW 292 ° 0 min 0 W/m² 10,9 °C 14,5 °C 14,5 km/h (3 Bft)
16.09.2024 23:17 22,8 °C 14,6 °C 55 % 79 % 1023,2 hPa 0,0 l/m² 4,8 km/h (1 Bft) NW 315 ° 0 min 0 W/m² 11,0 °C 14,6 °C 12,9 km/h (3 Bft)
16.09.2024 23:18 22,9 °C 14,6 °C 55 % 79 % 1023,3 hPa 0,0 l/m² 3,2 km/h (1 Bft) NW 315 ° 0 min 0 W/m² 11,0 °C 14,6 °C 9,7 km/h (2 Bft)
16.09.2024 23:19 22,9 °C 14,6 °C 55 % 79 % 1023,2 hPa 0,0 l/m² 4,8 km/h (1 Bft) W-NW 292 ° 0 min 0 W/m² 11,0 °C 14,6 °C 9,7 km/h (2 Bft)
16.09.2024 23:20 22,8 °C 14,6 °C 55 % 79 % 1023,3 hPa 0,0 l/m² 3,2 km/h (1 Bft) W-NW 292 ° 0 min 0 W/m² 11,0 °C 14,6 °C 4,8 km/h (1 Bft)
16.09.2024 23:21 22,9 °C 14,6 °C 55 % 79 % 1023,3 hPa 0,0 l/m² 6,4 km/h (2 Bft) W-NW 292 ° 0 min 0 W/m² 11,0 °C 14,6 °C 12,9 km/h (3 Bft)
16.09.2024 23:27 22,8 °C 14,6 °C 55 % 79 % 1023,3 hPa 0,0 l/m² 2,9 km/h (1 Bft) NW 305 ° 0 min 0 W/m² 11,0 °C 14,6 °C 4,8 km/h (1 Bft)
16.09.2024 23:28 22,8 °C 14,6 °C 55 % 80 % 1023,3 hPa 0,0 l/m² 1,8 km/h (1 Bft) W-NW 300 ° 0 min 0 W/m² 11,2 °C 14,6 °C 4,8 km/h (1 Bft)
16.09.2024 23:29 22,8 °C 14,6 °C 55 % 80 % 1023,3 hPa 0,0 l/m² 0,0 km/h (0 Bft) W-NW 300 ° 0 min 0 W/m² 11,2 °C 14,6 °C 0,0 km/h (0 Bft)
16.09.2024 23:31 22,8 °C 14,6 °C 55 % 80 % 1023,4 hPa 0,0 l/m² 1,9 km/h (1 Bft) W-NW 292 ° 0 min 0 W/m² 11,2 °C 14,6 °C 4,8 km/h (1 Bft)
16.09.2024 23:33 22,8 °C 14,6 °C 55 % 80 % 1023,3 hPa 0,0 l/m² 5,0 km/h (1 Bft) W 281 ° 0 min 0 W/m² 11,2 °C 14,6 °C 12,9 km/h (3 Bft)
16.09.2024 23:34 22,8 °C 14,5 °C 55 % 80 % 1023,3 hPa 0,0 l/m² 4,2 km/h (1 Bft) W-NW 283 ° 0 min 0 W/m² 11,1 °C 14,5 °C 11,3 km/h (2 Bft)
16.09.2024 23:35 22,8 °C 14,5 °C 55 % 80 % 1023,3 hPa 0,0 l/m² 2,1 km/h (1 Bft) W-NW 295 ° 0 min 0 W/m² 11,1 °C 14,5 °C 6,4 km/h (2 Bft)
16.09.2024 23:36 22,8 °C 14,6 °C 55 % 80 % 1023,4 hPa 0,0 l/m² 8,8 km/h (2 Bft) NW 320 ° 0 min 0 W/m² 11,2 °C 13,3 °C 16,1 km/h (3 Bft)
16.09.2024 23:37 22,8 °C 14,6 °C 55 % 80 % 1023,4 hPa 0,0 l/m² 6,9 km/h (2 Bft) W-NW 289 ° 0 min 0 W/m² 11,2 °C 14,3 °C 12,9 km/h (3 Bft)
16.09.2024 23:39 22,8 °C 14,6 °C 55 % 80 % 1023,4 hPa 0,0 l/m² 3,8 km/h (1 Bft) W 280 ° 0 min 0 W/m² 11,2 °C 14,6 °C 8,0 km/h (2 Bft)
16.09.2024 23:40 22,8 °C 14,6 °C 55 % 80 % 1023,4 hPa 0,0 l/m² 8,6 km/h (2 Bft) NW 305 ° 0 min 0 W/m² 11,2 °C 13,4 °C 14,5 km/h (3 Bft)
16.09.2024 23:41 22,8 °C 14,6 °C 55 % 80 % 1023,3 hPa 0,0 l/m² 6,8 km/h (2 Bft) NW 307 ° 0 min 0 W/m² 11,2 °C 14,4 °C 12,9 km/h (3 Bft)
16.09.2024 23:42 22,8 °C 14,6 °C 55 % 80 % 1023,3 hPa 0,0 l/m² 4,8 km/h (1 Bft) W-NW 290 ° 0 min 0 W/m² 11,2 °C 14,6 °C 8,0 km/h (2 Bft)
16.09.2024 23:43 22,8 °C 14,6 °C 55 % 80 % 1023,4 hPa 0,0 l/m² 2,9 km/h (1 Bft) W-NW 297 ° 0 min 0 W/m² 11,2 °C 14,6 °C 6,4 km/h (2 Bft)
16.09.2024 23:44 22,8 °C 14,6 °C 55 % 80 % 1023,4 hPa 0,0 l/m² 3,3 km/h (1 Bft) W-NW 289 ° 0 min 0 W/m² 11,2 °C 14,6 °C 9,7 km/h (2 Bft)
16.09.2024 23:45 22,8 °C 14,6 °C 55 % 80 % 1023,4 hPa 0,0 l/m² 3,5 km/h (1 Bft) W-NW 298 ° 0 min 0 W/m² 11,2 °C 14,6 °C 11,3 km/h (2 Bft)
16.09.2024 23:46 22,8 °C 14,6 °C 55 % 80 % 1023,4 hPa 0,0 l/m² 3,6 km/h (1 Bft) NW 312 ° 0 min 0 W/m² 11,2 °C 14,6 °C 6,4 km/h (2 Bft)
16.09.2024 23:47 22,8 °C 14,6 °C 55 % 80 % 1023,4 hPa 0,0 l/m² 4,3 km/h (1 Bft) W-NW 295 ° 0 min 0 W/m² 11,2 °C 14,6 °C 8,0 km/h (2 Bft)
16.09.2024 23:48 22,8 °C 14,6 °C 55 % 80 % 1023,4 hPa 0,0 l/m² 5,4 km/h (2 Bft) W-NW 293 ° 0 min 0 W/m² 11,2 °C 14,6 °C 9,7 km/h (2 Bft)
16.09.2024 23:49 22,8 °C 14,6 °C 55 % 80 % 1023,4 hPa 0,0 l/m² 6,6 km/h (2 Bft) W-NW 296 ° 0 min 0 W/m² 11,2 °C 14,5 °C 12,9 km/h (3 Bft)
16.09.2024 23:51 22,8 °C 14,6 °C 55 % 80 % 1023,3 hPa 0,0 l/m² 5,3 km/h (1 Bft) W-NW 289 ° 0 min 0 W/m² 11,2 °C 14,6 °C 12,9 km/h (3 Bft)
16.09.2024 23:53 22,8 °C 14,6 °C 55 % 80 % 1023,3 hPa 0,0 l/m² 5,9 km/h (2 Bft) N-NW 344 ° 0 min 0 W/m² 11,2 °C 14,6 °C 12,9 km/h (3 Bft)
16.09.2024 23:54 22,8 °C 14,6 °C 55 % 80 % 1023,3 hPa 0,0 l/m² 7,4 km/h (2 Bft) W-NW 295 ° 0 min 0 W/m² 11,2 °C 14,0 °C 12,9 km/h (3 Bft)
16.09.2024 23:55 22,8 °C 14,6 °C 55 % 80 % 1023,3 hPa 0,0 l/m² 6,2 km/h (2 Bft) N-NW 346 ° 0 min 0 W/m² 11,2 °C 14,6 °C 14,5 km/h (3 Bft)
16.09.2024 23:56 22,8 °C 14,6 °C 55 % 80 % 1023,4 hPa 0,0 l/m² 5,2 km/h (1 Bft) W-NW 290 ° 0 min 0 W/m² 11,2 °C 14,6 °C 8,0 km/h (2 Bft)
16.09.2024 23:57 22,8 °C 14,6 °C 55 % 80 % 1023,4 hPa 0,0 l/m² 8,4 km/h (2 Bft) W-NW 293 ° 0 min 0 W/m² 11,2 °C 13,5 °C 16,1 km/h (3 Bft)
16.09.2024 23:58 22,8 °C 14,6 °C 55 % 80 % 1023,3 hPa 0,0 l/m² 10,5 km/h (2 Bft) NW 325 ° 0 min 0 W/m² 11,2 °C 12,4 °C 16,1 km/h (3 Bft)
16.09.2024 23:59 22,8 °C 14,6 °C 55 % 80 % 1023,4 hPa 0,0 l/m² 8,4 km/h (2 Bft) NW 308 ° 0 min 0 W/m² 11,2 °C 13,5 °C 12,9 km/h (3 Bft)
_ Min-Zeit 23:59 03:14 07:05 17:11 08:55 - 23:29 - - - - 05:16 13:29 23:29
Minimum _ 22,8 °C 11,8 °C 50 % 78 % 1019,7 hPa - 0,0 km/h (0 Bft) - - - - 9,6 °C 7,2 °C 0,0 km/h (0 Bft)
_ Max-Zeit 00:09 19:41 23:59 11:57 22:56 11:19 13:29 - - 17:53 14:58 19:18 19:12 13:43
Maximum _ 25,2 °C 15,7 °C 55 % 90 % 1023,5 hPa 0,2 l/m² 22,4 km/h
N-NW (4 Bft)
- - 2 min 193 W/m² 12,3 °C 15,7 °C 37,0 km/h
N-NW (5 Bft)
Durchschnitt _ 23,6 °C 13,6 °C 52 % 83 % 1021,0 hPa #1,2 l/m² 8,6 km/h (2 Bft) W-NW - #8:40 h 38 W/m² 10,8 °C 12,1 °C 16,1 km/h (3 Bft)
© 2009 Mathias Hoßbach